<?xml version="1.0" encoding="UTF-8" standalone="yes"?>
<gpx
 xmlns="http://www.topografix.com/GPX/1/1"
 creator="OziExplorer Version 3956f - http://www.oziexplorer.com"
 version="1.1"
 xmlns:xsi="http://www.w3.org/2001/XMLSchema-instance"
 xsi:schemaLocation="http://www.topografix.com/GPX/1/1 http://www.topografix.com/GPX/1/1/gpx.xsd">
<metadata>
 <time>2021-09-24T09:42:36Z</time>
 <bounds minlat="31.784849" minlon="34.989926" maxlat="31.840802" maxlon="35.058575"/>
</metadata>
<trk>
 <name>EshtKanadaIlanMishl_40km</name>
 <desc>EshtKanadaIlanMishl_40km</desc>
<trkseg>
<trkpt lat="31.8114150" lon="35.0128669">
<ele>293.200012</ele>
<time>2021-09-24T03:52:26.000Z</time>
</trkpt>
<trkpt lat="31.8114667" lon="35.0132421">
<ele>296.200012</ele>
<time>2021-09-24T04:00:06.000Z</time>
</trkpt>
<trkpt lat="31.8113579" lon="35.0135126">
<ele>297.000000</ele>
<time>2021-09-24T04:00:16.000Z</time>
</trkpt>
<trkpt lat="31.8112396" lon="35.0137342">
<ele>298.399994</ele>
<time>2021-09-24T04:00:23.000Z</time>
</trkpt>
<trkpt lat="31.8110002" lon="35.0141176">
<ele>298.399994</ele>
<time>2021-09-24T04:00:34.000Z</time>
</trkpt>
<trkpt lat="31.8108754" lon="35.0143497">
<ele>299.200012</ele>
<time>2021-09-24T04:00:41.000Z</time>
</trkpt>
<trkpt lat="31.8106931" lon="35.0146536">
<ele>299.799988</ele>
<time>2021-09-24T04:00:49.000Z</time>
</trkpt>
<trkpt lat="31.8105399" lon="35.0149264">
<ele>300.600006</ele>
<time>2021-09-24T04:00:56.000Z</time>
</trkpt>
<trkpt lat="31.8104699" lon="35.0152053">
<ele>302.200012</ele>
<time>2021-09-24T04:01:05.000Z</time>
</trkpt>
<trkpt lat="31.8103739" lon="35.0154231">
<ele>303.000000</ele>
<time>2021-09-24T04:01:12.000Z</time>
</trkpt>
<trkpt lat="31.8103181" lon="35.0156459">
<ele>304.200012</ele>
<time>2021-09-24T04:01:21.000Z</time>
</trkpt>
<trkpt lat="31.8102366" lon="35.0159450">
<ele>305.200012</ele>
<time>2021-09-24T04:01:30.000Z</time>
</trkpt>
<trkpt lat="31.8101060" lon="35.0163205">
<ele>305.799988</ele>
<time>2021-09-24T04:01:38.000Z</time>
</trkpt>
<trkpt lat="31.8099373" lon="35.0168098">
<ele>306.399994</ele>
<time>2021-09-24T04:01:48.000Z</time>
</trkpt>
<trkpt lat="31.8097917" lon="35.0172197">
<ele>307.399994</ele>
<time>2021-09-24T04:01:57.000Z</time>
</trkpt>
<trkpt lat="31.8097290" lon="35.0174811">
<ele>308.000000</ele>
<time>2021-09-24T04:02:03.000Z</time>
</trkpt>
<trkpt lat="31.8097476" lon="35.0175175">
<ele>308.200012</ele>
<time>2021-09-24T04:02:04.000Z</time>
</trkpt>
<trkpt lat="31.8097799" lon="35.0175437">
<ele>308.399994</ele>
<time>2021-09-24T04:02:05.000Z</time>
</trkpt>
<trkpt lat="31.8098201" lon="35.0175655">
<ele>308.399994</ele>
<time>2021-09-24T04:02:06.000Z</time>
</trkpt>
<trkpt lat="31.8098581" lon="35.0175913">
<ele>308.600006</ele>
<time>2021-09-24T04:02:07.000Z</time>
</trkpt>
<trkpt lat="31.8098890" lon="35.0176177">
<ele>308.600006</ele>
<time>2021-09-24T04:02:08.000Z</time>
</trkpt>
<trkpt lat="31.8099143" lon="35.0176436">
<ele>308.799988</ele>
<time>2021-09-24T04:02:09.000Z</time>
</trkpt>
<trkpt lat="31.8100184" lon="35.0178445">
<ele>309.799988</ele>
<time>2021-09-24T04:02:16.000Z</time>
</trkpt>
<trkpt lat="31.8101019" lon="35.0179989">
<ele>311.000000</ele>
<time>2021-09-24T04:02:24.000Z</time>
</trkpt>
<trkpt lat="31.8102320" lon="35.0181550">
<ele>312.799988</ele>
<time>2021-09-24T04:02:35.000Z</time>
</trkpt>
<trkpt lat="31.8103870" lon="35.0183021">
<ele>314.400024</ele>
<time>2021-09-24T04:02:45.000Z</time>
</trkpt>
<trkpt lat="31.8105468" lon="35.0184490">
<ele>315.600006</ele>
<time>2021-09-24T04:02:54.000Z</time>
</trkpt>
<trkpt lat="31.8107635" lon="35.0187117">
<ele>316.399994</ele>
<time>2021-09-24T04:03:06.000Z</time>
</trkpt>
<trkpt lat="31.8107814" lon="35.0189571">
<ele>317.400024</ele>
<time>2021-09-24T04:03:14.000Z</time>
</trkpt>
<trkpt lat="31.8108667" lon="35.0192537">
<ele>317.799988</ele>
<time>2021-09-24T04:03:23.000Z</time>
</trkpt>
<trkpt lat="31.8109331" lon="35.0194381">
<ele>318.600006</ele>
<time>2021-09-24T04:03:29.000Z</time>
</trkpt>
<trkpt lat="31.8110448" lon="35.0195428">
<ele>319.399994</ele>
<time>2021-09-24T04:03:35.000Z</time>
</trkpt>
<trkpt lat="31.8111591" lon="35.0196023">
<ele>320.799988</ele>
<time>2021-09-24T04:03:43.000Z</time>
</trkpt>
<trkpt lat="31.8112965" lon="35.0196727">
<ele>323.000000</ele>
<time>2021-09-24T04:03:53.000Z</time>
</trkpt>
<trkpt lat="31.8114760" lon="35.0197668">
<ele>324.799957</ele>
<time>2021-09-24T04:04:03.000Z</time>
</trkpt>
<trkpt lat="31.8116640" lon="35.0198513">
<ele>326.600006</ele>
<time>2021-09-24T04:04:14.000Z</time>
</trkpt>
<trkpt lat="31.8117923" lon="35.0198386">
<ele>328.600006</ele>
<time>2021-09-24T04:04:23.000Z</time>
</trkpt>
<trkpt lat="31.8119054" lon="35.0197075">
<ele>330.599976</ele>
<time>2021-09-24T04:04:33.000Z</time>
</trkpt>
<trkpt lat="31.8119712" lon="35.0194998">
<ele>332.200012</ele>
<time>2021-09-24T04:04:43.000Z</time>
</trkpt>
<trkpt lat="31.8120280" lon="35.0192833">
<ele>333.000000</ele>
<time>2021-09-24T04:04:50.000Z</time>
</trkpt>
<trkpt lat="31.8121328" lon="35.0189488">
<ele>335.200012</ele>
<time>2021-09-24T04:05:02.000Z</time>
</trkpt>
<trkpt lat="31.8122399" lon="35.0187316">
<ele>336.200012</ele>
<time>2021-09-24T04:05:10.000Z</time>
</trkpt>
<trkpt lat="31.8122738" lon="35.0187255">
<ele>336.200012</ele>
<time>2021-09-24T04:05:11.000Z</time>
</trkpt>
<trkpt lat="31.8123066" lon="35.0187331">
<ele>336.399994</ele>
<time>2021-09-24T04:05:12.000Z</time>
</trkpt>
<trkpt lat="31.8123365" lon="35.0187476">
<ele>336.399994</ele>
<time>2021-09-24T04:05:13.000Z</time>
</trkpt>
<trkpt lat="31.8123699" lon="35.0187685">
<ele>336.399994</ele>
<time>2021-09-24T04:05:14.000Z</time>
</trkpt>
<trkpt lat="31.8123997" lon="35.0187920">
<ele>336.399994</ele>
<time>2021-09-24T04:05:15.000Z</time>
</trkpt>
<trkpt lat="31.8125976" lon="35.0189627">
<ele>337.399994</ele>
<time>2021-09-24T04:05:24.000Z</time>
</trkpt>
<trkpt lat="31.8128062" lon="35.0190848">
<ele>339.000000</ele>
<time>2021-09-24T04:05:35.000Z</time>
</trkpt>
<trkpt lat="31.8129119" lon="35.0191515">
<ele>340.200012</ele>
<time>2021-09-24T04:05:42.000Z</time>
</trkpt>
<trkpt lat="31.8131131" lon="35.0193000">
<ele>341.399994</ele>
<time>2021-09-24T04:05:51.000Z</time>
</trkpt>
<trkpt lat="31.8133619" lon="35.0194275">
<ele>342.200012</ele>
<time>2021-09-24T04:05:59.000Z</time>
</trkpt>
<trkpt lat="31.8136874" lon="35.0195537">
<ele>342.200012</ele>
<time>2021-09-24T04:06:08.000Z</time>
</trkpt>
<trkpt lat="31.8137234" lon="35.0195818">
<ele>342.200012</ele>
<time>2021-09-24T04:06:09.000Z</time>
</trkpt>
<trkpt lat="31.8137606" lon="35.0196165">
<ele>342.200012</ele>
<time>2021-09-24T04:06:10.000Z</time>
</trkpt>
<trkpt lat="31.8138465" lon="35.0196945">
<ele>342.000000</ele>
<time>2021-09-24T04:06:12.000Z</time>
</trkpt>
<trkpt lat="31.8138991" lon="35.0197234">
<ele>341.799988</ele>
<time>2021-09-24T04:06:13.000Z</time>
</trkpt>
<trkpt lat="31.8139629" lon="35.0197391">
<ele>341.600037</ele>
<time>2021-09-24T04:06:14.000Z</time>
</trkpt>
<trkpt lat="31.8140286" lon="35.0197427">
<ele>341.399994</ele>
<time>2021-09-24T04:06:15.000Z</time>
</trkpt>
<trkpt lat="31.8140932" lon="35.0197392">
<ele>341.000000</ele>
<time>2021-09-24T04:06:16.000Z</time>
</trkpt>
<trkpt lat="31.8141620" lon="35.0197338">
<ele>340.399994</ele>
<time>2021-09-24T04:06:17.000Z</time>
</trkpt>
<trkpt lat="31.8146196" lon="35.0195871">
<ele>338.799957</ele>
<time>2021-09-24T04:06:23.000Z</time>
</trkpt>
<trkpt lat="31.8146927" lon="35.0195443">
<ele>338.600006</ele>
<time>2021-09-24T04:06:24.000Z</time>
</trkpt>
<trkpt lat="31.8148173" lon="35.0194664">
<ele>337.999969</ele>
<time>2021-09-24T04:06:26.000Z</time>
</trkpt>
<trkpt lat="31.8148718" lon="35.0194428">
<ele>337.799988</ele>
<time>2021-09-24T04:06:27.000Z</time>
</trkpt>
<trkpt lat="31.8149282" lon="35.0194247">
<ele>337.600006</ele>
<time>2021-09-24T04:06:28.000Z</time>
</trkpt>
<trkpt lat="31.8153586" lon="35.0193426">
<ele>336.200012</ele>
<time>2021-09-24T04:06:35.000Z</time>
</trkpt>
<trkpt lat="31.8158706" lon="35.0191947">
<ele>333.000000</ele>
<time>2021-09-24T04:06:42.000Z</time>
</trkpt>
<trkpt lat="31.8160302" lon="35.0191580">
<ele>332.200012</ele>
<time>2021-09-24T04:06:44.000Z</time>
</trkpt>
<trkpt lat="31.8162870" lon="35.0191394">
<ele>329.000000</ele>
<time>2021-09-24T04:06:47.000Z</time>
</trkpt>
<trkpt lat="31.8166163" lon="35.0191144">
<ele>326.000000</ele>
<time>2021-09-24T04:06:51.000Z</time>
</trkpt>
<trkpt lat="31.8167363" lon="35.0190977">
<ele>323.999969</ele>
<time>2021-09-24T04:06:53.000Z</time>
</trkpt>
<trkpt lat="31.8167900" lon="35.0190734">
<ele>323.200043</ele>
<time>2021-09-24T04:06:54.000Z</time>
</trkpt>
<trkpt lat="31.8168381" lon="35.0190337">
<ele>322.799988</ele>
<time>2021-09-24T04:06:55.000Z</time>
</trkpt>
<trkpt lat="31.8168846" lon="35.0189859">
<ele>322.399994</ele>
<time>2021-09-24T04:06:56.000Z</time>
</trkpt>
<trkpt lat="31.8169380" lon="35.0189320">
<ele>321.800018</ele>
<time>2021-09-24T04:06:57.000Z</time>
</trkpt>
<trkpt lat="31.8169922" lon="35.0188851">
<ele>320.399963</ele>
<time>2021-09-24T04:06:58.000Z</time>
</trkpt>
<trkpt lat="31.8170506" lon="35.0188436">
<ele>319.799988</ele>
<time>2021-09-24T04:06:59.000Z</time>
</trkpt>
<trkpt lat="31.8171120" lon="35.0188056">
<ele>319.200012</ele>
<time>2021-09-24T04:07:00.000Z</time>
</trkpt>
<trkpt lat="31.8173698" lon="35.0186633">
<ele>317.600006</ele>
<time>2021-09-24T04:07:04.000Z</time>
</trkpt>
<trkpt lat="31.8177824" lon="35.0184424">
<ele>315.399994</ele>
<time>2021-09-24T04:07:10.000Z</time>
</trkpt>
<trkpt lat="31.8180025" lon="35.0183242">
<ele>313.399994</ele>
<time>2021-09-24T04:07:13.000Z</time>
</trkpt>
<trkpt lat="31.8180820" lon="35.0183021">
<ele>312.799988</ele>
<time>2021-09-24T04:07:14.000Z</time>
</trkpt>
<trkpt lat="31.8185817" lon="35.0182384">
<ele>309.600006</ele>
<time>2021-09-24T04:07:20.000Z</time>
</trkpt>
<trkpt lat="31.8189005" lon="35.0182213">
<ele>306.399994</ele>
<time>2021-09-24T04:07:24.000Z</time>
</trkpt>
<trkpt lat="31.8189708" lon="35.0181938">
<ele>305.799988</ele>
<time>2021-09-24T04:07:25.000Z</time>
</trkpt>
<trkpt lat="31.8190384" lon="35.0181565">
<ele>305.200012</ele>
<time>2021-09-24T04:07:26.000Z</time>
</trkpt>
<trkpt lat="31.8191040" lon="35.0181107">
<ele>304.600006</ele>
<time>2021-09-24T04:07:27.000Z</time>
</trkpt>
<trkpt lat="31.8191685" lon="35.0180579">
<ele>304.000000</ele>
<time>2021-09-24T04:07:28.000Z</time>
</trkpt>
<trkpt lat="31.8194792" lon="35.0176909">
<ele>301.399994</ele>
<time>2021-09-24T04:07:34.000Z</time>
</trkpt>
<trkpt lat="31.8195806" lon="35.0175709">
<ele>299.799988</ele>
<time>2021-09-24T04:07:38.000Z</time>
</trkpt>
<trkpt lat="31.8196058" lon="35.0175723">
<ele>299.200012</ele>
<time>2021-09-24T04:07:39.000Z</time>
</trkpt>
<trkpt lat="31.8196305" lon="35.0175817">
<ele>298.799988</ele>
<time>2021-09-24T04:07:40.000Z</time>
</trkpt>
<trkpt lat="31.8196561" lon="35.0175950">
<ele>298.399994</ele>
<time>2021-09-24T04:07:41.000Z</time>
</trkpt>
<trkpt lat="31.8196829" lon="35.0176129">
<ele>298.200012</ele>
<time>2021-09-24T04:07:42.000Z</time>
</trkpt>
<trkpt lat="31.8197119" lon="35.0176349">
<ele>298.200012</ele>
<time>2021-09-24T04:07:43.000Z</time>
</trkpt>
<trkpt lat="31.8199035" lon="35.0177554">
<ele>296.799988</ele>
<time>2021-09-24T04:07:47.000Z</time>
</trkpt>
<trkpt lat="31.8202506" lon="35.0179757">
<ele>293.600006</ele>
<time>2021-09-24T04:07:53.000Z</time>
</trkpt>
<trkpt lat="31.8203016" lon="35.0180132">
<ele>292.799988</ele>
<time>2021-09-24T04:07:54.000Z</time>
</trkpt>
<trkpt lat="31.8203430" lon="35.0180567">
<ele>292.000000</ele>
<time>2021-09-24T04:07:55.000Z</time>
</trkpt>
<trkpt lat="31.8203734" lon="35.0181080">
<ele>291.399994</ele>
<time>2021-09-24T04:07:56.000Z</time>
</trkpt>
<trkpt lat="31.8203966" lon="35.0181692">
<ele>290.799988</ele>
<time>2021-09-24T04:07:57.000Z</time>
</trkpt>
<trkpt lat="31.8204142" lon="35.0182405">
<ele>290.200012</ele>
<time>2021-09-24T04:07:58.000Z</time>
</trkpt>
<trkpt lat="31.8204271" lon="35.0183168">
<ele>289.600006</ele>
<time>2021-09-24T04:07:59.000Z</time>
</trkpt>
<trkpt lat="31.8204881" lon="35.0187218">
<ele>286.600006</ele>
<time>2021-09-24T04:08:04.000Z</time>
</trkpt>
<trkpt lat="31.8205118" lon="35.0187938">
<ele>286.200012</ele>
<time>2021-09-24T04:08:05.000Z</time>
</trkpt>
<trkpt lat="31.8205363" lon="35.0188564">
<ele>285.399994</ele>
<time>2021-09-24T04:08:06.000Z</time>
</trkpt>
<trkpt lat="31.8206608" lon="35.0190864">
<ele>284.200012</ele>
<time>2021-09-24T04:08:10.000Z</time>
</trkpt>
<trkpt lat="31.8208995" lon="35.0193040">
<ele>283.799988</ele>
<time>2021-09-24T04:08:15.000Z</time>
</trkpt>
<trkpt lat="31.8209483" lon="35.0193481">
<ele>283.600006</ele>
<time>2021-09-24T04:08:16.000Z</time>
</trkpt>
<trkpt lat="31.8209986" lon="35.0193891">
<ele>283.600006</ele>
<time>2021-09-24T04:08:17.000Z</time>
</trkpt>
<trkpt lat="31.8213777" lon="35.0196427">
<ele>282.600006</ele>
<time>2021-09-24T04:08:23.000Z</time>
</trkpt>
<trkpt lat="31.8215060" lon="35.0197169">
<ele>282.000000</ele>
<time>2021-09-24T04:08:25.000Z</time>
</trkpt>
<trkpt lat="31.8215713" lon="35.0197293">
<ele>281.799988</ele>
<time>2021-09-24T04:08:26.000Z</time>
</trkpt>
<trkpt lat="31.8216317" lon="35.0197285">
<ele>281.600006</ele>
<time>2021-09-24T04:08:27.000Z</time>
</trkpt>
<trkpt lat="31.8216872" lon="35.0197151">
<ele>281.399994</ele>
<time>2021-09-24T04:08:28.000Z</time>
</trkpt>
<trkpt lat="31.8217343" lon="35.0196859">
<ele>281.200012</ele>
<time>2021-09-24T04:08:29.000Z</time>
</trkpt>
<trkpt lat="31.8217659" lon="35.0196461">
<ele>281.000000</ele>
<time>2021-09-24T04:08:30.000Z</time>
</trkpt>
<trkpt lat="31.8217922" lon="35.0196015">
<ele>280.799988</ele>
<time>2021-09-24T04:08:31.000Z</time>
</trkpt>
<trkpt lat="31.8218129" lon="35.0195547">
<ele>280.399994</ele>
<time>2021-09-24T04:08:32.000Z</time>
</trkpt>
<trkpt lat="31.8218283" lon="35.0195070">
<ele>280.200012</ele>
<time>2021-09-24T04:08:33.000Z</time>
</trkpt>
<trkpt lat="31.8218402" lon="35.0194575">
<ele>280.200012</ele>
<time>2021-09-24T04:08:34.000Z</time>
</trkpt>
<trkpt lat="31.8218516" lon="35.0194087">
<ele>280.200012</ele>
<time>2021-09-24T04:08:35.000Z</time>
</trkpt>
<trkpt lat="31.8219048" lon="35.0191534">
<ele>280.600006</ele>
<time>2021-09-24T04:08:42.000Z</time>
</trkpt>
<trkpt lat="31.8219622" lon="35.0188413">
<ele>281.600006</ele>
<time>2021-09-24T04:08:52.000Z</time>
</trkpt>
<trkpt lat="31.8220414" lon="35.0186845">
<ele>282.000000</ele>
<time>2021-09-24T04:08:58.000Z</time>
</trkpt>
<trkpt lat="31.8220712" lon="35.0186917">
<ele>282.399994</ele>
<time>2021-09-24T04:09:00.000Z</time>
</trkpt>
<trkpt lat="31.8220758" lon="35.0187115">
<ele>282.399994</ele>
<time>2021-09-24T04:09:01.000Z</time>
</trkpt>
<trkpt lat="31.8220764" lon="35.0187378">
<ele>282.399994</ele>
<time>2021-09-24T04:09:02.000Z</time>
</trkpt>
<trkpt lat="31.8220716" lon="35.0187652">
<ele>282.600006</ele>
<time>2021-09-24T04:09:03.000Z</time>
</trkpt>
<trkpt lat="31.8220640" lon="35.0187893">
<ele>282.600006</ele>
<time>2021-09-24T04:09:04.000Z</time>
</trkpt>
<trkpt lat="31.8220272" lon="35.0190233">
<ele>283.000000</ele>
<time>2021-09-24T04:09:12.000Z</time>
</trkpt>
<trkpt lat="31.8219904" lon="35.0192798">
<ele>283.600006</ele>
<time>2021-09-24T04:09:20.000Z</time>
</trkpt>
<trkpt lat="31.8219493" lon="35.0195863">
<ele>284.200012</ele>
<time>2021-09-24T04:09:29.000Z</time>
</trkpt>
<trkpt lat="31.8218215" lon="35.0198600">
<ele>284.799988</ele>
<time>2021-09-24T04:09:37.000Z</time>
</trkpt>
<trkpt lat="31.8215822" lon="35.0200434">
<ele>285.200012</ele>
<time>2021-09-24T04:09:46.000Z</time>
</trkpt>
<trkpt lat="31.8213166" lon="35.0202623">
<ele>285.600006</ele>
<time>2021-09-24T04:09:54.000Z</time>
</trkpt>
<trkpt lat="31.8210124" lon="35.0205705">
<ele>286.600006</ele>
<time>2021-09-24T04:10:05.000Z</time>
</trkpt>
<trkpt lat="31.8209523" lon="35.0206668">
<ele>286.799988</ele>
<time>2021-09-24T04:10:08.000Z</time>
</trkpt>
<trkpt lat="31.8209518" lon="35.0207047">
<ele>286.799988</ele>
<time>2021-09-24T04:10:09.000Z</time>
</trkpt>
<trkpt lat="31.8209539" lon="35.0207451">
<ele>287.000000</ele>
<time>2021-09-24T04:10:10.000Z</time>
</trkpt>
<trkpt lat="31.8209523" lon="35.0207875">
<ele>287.000000</ele>
<time>2021-09-24T04:10:11.000Z</time>
</trkpt>
<trkpt lat="31.8209418" lon="35.0208285">
<ele>287.000000</ele>
<time>2021-09-24T04:10:12.000Z</time>
</trkpt>
<trkpt lat="31.8209208" lon="35.0208635">
<ele>287.000000</ele>
<time>2021-09-24T04:10:13.000Z</time>
</trkpt>
<trkpt lat="31.8208941" lon="35.0208930">
<ele>287.000000</ele>
<time>2021-09-24T04:10:14.000Z</time>
</trkpt>
<trkpt lat="31.8208651" lon="35.0209175">
<ele>287.000000</ele>
<time>2021-09-24T04:10:15.000Z</time>
</trkpt>
<trkpt lat="31.8208353" lon="35.0209389">
<ele>287.200012</ele>
<time>2021-09-24T04:10:16.000Z</time>
</trkpt>
<trkpt lat="31.8205421" lon="35.0212125">
<ele>288.200012</ele>
<time>2021-09-24T04:10:27.000Z</time>
</trkpt>
<trkpt lat="31.8203183" lon="35.0214537">
<ele>289.399994</ele>
<time>2021-09-24T04:10:37.000Z</time>
</trkpt>
<trkpt lat="31.8200750" lon="35.0217153">
<ele>291.200012</ele>
<time>2021-09-24T04:10:49.000Z</time>
</trkpt>
<trkpt lat="31.8197847" lon="35.0220478">
<ele>292.799988</ele>
<time>2021-09-24T04:11:01.000Z</time>
</trkpt>
<trkpt lat="31.8194339" lon="35.0224318">
<ele>293.399994</ele>
<time>2021-09-24T04:11:14.000Z</time>
</trkpt>
<trkpt lat="31.8192020" lon="35.0227404">
<ele>294.000000</ele>
<time>2021-09-24T04:11:25.000Z</time>
</trkpt>
<trkpt lat="31.8190795" lon="35.0230181">
<ele>294.600006</ele>
<time>2021-09-24T04:11:33.000Z</time>
</trkpt>
<trkpt lat="31.8190034" lon="35.0233766">
<ele>295.799988</ele>
<time>2021-09-24T04:11:43.000Z</time>
</trkpt>
<trkpt lat="31.8189595" lon="35.0237495">
<ele>296.799988</ele>
<time>2021-09-24T04:11:53.000Z</time>
</trkpt>
<trkpt lat="31.8189865" lon="35.0240879">
<ele>298.000000</ele>
<time>2021-09-24T04:12:03.000Z</time>
</trkpt>
<trkpt lat="31.8190085" lon="35.0243002">
<ele>299.399994</ele>
<time>2021-09-24T04:12:12.000Z</time>
</trkpt>
<trkpt lat="31.8189356" lon="35.0244123">
<ele>300.399994</ele>
<time>2021-09-24T04:12:18.000Z</time>
</trkpt>
<trkpt lat="31.8187223" lon="35.0245638">
<ele>300.799988</ele>
<time>2021-09-24T04:12:25.000Z</time>
</trkpt>
<trkpt lat="31.8186192" lon="35.0246699">
<ele>300.799988</ele>
<time>2021-09-24T04:12:28.000Z</time>
</trkpt>
<trkpt lat="31.8184055" lon="35.0249860">
<ele>300.600006</ele>
<time>2021-09-24T04:12:37.000Z</time>
</trkpt>
<trkpt lat="31.8182364" lon="35.0252698">
<ele>300.399994</ele>
<time>2021-09-24T04:12:45.000Z</time>
</trkpt>
<trkpt lat="31.8181617" lon="35.0255619">
<ele>301.000000</ele>
<time>2021-09-24T04:12:53.000Z</time>
</trkpt>
<trkpt lat="31.8180821" lon="35.0259146">
<ele>302.600006</ele>
<time>2021-09-24T04:13:04.000Z</time>
</trkpt>
<trkpt lat="31.8179930" lon="35.0260977">
<ele>303.200012</ele>
<time>2021-09-24T04:13:10.000Z</time>
</trkpt>
<trkpt lat="31.8178269" lon="35.0261735">
<ele>303.399994</ele>
<time>2021-09-24T04:13:15.000Z</time>
</trkpt>
<trkpt lat="31.8176385" lon="35.0263068">
<ele>303.600006</ele>
<time>2021-09-24T04:13:22.000Z</time>
</trkpt>
<trkpt lat="31.8176035" lon="35.0265597">
<ele>304.799988</ele>
<time>2021-09-24T04:13:30.000Z</time>
</trkpt>
<trkpt lat="31.8175687" lon="35.0269096">
<ele>306.000000</ele>
<time>2021-09-24T04:13:40.000Z</time>
</trkpt>
<trkpt lat="31.8175316" lon="35.0272543">
<ele>307.200012</ele>
<time>2021-09-24T04:13:50.000Z</time>
</trkpt>
<trkpt lat="31.8175466" lon="35.0275718">
<ele>308.000000</ele>
<time>2021-09-24T04:13:58.000Z</time>
</trkpt>
<trkpt lat="31.8175444" lon="35.0279957">
<ele>308.600006</ele>
<time>2021-09-24T04:14:07.000Z</time>
</trkpt>
<trkpt lat="31.8175169" lon="35.0284292">
<ele>308.600006</ele>
<time>2021-09-24T04:14:15.000Z</time>
</trkpt>
<trkpt lat="31.8174683" lon="35.0287681">
<ele>310.200012</ele>
<time>2021-09-24T04:14:24.000Z</time>
</trkpt>
<trkpt lat="31.8173849" lon="35.0291137">
<ele>311.799988</ele>
<time>2021-09-24T04:14:35.000Z</time>
</trkpt>
<trkpt lat="31.8172787" lon="35.0294740">
<ele>312.799988</ele>
<time>2021-09-24T04:14:47.000Z</time>
</trkpt>
<trkpt lat="31.8172527" lon="35.0297039">
<ele>313.600006</ele>
<time>2021-09-24T04:14:54.000Z</time>
</trkpt>
<trkpt lat="31.8173006" lon="35.0300613">
<ele>314.600006</ele>
<time>2021-09-24T04:15:04.000Z</time>
</trkpt>
<trkpt lat="31.8173741" lon="35.0303644">
<ele>315.399994</ele>
<time>2021-09-24T04:15:13.000Z</time>
</trkpt>
<trkpt lat="31.8174756" lon="35.0307355">
<ele>316.799988</ele>
<time>2021-09-24T04:15:25.000Z</time>
</trkpt>
<trkpt lat="31.8174684" lon="35.0307909">
<ele>317.200012</ele>
<time>2021-09-24T04:15:27.000Z</time>
</trkpt>
<trkpt lat="31.8174560" lon="35.0308119">
<ele>317.400024</ele>
<time>2021-09-24T04:15:28.000Z</time>
</trkpt>
<trkpt lat="31.8174392" lon="35.0308257">
<ele>317.400024</ele>
<time>2021-09-24T04:15:29.000Z</time>
</trkpt>
<trkpt lat="31.8174210" lon="35.0308286">
<ele>317.600006</ele>
<time>2021-09-24T04:15:30.000Z</time>
</trkpt>
<trkpt lat="31.8174030" lon="35.0308219">
<ele>317.600006</ele>
<time>2021-09-24T04:15:31.000Z</time>
</trkpt>
<trkpt lat="31.8173860" lon="35.0308108">
<ele>317.799988</ele>
<time>2021-09-24T04:15:32.000Z</time>
</trkpt>
<trkpt lat="31.8173703" lon="35.0307981">
<ele>318.000000</ele>
<time>2021-09-24T04:15:33.000Z</time>
</trkpt>
<trkpt lat="31.8173550" lon="35.0307842">
<ele>318.000000</ele>
<time>2021-09-24T04:15:34.000Z</time>
</trkpt>
<trkpt lat="31.8172455" lon="35.0306152">
<ele>319.000000</ele>
<time>2021-09-24T04:15:43.000Z</time>
</trkpt>
<trkpt lat="31.8171346" lon="35.0304780">
<ele>320.399963</ele>
<time>2021-09-24T04:15:52.000Z</time>
</trkpt>
<trkpt lat="31.8170251" lon="35.0304050">
<ele>322.000000</ele>
<time>2021-09-24T04:16:00.000Z</time>
</trkpt>
<trkpt lat="31.8168738" lon="35.0303504">
<ele>324.200012</ele>
<time>2021-09-24T04:16:11.000Z</time>
</trkpt>
<trkpt lat="31.8167435" lon="35.0303231">
<ele>325.200012</ele>
<time>2021-09-24T04:16:18.000Z</time>
</trkpt>
<trkpt lat="31.8166170" lon="35.0303189">
<ele>326.399994</ele>
<time>2021-09-24T04:16:26.000Z</time>
</trkpt>
<trkpt lat="31.8164458" lon="35.0303601">
<ele>328.400024</ele>
<time>2021-09-24T04:16:36.000Z</time>
</trkpt>
<trkpt lat="31.8162452" lon="35.0304233">
<ele>330.200012</ele>
<time>2021-09-24T04:16:48.000Z</time>
</trkpt>
<trkpt lat="31.8160604" lon="35.0304163">
<ele>330.799988</ele>
<time>2021-09-24T04:16:56.000Z</time>
</trkpt>
<trkpt lat="31.8160069" lon="35.0302730">
<ele>331.000000</ele>
<time>2021-09-24T04:17:02.000Z</time>
</trkpt>
<trkpt lat="31.8160179" lon="35.0302493">
<ele>331.200012</ele>
<time>2021-09-24T04:17:03.000Z</time>
</trkpt>
<trkpt lat="31.8161933" lon="35.0300135">
<ele>332.000000</ele>
<time>2021-09-24T04:17:15.000Z</time>
</trkpt>
<trkpt lat="31.8163274" lon="35.0298226">
<ele>333.399994</ele>
<time>2021-09-24T04:17:25.000Z</time>
</trkpt>
<trkpt lat="31.8163862" lon="35.0296806">
<ele>334.799988</ele>
<time>2021-09-24T04:17:32.000Z</time>
</trkpt>
<trkpt lat="31.8164394" lon="35.0295071">
<ele>336.000000</ele>
<time>2021-09-24T04:17:40.000Z</time>
</trkpt>
<trkpt lat="31.8164827" lon="35.0293466">
<ele>337.000000</ele>
<time>2021-09-24T04:17:47.000Z</time>
</trkpt>
<trkpt lat="31.8165327" lon="35.0291265">
<ele>338.399994</ele>
<time>2021-09-24T04:17:57.000Z</time>
</trkpt>
<trkpt lat="31.8165799" lon="35.0288869">
<ele>339.399994</ele>
<time>2021-09-24T04:18:08.000Z</time>
</trkpt>
<trkpt lat="31.8166494" lon="35.0286076">
<ele>341.200012</ele>
<time>2021-09-24T04:18:21.000Z</time>
</trkpt>
<trkpt lat="31.8167158" lon="35.0283782">
<ele>343.000000</ele>
<time>2021-09-24T04:18:32.000Z</time>
</trkpt>
<trkpt lat="31.8167683" lon="35.0281436">
<ele>344.599976</ele>
<time>2021-09-24T04:18:43.000Z</time>
</trkpt>
<trkpt lat="31.8167935" lon="35.0279267">
<ele>345.200012</ele>
<time>2021-09-24T04:18:51.000Z</time>
</trkpt>
<trkpt lat="31.8167801" lon="35.0277115">
<ele>346.600006</ele>
<time>2021-09-24T04:19:01.000Z</time>
</trkpt>
<trkpt lat="31.8167085" lon="35.0275350">
<ele>348.399994</ele>
<time>2021-09-24T04:19:12.000Z</time>
</trkpt>
<trkpt lat="31.8166269" lon="35.0273992">
<ele>349.799957</ele>
<time>2021-09-24T04:19:20.000Z</time>
</trkpt>
<trkpt lat="31.8165068" lon="35.0272078">
<ele>351.799988</ele>
<time>2021-09-24T04:19:31.000Z</time>
</trkpt>
<trkpt lat="31.8164042" lon="35.0270590">
<ele>352.799957</ele>
<time>2021-09-24T04:19:38.000Z</time>
</trkpt>
<trkpt lat="31.8162903" lon="35.0269307">
<ele>354.200012</ele>
<time>2021-09-24T04:19:47.000Z</time>
</trkpt>
<trkpt lat="31.8160908" lon="35.0267830">
<ele>355.599976</ele>
<time>2021-09-24T04:19:59.000Z</time>
</trkpt>
<trkpt lat="31.8159232" lon="35.0266892">
<ele>357.000000</ele>
<time>2021-09-24T04:20:10.000Z</time>
</trkpt>
<trkpt lat="31.8157381" lon="35.0266455">
<ele>358.599976</ele>
<time>2021-09-24T04:20:20.000Z</time>
</trkpt>
<trkpt lat="31.8155438" lon="35.0266589">
<ele>360.399994</ele>
<time>2021-09-24T04:20:31.000Z</time>
</trkpt>
<trkpt lat="31.8153576" lon="35.0267697">
<ele>361.399994</ele>
<time>2021-09-24T04:20:41.000Z</time>
</trkpt>
<trkpt lat="31.8151990" lon="35.0268598">
<ele>362.399994</ele>
<time>2021-09-24T04:20:51.000Z</time>
</trkpt>
<trkpt lat="31.8150394" lon="35.0269862">
<ele>364.200012</ele>
<time>2021-09-24T04:21:02.000Z</time>
</trkpt>
<trkpt lat="31.8148911" lon="35.0271436">
<ele>366.000000</ele>
<time>2021-09-24T04:21:14.000Z</time>
</trkpt>
<trkpt lat="31.8147813" lon="35.0273016">
<ele>367.600006</ele>
<time>2021-09-24T04:21:24.000Z</time>
</trkpt>
<trkpt lat="31.8147016" lon="35.0274887">
<ele>369.399994</ele>
<time>2021-09-24T04:21:35.000Z</time>
</trkpt>
<trkpt lat="31.8146262" lon="35.0277086">
<ele>370.399963</ele>
<time>2021-09-24T04:21:45.000Z</time>
</trkpt>
<trkpt lat="31.8145777" lon="35.0278982">
<ele>372.000000</ele>
<time>2021-09-24T04:21:54.000Z</time>
</trkpt>
<trkpt lat="31.8145003" lon="35.0281141">
<ele>373.600006</ele>
<time>2021-09-24T04:22:05.000Z</time>
</trkpt>
<trkpt lat="31.8144337" lon="35.0282763">
<ele>375.000000</ele>
<time>2021-09-24T04:22:14.000Z</time>
</trkpt>
<trkpt lat="31.8143576" lon="35.0284369">
<ele>376.399994</ele>
<time>2021-09-24T04:22:23.000Z</time>
</trkpt>
<trkpt lat="31.8142542" lon="35.0285901">
<ele>378.600006</ele>
<time>2021-09-24T04:22:33.000Z</time>
</trkpt>
<trkpt lat="31.8141382" lon="35.0287338">
<ele>380.000000</ele>
<time>2021-09-24T04:22:43.000Z</time>
</trkpt>
<trkpt lat="31.8139830" lon="35.0288308">
<ele>381.600006</ele>
<time>2021-09-24T04:22:54.000Z</time>
</trkpt>
<trkpt lat="31.8138566" lon="35.0289248">
<ele>382.600006</ele>
<time>2021-09-24T04:23:02.000Z</time>
</trkpt>
<trkpt lat="31.8137856" lon="35.0290436">
<ele>384.000000</ele>
<time>2021-09-24T04:23:10.000Z</time>
</trkpt>
<trkpt lat="31.8137053" lon="35.0292716">
<ele>385.800018</ele>
<time>2021-09-24T04:23:22.000Z</time>
</trkpt>
<trkpt lat="31.8136368" lon="35.0294739">
<ele>387.600006</ele>
<time>2021-09-24T04:23:33.000Z</time>
</trkpt>
<trkpt lat="31.8135981" lon="35.0296419">
<ele>388.600006</ele>
<time>2021-09-24T04:23:41.000Z</time>
</trkpt>
<trkpt lat="31.8135664" lon="35.0298171">
<ele>389.799988</ele>
<time>2021-09-24T04:23:50.000Z</time>
</trkpt>
<trkpt lat="31.8135674" lon="35.0300208">
<ele>391.000000</ele>
<time>2021-09-24T04:24:01.000Z</time>
</trkpt>
<trkpt lat="31.8135982" lon="35.0302198">
<ele>392.600006</ele>
<time>2021-09-24T04:24:12.000Z</time>
</trkpt>
<trkpt lat="31.8136613" lon="35.0303811">
<ele>393.799988</ele>
<time>2021-09-24T04:24:21.000Z</time>
</trkpt>
<trkpt lat="31.8137501" lon="35.0305857">
<ele>395.600006</ele>
<time>2021-09-24T04:24:32.000Z</time>
</trkpt>
<trkpt lat="31.8138008" lon="35.0307727">
<ele>396.799988</ele>
<time>2021-09-24T04:24:41.000Z</time>
</trkpt>
<trkpt lat="31.8137703" lon="35.0309776">
<ele>398.000000</ele>
<time>2021-09-24T04:24:50.000Z</time>
</trkpt>
<trkpt lat="31.8136854" lon="35.0311888">
<ele>399.200012</ele>
<time>2021-09-24T04:25:00.000Z</time>
</trkpt>
<trkpt lat="31.8135774" lon="35.0313607">
<ele>400.399994</ele>
<time>2021-09-24T04:25:10.000Z</time>
</trkpt>
<trkpt lat="31.8134567" lon="35.0314376">
<ele>401.399994</ele>
<time>2021-09-24T04:25:18.000Z</time>
</trkpt>
<trkpt lat="31.8133034" lon="35.0314970">
<ele>403.000000</ele>
<time>2021-09-24T04:25:28.000Z</time>
</trkpt>
<trkpt lat="31.8131781" lon="35.0315075">
<ele>404.000000</ele>
<time>2021-09-24T04:25:36.000Z</time>
</trkpt>
<trkpt lat="31.8130288" lon="35.0315063">
<ele>405.600037</ele>
<time>2021-09-24T04:25:46.000Z</time>
</trkpt>
<trkpt lat="31.8128814" lon="35.0314907">
<ele>407.799988</ele>
<time>2021-09-24T04:25:58.000Z</time>
</trkpt>
<trkpt lat="31.8126999" lon="35.0314573">
<ele>409.600006</ele>
<time>2021-09-24T04:26:11.000Z</time>
</trkpt>
<trkpt lat="31.8125751" lon="35.0314238">
<ele>410.600006</ele>
<time>2021-09-24T04:26:19.000Z</time>
</trkpt>
<trkpt lat="31.8124122" lon="35.0313862">
<ele>411.799988</ele>
<time>2021-09-24T04:26:30.000Z</time>
</trkpt>
<trkpt lat="31.8122943" lon="35.0313921">
<ele>412.799988</ele>
<time>2021-09-24T04:26:38.000Z</time>
</trkpt>
<trkpt lat="31.8122020" lon="35.0314534">
<ele>413.600006</ele>
<time>2021-09-24T04:26:45.000Z</time>
</trkpt>
<trkpt lat="31.8121275" lon="35.0315362">
<ele>414.799988</ele>
<time>2021-09-24T04:26:52.000Z</time>
</trkpt>
<trkpt lat="31.8120510" lon="35.0316832">
<ele>416.399994</ele>
<time>2021-09-24T04:27:02.000Z</time>
</trkpt>
<trkpt lat="31.8120184" lon="35.0318171">
<ele>418.200012</ele>
<time>2021-09-24T04:27:11.000Z</time>
</trkpt>
<trkpt lat="31.8119942" lon="35.0320515">
<ele>420.000000</ele>
<time>2021-09-24T04:27:24.000Z</time>
</trkpt>
<trkpt lat="31.8120026" lon="35.0322445">
<ele>421.000000</ele>
<time>2021-09-24T04:27:34.000Z</time>
</trkpt>
<trkpt lat="31.8119993" lon="35.0324794">
<ele>422.200012</ele>
<time>2021-09-24T04:27:45.000Z</time>
</trkpt>
<trkpt lat="31.8119263" lon="35.0327067">
<ele>422.799988</ele>
<time>2021-09-24T04:27:55.000Z</time>
</trkpt>
<trkpt lat="31.8118339" lon="35.0329080">
<ele>423.799988</ele>
<time>2021-09-24T04:28:06.000Z</time>
</trkpt>
<trkpt lat="31.8117141" lon="35.0331631">
<ele>425.000000</ele>
<time>2021-09-24T04:28:18.000Z</time>
</trkpt>
<trkpt lat="31.8116314" lon="35.0333571">
<ele>425.600006</ele>
<time>2021-09-24T04:28:27.000Z</time>
</trkpt>
<trkpt lat="31.8115385" lon="35.0335850">
<ele>426.399994</ele>
<time>2021-09-24T04:28:38.000Z</time>
</trkpt>
<trkpt lat="31.8114335" lon="35.0338060">
<ele>427.799957</ele>
<time>2021-09-24T04:28:50.000Z</time>
</trkpt>
<trkpt lat="31.8112849" lon="35.0340106">
<ele>429.799988</ele>
<time>2021-09-24T04:29:03.000Z</time>
</trkpt>
<trkpt lat="31.8111707" lon="35.0341213">
<ele>431.000000</ele>
<time>2021-09-24T04:29:12.000Z</time>
</trkpt>
<trkpt lat="31.8110251" lon="35.0342121">
<ele>433.200012</ele>
<time>2021-09-24T04:29:23.000Z</time>
</trkpt>
<trkpt lat="31.8109429" lon="35.0342318">
<ele>434.000000</ele>
<time>2021-09-24T04:29:28.000Z</time>
</trkpt>
<trkpt lat="31.8109299" lon="35.0342388">
<ele>434.200012</ele>
<time>2021-09-24T04:29:29.000Z</time>
</trkpt>
<trkpt lat="31.8109145" lon="35.0342450">
<ele>434.399963</ele>
<time>2021-09-24T04:29:30.000Z</time>
</trkpt>
<trkpt lat="31.8107765" lon="35.0342626">
<ele>435.600006</ele>
<time>2021-09-24T04:29:39.000Z</time>
</trkpt>
<trkpt lat="31.8106218" lon="35.0342663">
<ele>437.000000</ele>
<time>2021-09-24T04:29:48.000Z</time>
</trkpt>
<trkpt lat="31.8104117" lon="35.0342429">
<ele>435.800018</ele>
<time>2021-09-24T04:30:00.000Z</time>
</trkpt>
<trkpt lat="31.8102802" lon="35.0342179">
<ele>440.799988</ele>
<time>2021-09-24T04:30:08.000Z</time>
</trkpt>
<trkpt lat="31.8100814" lon="35.0342063">
<ele>441.200012</ele>
<time>2021-09-24T04:30:20.000Z</time>
</trkpt>
<trkpt lat="31.8099386" lon="35.0342097">
<ele>441.399994</ele>
<time>2021-09-24T04:30:26.000Z</time>
</trkpt>
<trkpt lat="31.8097892" lon="35.0342342">
<ele>442.600006</ele>
<time>2021-09-24T04:30:36.000Z</time>
</trkpt>
<trkpt lat="31.8096536" lon="35.0342930">
<ele>443.799988</ele>
<time>2021-09-24T04:30:45.000Z</time>
</trkpt>
<trkpt lat="31.8094846" lon="35.0344065">
<ele>445.200012</ele>
<time>2021-09-24T04:30:56.000Z</time>
</trkpt>
<trkpt lat="31.8093770" lon="35.0345178">
<ele>446.600006</ele>
<time>2021-09-24T04:31:05.000Z</time>
</trkpt>
<trkpt lat="31.8092831" lon="35.0346360">
<ele>447.000000</ele>
<time>2021-09-24T04:31:10.000Z</time>
</trkpt>
<trkpt lat="31.8092087" lon="35.0347513">
<ele>448.399994</ele>
<time>2021-09-24T04:31:17.000Z</time>
</trkpt>
<trkpt lat="31.8090919" lon="35.0349214">
<ele>450.200012</ele>
<time>2021-09-24T04:31:28.000Z</time>
</trkpt>
<trkpt lat="31.8089983" lon="35.0351148">
<ele>451.399994</ele>
<time>2021-09-24T04:31:39.000Z</time>
</trkpt>
<trkpt lat="31.8089086" lon="35.0353250">
<ele>452.399994</ele>
<time>2021-09-24T04:31:50.000Z</time>
</trkpt>
<trkpt lat="31.8088582" lon="35.0355275">
<ele>453.399994</ele>
<time>2021-09-24T04:32:01.000Z</time>
</trkpt>
<trkpt lat="31.8087882" lon="35.0357219">
<ele>454.200012</ele>
<time>2021-09-24T04:32:10.000Z</time>
</trkpt>
<trkpt lat="31.8087215" lon="35.0359044">
<ele>455.600037</ele>
<time>2021-09-24T04:32:21.000Z</time>
</trkpt>
<trkpt lat="31.8086728" lon="35.0360509">
<ele>457.399994</ele>
<time>2021-09-24T04:32:30.000Z</time>
</trkpt>
<trkpt lat="31.8085975" lon="35.0362410">
<ele>459.799988</ele>
<time>2021-09-24T04:32:42.000Z</time>
</trkpt>
<trkpt lat="31.8085086" lon="35.0363959">
<ele>461.600006</ele>
<time>2021-09-24T04:32:53.000Z</time>
</trkpt>
<trkpt lat="31.8084201" lon="35.0365288">
<ele>462.799988</ele>
<time>2021-09-24T04:33:02.000Z</time>
</trkpt>
<trkpt lat="31.8083385" lon="35.0366762">
<ele>463.399994</ele>
<time>2021-09-24T04:33:10.000Z</time>
</trkpt>
<trkpt lat="31.8082590" lon="35.0368859">
<ele>464.200012</ele>
<time>2021-09-24T04:33:19.000Z</time>
</trkpt>
<trkpt lat="31.8082134" lon="35.0370586">
<ele>465.600006</ele>
<time>2021-09-24T04:33:29.000Z</time>
</trkpt>
<trkpt lat="31.8081792" lon="35.0372534">
<ele>467.799988</ele>
<time>2021-09-24T04:33:39.000Z</time>
</trkpt>
<trkpt lat="31.8081592" lon="35.0374347">
<ele>469.000000</ele>
<time>2021-09-24T04:33:48.000Z</time>
</trkpt>
<trkpt lat="31.8081661" lon="35.0376399">
<ele>470.399963</ele>
<time>2021-09-24T04:33:59.000Z</time>
</trkpt>
<trkpt lat="31.8081705" lon="35.0378019">
<ele>471.399994</ele>
<time>2021-09-24T04:34:07.000Z</time>
</trkpt>
<trkpt lat="31.8081962" lon="35.0380864">
<ele>472.799988</ele>
<time>2021-09-24T04:34:19.000Z</time>
</trkpt>
<trkpt lat="31.8082414" lon="35.0383019">
<ele>474.000031</ele>
<time>2021-09-24T04:34:29.000Z</time>
</trkpt>
<trkpt lat="31.8083084" lon="35.0385019">
<ele>475.600006</ele>
<time>2021-09-24T04:34:40.000Z</time>
</trkpt>
<trkpt lat="31.8083961" lon="35.0386649">
<ele>476.799988</ele>
<time>2021-09-24T04:34:50.000Z</time>
</trkpt>
<trkpt lat="31.8084636" lon="35.0387958">
<ele>477.799957</ele>
<time>2021-09-24T04:34:58.000Z</time>
</trkpt>
<trkpt lat="31.8085397" lon="35.0389257">
<ele>479.399994</ele>
<time>2021-09-24T04:35:07.000Z</time>
</trkpt>
<trkpt lat="31.8086272" lon="35.0390955">
<ele>480.200012</ele>
<time>2021-09-24T04:35:16.000Z</time>
</trkpt>
<trkpt lat="31.8086831" lon="35.0392207">
<ele>481.600006</ele>
<time>2021-09-24T04:35:24.000Z</time>
</trkpt>
<trkpt lat="31.8087671" lon="35.0394000">
<ele>483.200012</ele>
<time>2021-09-24T04:35:35.000Z</time>
</trkpt>
<trkpt lat="31.8088688" lon="35.0395918">
<ele>484.600006</ele>
<time>2021-09-24T04:35:46.000Z</time>
</trkpt>
<trkpt lat="31.8089868" lon="35.0397997">
<ele>485.600006</ele>
<time>2021-09-24T04:35:57.000Z</time>
</trkpt>
<trkpt lat="31.8090923" lon="35.0399813">
<ele>486.200012</ele>
<time>2021-09-24T04:36:06.000Z</time>
</trkpt>
<trkpt lat="31.8092113" lon="35.0402283">
<ele>486.600006</ele>
<time>2021-09-24T04:36:16.000Z</time>
</trkpt>
<trkpt lat="31.8092606" lon="35.0403960">
<ele>487.000000</ele>
<time>2021-09-24T04:36:24.000Z</time>
</trkpt>
<trkpt lat="31.8092624" lon="35.0405636">
<ele>487.600006</ele>
<time>2021-09-24T04:36:31.000Z</time>
</trkpt>
<trkpt lat="31.8092770" lon="35.0407270">
<ele>488.600006</ele>
<time>2021-09-24T04:36:39.000Z</time>
</trkpt>
<trkpt lat="31.8091881" lon="35.0408701">
<ele>489.799988</ele>
<time>2021-09-24T04:36:47.000Z</time>
</trkpt>
<trkpt lat="31.8090956" lon="35.0409865">
<ele>491.200012</ele>
<time>2021-09-24T04:36:56.000Z</time>
</trkpt>
<trkpt lat="31.8090085" lon="35.0410918">
<ele>492.799988</ele>
<time>2021-09-24T04:37:05.000Z</time>
</trkpt>
<trkpt lat="31.8089180" lon="35.0412071">
<ele>494.600037</ele>
<time>2021-09-24T04:37:15.000Z</time>
</trkpt>
<trkpt lat="31.8088223" lon="35.0413397">
<ele>496.399994</ele>
<time>2021-09-24T04:37:26.000Z</time>
</trkpt>
<trkpt lat="31.8087170" lon="35.0414769">
<ele>497.599976</ele>
<time>2021-09-24T04:37:37.000Z</time>
</trkpt>
<trkpt lat="31.8086143" lon="35.0415788">
<ele>498.600006</ele>
<time>2021-09-24T04:37:46.000Z</time>
</trkpt>
<trkpt lat="31.8084942" lon="35.0416549">
<ele>499.000031</ele>
<time>2021-09-24T04:37:53.000Z</time>
</trkpt>
<trkpt lat="31.8083833" lon="35.0416850">
<ele>500.399994</ele>
<time>2021-09-24T04:38:01.000Z</time>
</trkpt>
<trkpt lat="31.8083015" lon="35.0417032">
<ele>501.200043</ele>
<time>2021-09-24T04:38:07.000Z</time>
</trkpt>
<trkpt lat="31.8082882" lon="35.0417105">
<ele>501.399994</ele>
<time>2021-09-24T04:38:08.000Z</time>
</trkpt>
<trkpt lat="31.8082751" lon="35.0417168">
<ele>501.399994</ele>
<time>2021-09-24T04:38:09.000Z</time>
</trkpt>
<trkpt lat="31.8082638" lon="35.0417256">
<ele>501.600006</ele>
<time>2021-09-24T04:38:10.000Z</time>
</trkpt>
<trkpt lat="31.8082522" lon="35.0417359">
<ele>501.600006</ele>
<time>2021-09-24T04:38:11.000Z</time>
</trkpt>
<trkpt lat="31.8082397" lon="35.0417442">
<ele>501.799988</ele>
<time>2021-09-24T04:38:12.000Z</time>
</trkpt>
<trkpt lat="31.8082266" lon="35.0417520">
<ele>501.999969</ele>
<time>2021-09-24T04:38:13.000Z</time>
</trkpt>
<trkpt lat="31.8082150" lon="35.0417612">
<ele>502.200012</ele>
<time>2021-09-24T04:38:14.000Z</time>
</trkpt>
<trkpt lat="31.8082043" lon="35.0417719">
<ele>502.399994</ele>
<time>2021-09-24T04:38:15.000Z</time>
</trkpt>
<trkpt lat="31.8081941" lon="35.0417835">
<ele>502.600006</ele>
<time>2021-09-24T04:38:16.000Z</time>
</trkpt>
<trkpt lat="31.8081850" lon="35.0417968">
<ele>502.600006</ele>
<time>2021-09-24T04:38:17.000Z</time>
</trkpt>
<trkpt lat="31.8081770" lon="35.0418121">
<ele>502.799957</ele>
<time>2021-09-24T04:38:18.000Z</time>
</trkpt>
<trkpt lat="31.8081683" lon="35.0418278">
<ele>502.799957</ele>
<time>2021-09-24T04:38:19.000Z</time>
</trkpt>
<trkpt lat="31.8081595" lon="35.0418450">
<ele>503.000000</ele>
<time>2021-09-24T04:38:20.000Z</time>
</trkpt>
<trkpt lat="31.8081528" lon="35.0418640">
<ele>503.000000</ele>
<time>2021-09-24T04:38:21.000Z</time>
</trkpt>
<trkpt lat="31.8081475" lon="35.0418825">
<ele>503.200012</ele>
<time>2021-09-24T04:38:22.000Z</time>
</trkpt>
<trkpt lat="31.8081160" lon="35.0420834">
<ele>504.199982</ele>
<time>2021-09-24T04:38:33.000Z</time>
</trkpt>
<trkpt lat="31.8081044" lon="35.0422917">
<ele>505.399994</ele>
<time>2021-09-24T04:38:45.000Z</time>
</trkpt>
<trkpt lat="31.8081049" lon="35.0424280">
<ele>506.400024</ele>
<time>2021-09-24T04:38:53.000Z</time>
</trkpt>
<trkpt lat="31.8081068" lon="35.0425813">
<ele>507.600006</ele>
<time>2021-09-24T04:39:03.000Z</time>
</trkpt>
<trkpt lat="31.8081161" lon="35.0427781">
<ele>509.600006</ele>
<time>2021-09-24T04:39:14.000Z</time>
</trkpt>
<trkpt lat="31.8081070" lon="35.0429272">
<ele>511.200012</ele>
<time>2021-09-24T04:39:23.000Z</time>
</trkpt>
<trkpt lat="31.8081093" lon="35.0430871">
<ele>512.599976</ele>
<time>2021-09-24T04:39:33.000Z</time>
</trkpt>
<trkpt lat="31.8081190" lon="35.0432312">
<ele>514.000000</ele>
<time>2021-09-24T04:39:42.000Z</time>
</trkpt>
<trkpt lat="31.8081155" lon="35.0433695">
<ele>515.000000</ele>
<time>2021-09-24T04:39:49.000Z</time>
</trkpt>
<trkpt lat="31.8081056" lon="35.0434963">
<ele>516.000000</ele>
<time>2021-09-24T04:39:58.000Z</time>
</trkpt>
<trkpt lat="31.8080825" lon="35.0436525">
<ele>517.799988</ele>
<time>2021-09-24T04:40:08.000Z</time>
</trkpt>
<trkpt lat="31.8080814" lon="35.0437899">
<ele>519.599976</ele>
<time>2021-09-24T04:40:18.000Z</time>
</trkpt>
<trkpt lat="31.8080769" lon="35.0439435">
<ele>521.000000</ele>
<time>2021-09-24T04:40:28.000Z</time>
</trkpt>
<trkpt lat="31.8080653" lon="35.0440946">
<ele>521.799988</ele>
<time>2021-09-24T04:40:36.000Z</time>
</trkpt>
<trkpt lat="31.8080542" lon="35.0442767">
<ele>523.599976</ele>
<time>2021-09-24T04:40:47.000Z</time>
</trkpt>
<trkpt lat="31.8080518" lon="35.0443355">
<ele>524.000000</ele>
<time>2021-09-24T04:40:51.000Z</time>
</trkpt>
<trkpt lat="31.8080508" lon="35.0443511">
<ele>524.200012</ele>
<time>2021-09-24T04:40:52.000Z</time>
</trkpt>
<trkpt lat="31.8080563" lon="35.0444911">
<ele>525.599976</ele>
<time>2021-09-24T04:41:01.000Z</time>
</trkpt>
<trkpt lat="31.8080556" lon="35.0445062">
<ele>525.599976</ele>
<time>2021-09-24T04:41:02.000Z</time>
</trkpt>
<trkpt lat="31.8080558" lon="35.0445207">
<ele>525.799988</ele>
<time>2021-09-24T04:41:03.000Z</time>
</trkpt>
<trkpt lat="31.8080559" lon="35.0445352">
<ele>526.000000</ele>
<time>2021-09-24T04:41:04.000Z</time>
</trkpt>
<trkpt lat="31.8080564" lon="35.0445503">
<ele>526.000000</ele>
<time>2021-09-24T04:41:05.000Z</time>
</trkpt>
<trkpt lat="31.8080565" lon="35.0445652">
<ele>526.200012</ele>
<time>2021-09-24T04:41:06.000Z</time>
</trkpt>
<trkpt lat="31.8080581" lon="35.0445798">
<ele>526.400024</ele>
<time>2021-09-24T04:41:07.000Z</time>
</trkpt>
<trkpt lat="31.8080611" lon="35.0447657">
<ele>527.799988</ele>
<time>2021-09-24T04:41:16.000Z</time>
</trkpt>
<trkpt lat="31.8080631" lon="35.0449371">
<ele>529.400024</ele>
<time>2021-09-24T04:41:25.000Z</time>
</trkpt>
<trkpt lat="31.8080563" lon="35.0451117">
<ele>531.000000</ele>
<time>2021-09-24T04:41:35.000Z</time>
</trkpt>
<trkpt lat="31.8080471" lon="35.0452816">
<ele>532.200012</ele>
<time>2021-09-24T04:41:43.000Z</time>
</trkpt>
<trkpt lat="31.8080241" lon="35.0454591">
<ele>533.599976</ele>
<time>2021-09-24T04:41:53.000Z</time>
</trkpt>
<trkpt lat="31.8080171" lon="35.0456257">
<ele>534.799988</ele>
<time>2021-09-24T04:42:02.000Z</time>
</trkpt>
<trkpt lat="31.8079820" lon="35.0458312">
<ele>535.799988</ele>
<time>2021-09-24T04:42:12.000Z</time>
</trkpt>
<trkpt lat="31.8079647" lon="35.0460612">
<ele>537.000000</ele>
<time>2021-09-24T04:42:23.000Z</time>
</trkpt>
<trkpt lat="31.8079307" lon="35.0463216">
<ele>538.400024</ele>
<time>2021-09-24T04:42:36.000Z</time>
</trkpt>
<trkpt lat="31.8078812" lon="35.0465367">
<ele>539.599976</ele>
<time>2021-09-24T04:42:47.000Z</time>
</trkpt>
<trkpt lat="31.8078427" lon="35.0467218">
<ele>540.599976</ele>
<time>2021-09-24T04:42:56.000Z</time>
</trkpt>
<trkpt lat="31.8078150" lon="35.0470080">
<ele>542.400024</ele>
<time>2021-09-24T04:43:09.000Z</time>
</trkpt>
<trkpt lat="31.8078125" lon="35.0472180">
<ele>544.799988</ele>
<time>2021-09-24T04:43:19.000Z</time>
</trkpt>
<trkpt lat="31.8078194" lon="35.0473273">
<ele>545.000000</ele>
<time>2021-09-24T04:43:26.000Z</time>
</trkpt>
<trkpt lat="31.8078228" lon="35.0474835">
<ele>546.000000</ele>
<time>2021-09-24T04:43:33.000Z</time>
</trkpt>
<trkpt lat="31.8078215" lon="35.0475977">
<ele>547.200012</ele>
<time>2021-09-24T04:43:40.000Z</time>
</trkpt>
<trkpt lat="31.8078606" lon="35.0477489">
<ele>545.000000</ele>
<time>2021-09-24T04:43:49.000Z</time>
</trkpt>
<trkpt lat="31.8078666" lon="35.0477649">
<ele>541.000000</ele>
<time>2021-09-24T04:43:50.000Z</time>
</trkpt>
<trkpt lat="31.8078705" lon="35.0477811">
<ele>541.000000</ele>
<time>2021-09-24T04:43:51.000Z</time>
</trkpt>
<trkpt lat="31.8078749" lon="35.0478261">
<ele>544.200012</ele>
<time>2021-09-24T04:43:54.000Z</time>
</trkpt>
<trkpt lat="31.8078779" lon="35.0478401">
<ele>547.400024</ele>
<time>2021-09-24T04:43:55.000Z</time>
</trkpt>
<trkpt lat="31.8078822" lon="35.0478563">
<ele>551.000000</ele>
<time>2021-09-24T04:43:56.000Z</time>
</trkpt>
<trkpt lat="31.8078904" lon="35.0478897">
<ele>554.599976</ele>
<time>2021-09-24T04:43:58.000Z</time>
</trkpt>
<trkpt lat="31.8078989" lon="35.0479212">
<ele>555.400024</ele>
<time>2021-09-24T04:44:00.000Z</time>
</trkpt>
<trkpt lat="31.8079311" lon="35.0480663">
<ele>553.000000</ele>
<time>2021-09-24T04:44:09.000Z</time>
</trkpt>
<trkpt lat="31.8079911" lon="35.0482327">
<ele>553.599976</ele>
<time>2021-09-24T04:44:19.000Z</time>
</trkpt>
<trkpt lat="31.8080282" lon="35.0483825">
<ele>554.400024</ele>
<time>2021-09-24T04:44:27.000Z</time>
</trkpt>
<trkpt lat="31.8080626" lon="35.0485327">
<ele>555.400024</ele>
<time>2021-09-24T04:44:35.000Z</time>
</trkpt>
<trkpt lat="31.8081024" lon="35.0486684">
<ele>556.799988</ele>
<time>2021-09-24T04:44:43.000Z</time>
</trkpt>
<trkpt lat="31.8081431" lon="35.0488229">
<ele>558.200012</ele>
<time>2021-09-24T04:44:52.000Z</time>
</trkpt>
<trkpt lat="31.8081966" lon="35.0489934">
<ele>559.799988</ele>
<time>2021-09-24T04:45:02.000Z</time>
</trkpt>
<trkpt lat="31.8082549" lon="35.0491613">
<ele>561.200012</ele>
<time>2021-09-24T04:45:12.000Z</time>
</trkpt>
<trkpt lat="31.8083073" lon="35.0492662">
<ele>558.000000</ele>
<time>2021-09-24T04:45:19.000Z</time>
</trkpt>
<trkpt lat="31.8083284" lon="35.0493050">
<ele>555.200012</ele>
<time>2021-09-24T04:45:22.000Z</time>
</trkpt>
<trkpt lat="31.8083455" lon="35.0493297">
<ele>560.400024</ele>
<time>2021-09-24T04:45:24.000Z</time>
</trkpt>
<trkpt lat="31.8083610" lon="35.0493578">
<ele>567.000000</ele>
<time>2021-09-24T04:45:26.000Z</time>
</trkpt>
<trkpt lat="31.8083833" lon="35.0493858">
<ele>567.799988</ele>
<time>2021-09-24T04:45:28.000Z</time>
</trkpt>
<trkpt lat="31.8084610" lon="35.0495268">
<ele>566.200012</ele>
<time>2021-09-24T04:45:36.000Z</time>
</trkpt>
<trkpt lat="31.8085315" lon="35.0496490">
<ele>566.200012</ele>
<time>2021-09-24T04:45:44.000Z</time>
</trkpt>
<trkpt lat="31.8086183" lon="35.0497794">
<ele>567.000000</ele>
<time>2021-09-24T04:45:53.000Z</time>
</trkpt>
<trkpt lat="31.8086278" lon="35.0497942">
<ele>567.000000</ele>
<time>2021-09-24T04:45:54.000Z</time>
</trkpt>
<trkpt lat="31.8086411" lon="35.0498064">
<ele>567.200012</ele>
<time>2021-09-24T04:45:55.000Z</time>
</trkpt>
<trkpt lat="31.8087381" lon="35.0498655">
<ele>567.799988</ele>
<time>2021-09-24T04:46:02.000Z</time>
</trkpt>
<trkpt lat="31.8087560" lon="35.0498603">
<ele>567.799988</ele>
<time>2021-09-24T04:46:03.000Z</time>
</trkpt>
<trkpt lat="31.8089173" lon="35.0497376">
<ele>567.599976</ele>
<time>2021-09-24T04:46:10.000Z</time>
</trkpt>
<trkpt lat="31.8089532" lon="35.0497110">
<ele>567.400024</ele>
<time>2021-09-24T04:46:11.000Z</time>
</trkpt>
<trkpt lat="31.8089930" lon="35.0496876">
<ele>567.400024</ele>
<time>2021-09-24T04:46:12.000Z</time>
</trkpt>
<trkpt lat="31.8090359" lon="35.0496714">
<ele>567.200012</ele>
<time>2021-09-24T04:46:13.000Z</time>
</trkpt>
<trkpt lat="31.8090816" lon="35.0496627">
<ele>567.000000</ele>
<time>2021-09-24T04:46:14.000Z</time>
</trkpt>
<trkpt lat="31.8091282" lon="35.0496588">
<ele>566.799988</ele>
<time>2021-09-24T04:46:15.000Z</time>
</trkpt>
<trkpt lat="31.8091746" lon="35.0496625">
<ele>566.599976</ele>
<time>2021-09-24T04:46:16.000Z</time>
</trkpt>
<trkpt lat="31.8092185" lon="35.0496764">
<ele>566.200012</ele>
<time>2021-09-24T04:46:17.000Z</time>
</trkpt>
<trkpt lat="31.8092572" lon="35.0497023">
<ele>566.000000</ele>
<time>2021-09-24T04:46:18.000Z</time>
</trkpt>
<trkpt lat="31.8092871" lon="35.0497391">
<ele>565.200012</ele>
<time>2021-09-24T04:46:19.000Z</time>
</trkpt>
<trkpt lat="31.8093063" lon="35.0497817">
<ele>564.799988</ele>
<time>2021-09-24T04:46:20.000Z</time>
</trkpt>
<trkpt lat="31.8093220" lon="35.0498274">
<ele>564.400024</ele>
<time>2021-09-24T04:46:21.000Z</time>
</trkpt>
<trkpt lat="31.8093873" lon="35.0499906">
<ele>563.599976</ele>
<time>2021-09-24T04:46:24.000Z</time>
</trkpt>
<trkpt lat="31.8094028" lon="35.0500526">
<ele>563.400024</ele>
<time>2021-09-24T04:46:25.000Z</time>
</trkpt>
<trkpt lat="31.8094863" lon="35.0504840">
<ele>560.400024</ele>
<time>2021-09-24T04:46:31.000Z</time>
</trkpt>
<trkpt lat="31.8095737" lon="35.0509860">
<ele>557.200012</ele>
<time>2021-09-24T04:46:37.000Z</time>
</trkpt>
<trkpt lat="31.8096538" lon="35.0514567">
<ele>554.200012</ele>
<time>2021-09-24T04:46:42.000Z</time>
</trkpt>
<trkpt lat="31.8097415" lon="35.0519509">
<ele>550.799988</ele>
<time>2021-09-24T04:46:48.000Z</time>
</trkpt>
<trkpt lat="31.8098125" lon="35.0522161">
<ele>547.000000</ele>
<time>2021-09-24T04:46:52.000Z</time>
</trkpt>
<trkpt lat="31.8098909" lon="35.0524020">
<ele>545.400024</ele>
<time>2021-09-24T04:46:55.000Z</time>
</trkpt>
<trkpt lat="31.8099318" lon="35.0524635">
<ele>545.000000</ele>
<time>2021-09-24T04:46:56.000Z</time>
</trkpt>
<trkpt lat="31.8099780" lon="35.0525223">
<ele>544.400024</ele>
<time>2021-09-24T04:46:57.000Z</time>
</trkpt>
<trkpt lat="31.8101145" lon="35.0527105">
<ele>542.000000</ele>
<time>2021-09-24T04:47:00.000Z</time>
</trkpt>
<trkpt lat="31.8101447" lon="35.0527833">
<ele>541.799988</ele>
<time>2021-09-24T04:47:01.000Z</time>
</trkpt>
<trkpt lat="31.8101631" lon="35.0528548">
<ele>541.599976</ele>
<time>2021-09-24T04:47:02.000Z</time>
</trkpt>
<trkpt lat="31.8101697" lon="35.0529223">
<ele>541.200012</ele>
<time>2021-09-24T04:47:03.000Z</time>
</trkpt>
<trkpt lat="31.8101656" lon="35.0529869">
<ele>540.799988</ele>
<time>2021-09-24T04:47:04.000Z</time>
</trkpt>
<trkpt lat="31.8101539" lon="35.0530498">
<ele>540.400024</ele>
<time>2021-09-24T04:47:05.000Z</time>
</trkpt>
<trkpt lat="31.8101361" lon="35.0531129">
<ele>540.200012</ele>
<time>2021-09-24T04:47:06.000Z</time>
</trkpt>
<trkpt lat="31.8101128" lon="35.0531756">
<ele>540.000000</ele>
<time>2021-09-24T04:47:07.000Z</time>
</trkpt>
<trkpt lat="31.8100835" lon="35.0532373">
<ele>539.599976</ele>
<time>2021-09-24T04:47:08.000Z</time>
</trkpt>
<trkpt lat="31.8100477" lon="35.0532973">
<ele>539.400024</ele>
<time>2021-09-24T04:47:09.000Z</time>
</trkpt>
<trkpt lat="31.8100078" lon="35.0533565">
<ele>539.000000</ele>
<time>2021-09-24T04:47:10.000Z</time>
</trkpt>
<trkpt lat="31.8098130" lon="35.0536541">
<ele>537.000000</ele>
<time>2021-09-24T04:47:15.000Z</time>
</trkpt>
<trkpt lat="31.8097897" lon="35.0537156">
<ele>537.000000</ele>
<time>2021-09-24T04:47:16.000Z</time>
</trkpt>
<trkpt lat="31.8097742" lon="35.0537790">
<ele>536.799988</ele>
<time>2021-09-24T04:47:17.000Z</time>
</trkpt>
<trkpt lat="31.8097124" lon="35.0542559">
<ele>534.799988</ele>
<time>2021-09-24T04:47:24.000Z</time>
</trkpt>
<trkpt lat="31.8097178" lon="35.0543256">
<ele>534.599976</ele>
<time>2021-09-24T04:47:25.000Z</time>
</trkpt>
<trkpt lat="31.8097272" lon="35.0543950">
<ele>534.400024</ele>
<time>2021-09-24T04:47:26.000Z</time>
</trkpt>
<trkpt lat="31.8097435" lon="35.0544619">
<ele>534.200012</ele>
<time>2021-09-24T04:47:27.000Z</time>
</trkpt>
<trkpt lat="31.8097665" lon="35.0545263">
<ele>534.000000</ele>
<time>2021-09-24T04:47:28.000Z</time>
</trkpt>
<trkpt lat="31.8097944" lon="35.0545899">
<ele>533.799988</ele>
<time>2021-09-24T04:47:29.000Z</time>
</trkpt>
<trkpt lat="31.8098251" lon="35.0546544">
<ele>533.599976</ele>
<time>2021-09-24T04:47:30.000Z</time>
</trkpt>
<trkpt lat="31.8101465" lon="35.0553223">
<ele>531.400024</ele>
<time>2021-09-24T04:47:39.000Z</time>
</trkpt>
<trkpt lat="31.8102262" lon="35.0554930">
<ele>530.200012</ele>
<time>2021-09-24T04:47:41.000Z</time>
</trkpt>
<trkpt lat="31.8105363" lon="35.0561537">
<ele>527.599976</ele>
<time>2021-09-24T04:47:49.000Z</time>
</trkpt>
<trkpt lat="31.8108230" lon="35.0565997">
<ele>525.200012</ele>
<time>2021-09-24T04:47:55.000Z</time>
</trkpt>
<trkpt lat="31.8110618" lon="35.0568830">
<ele>522.599976</ele>
<time>2021-09-24T04:47:59.000Z</time>
</trkpt>
<trkpt lat="31.8111026" lon="35.0569664">
<ele>522.200012</ele>
<time>2021-09-24T04:48:00.000Z</time>
</trkpt>
<trkpt lat="31.8111282" lon="35.0570557">
<ele>521.599976</ele>
<time>2021-09-24T04:48:01.000Z</time>
</trkpt>
<trkpt lat="31.8111415" lon="35.0571470">
<ele>521.200012</ele>
<time>2021-09-24T04:48:02.000Z</time>
</trkpt>
<trkpt lat="31.8111500" lon="35.0572373">
<ele>520.799988</ele>
<time>2021-09-24T04:48:03.000Z</time>
</trkpt>
<trkpt lat="31.8111937" lon="35.0576582">
<ele>519.200012</ele>
<time>2021-09-24T04:48:08.000Z</time>
</trkpt>
<trkpt lat="31.8112106" lon="35.0577330">
<ele>518.799988</ele>
<time>2021-09-24T04:48:09.000Z</time>
</trkpt>
<trkpt lat="31.8112321" lon="35.0578071">
<ele>518.599976</ele>
<time>2021-09-24T04:48:10.000Z</time>
</trkpt>
<trkpt lat="31.8112594" lon="35.0578843">
<ele>518.400024</ele>
<time>2021-09-24T04:48:11.000Z</time>
</trkpt>
<trkpt lat="31.8112939" lon="35.0579657">
<ele>518.000000</ele>
<time>2021-09-24T04:48:12.000Z</time>
</trkpt>
<trkpt lat="31.8113325" lon="35.0580507">
<ele>517.799988</ele>
<time>2021-09-24T04:48:13.000Z</time>
</trkpt>
<trkpt lat="31.8115071" lon="35.0583901">
<ele>516.000000</ele>
<time>2021-09-24T04:48:17.000Z</time>
</trkpt>
<trkpt lat="31.8115565" lon="35.0584474">
<ele>515.599976</ele>
<time>2021-09-24T04:48:18.000Z</time>
</trkpt>
<trkpt lat="31.8116054" lon="35.0584890">
<ele>515.200012</ele>
<time>2021-09-24T04:48:19.000Z</time>
</trkpt>
<trkpt lat="31.8116514" lon="35.0585121">
<ele>515.000000</ele>
<time>2021-09-24T04:48:20.000Z</time>
</trkpt>
<trkpt lat="31.8116929" lon="35.0585261">
<ele>513.599976</ele>
<time>2021-09-24T04:48:21.000Z</time>
</trkpt>
<trkpt lat="31.8117346" lon="35.0585376">
<ele>512.799988</ele>
<time>2021-09-24T04:48:22.000Z</time>
</trkpt>
<trkpt lat="31.8118959" lon="35.0585699">
<ele>509.399963</ele>
<time>2021-09-24T04:48:27.000Z</time>
</trkpt>
<trkpt lat="31.8119135" lon="35.0585647">
<ele>508.599976</ele>
<time>2021-09-24T04:48:28.000Z</time>
</trkpt>
<trkpt lat="31.8119253" lon="35.0585584">
<ele>507.799988</ele>
<time>2021-09-24T04:48:29.000Z</time>
</trkpt>
<trkpt lat="31.8119344" lon="35.0585501">
<ele>507.200012</ele>
<time>2021-09-24T04:48:30.000Z</time>
</trkpt>
<trkpt lat="31.8119336" lon="35.0585198">
<ele>504.199982</ele>
<time>2021-09-24T04:48:36.000Z</time>
</trkpt>
<trkpt lat="31.8119329" lon="35.0585184">
<ele>503.399994</ele>
<time>2021-09-24T04:48:40.000Z</time>
</trkpt>
<trkpt lat="31.8119856" lon="35.0585364">
<ele>502.600006</ele>
<time>2021-09-24T04:49:00.000Z</time>
</trkpt>
<trkpt lat="31.8121161" lon="35.0585749">
<ele>502.200012</ele>
<time>2021-09-24T04:49:08.000Z</time>
</trkpt>
<trkpt lat="31.8121250" lon="35.0585717">
<ele>501.999969</ele>
<time>2021-09-24T04:49:09.000Z</time>
</trkpt>
<trkpt lat="31.8121339" lon="35.0585603">
<ele>501.999969</ele>
<time>2021-09-24T04:49:10.000Z</time>
</trkpt>
<trkpt lat="31.8121401" lon="35.0585404">
<ele>501.799988</ele>
<time>2021-09-24T04:49:11.000Z</time>
</trkpt>
<trkpt lat="31.8121373" lon="35.0585135">
<ele>501.799988</ele>
<time>2021-09-24T04:49:12.000Z</time>
</trkpt>
<trkpt lat="31.8121261" lon="35.0584823">
<ele>501.600006</ele>
<time>2021-09-24T04:49:13.000Z</time>
</trkpt>
<trkpt lat="31.8121119" lon="35.0584495">
<ele>501.600006</ele>
<time>2021-09-24T04:49:14.000Z</time>
</trkpt>
<trkpt lat="31.8120951" lon="35.0584157">
<ele>501.399994</ele>
<time>2021-09-24T04:49:15.000Z</time>
</trkpt>
<trkpt lat="31.8120658" lon="35.0583329">
<ele>501.000000</ele>
<time>2021-09-24T04:49:17.000Z</time>
</trkpt>
<trkpt lat="31.8120581" lon="35.0582849">
<ele>501.000000</ele>
<time>2021-09-24T04:49:18.000Z</time>
</trkpt>
<trkpt lat="31.8120541" lon="35.0582343">
<ele>500.799988</ele>
<time>2021-09-24T04:49:19.000Z</time>
</trkpt>
<trkpt lat="31.8120503" lon="35.0580828">
<ele>500.200012</ele>
<time>2021-09-24T04:49:22.000Z</time>
</trkpt>
<trkpt lat="31.8120689" lon="35.0577366">
<ele>499.399994</ele>
<time>2021-09-24T04:49:30.000Z</time>
</trkpt>
<trkpt lat="31.8120619" lon="35.0574041">
<ele>500.000000</ele>
<time>2021-09-24T04:49:39.000Z</time>
</trkpt>
<trkpt lat="31.8119565" lon="35.0570550">
<ele>499.800018</ele>
<time>2021-09-24T04:49:48.000Z</time>
</trkpt>
<trkpt lat="31.8118598" lon="35.0569100">
<ele>499.800018</ele>
<time>2021-09-24T04:49:52.000Z</time>
</trkpt>
<trkpt lat="31.8118421" lon="35.0568644">
<ele>499.800018</ele>
<time>2021-09-24T04:49:53.000Z</time>
</trkpt>
<trkpt lat="31.8118317" lon="35.0568150">
<ele>499.800018</ele>
<time>2021-09-24T04:49:54.000Z</time>
</trkpt>
<trkpt lat="31.8118271" lon="35.0567643">
<ele>499.399994</ele>
<time>2021-09-24T04:49:55.000Z</time>
</trkpt>
<trkpt lat="31.8118245" lon="35.0567105">
<ele>499.200012</ele>
<time>2021-09-24T04:49:56.000Z</time>
</trkpt>
<trkpt lat="31.8118178" lon="35.0565423">
<ele>498.399963</ele>
<time>2021-09-24T04:49:59.000Z</time>
</trkpt>
<trkpt lat="31.8118274" lon="35.0564844">
<ele>498.000000</ele>
<time>2021-09-24T04:50:00.000Z</time>
</trkpt>
<trkpt lat="31.8118430" lon="35.0564230">
<ele>497.799988</ele>
<time>2021-09-24T04:50:01.000Z</time>
</trkpt>
<trkpt lat="31.8118597" lon="35.0563602">
<ele>497.399994</ele>
<time>2021-09-24T04:50:02.000Z</time>
</trkpt>
<trkpt lat="31.8118723" lon="35.0562959">
<ele>497.000000</ele>
<time>2021-09-24T04:50:03.000Z</time>
</trkpt>
<trkpt lat="31.8118797" lon="35.0562305">
<ele>496.600006</ele>
<time>2021-09-24T04:50:04.000Z</time>
</trkpt>
<trkpt lat="31.8118848" lon="35.0561646">
<ele>496.000000</ele>
<time>2021-09-24T04:50:05.000Z</time>
</trkpt>
<trkpt lat="31.8118940" lon="35.0561013">
<ele>495.799988</ele>
<time>2021-09-24T04:50:06.000Z</time>
</trkpt>
<trkpt lat="31.8119124" lon="35.0560463">
<ele>495.400024</ele>
<time>2021-09-24T04:50:07.000Z</time>
</trkpt>
<trkpt lat="31.8119415" lon="35.0559993">
<ele>494.600037</ele>
<time>2021-09-24T04:50:08.000Z</time>
</trkpt>
<trkpt lat="31.8120056" lon="35.0559074">
<ele>493.600006</ele>
<time>2021-09-24T04:50:10.000Z</time>
</trkpt>
<trkpt lat="31.8120320" lon="35.0558521">
<ele>493.200012</ele>
<time>2021-09-24T04:50:11.000Z</time>
</trkpt>
<trkpt lat="31.8120843" lon="35.0557326">
<ele>492.200012</ele>
<time>2021-09-24T04:50:13.000Z</time>
</trkpt>
<trkpt lat="31.8121181" lon="35.0556803">
<ele>492.000000</ele>
<time>2021-09-24T04:50:14.000Z</time>
</trkpt>
<trkpt lat="31.8121617" lon="35.0556372">
<ele>491.600006</ele>
<time>2021-09-24T04:50:15.000Z</time>
</trkpt>
<trkpt lat="31.8122143" lon="35.0556096">
<ele>491.399994</ele>
<time>2021-09-24T04:50:16.000Z</time>
</trkpt>
<trkpt lat="31.8122703" lon="35.0556023">
<ele>490.799988</ele>
<time>2021-09-24T04:50:17.000Z</time>
</trkpt>
<trkpt lat="31.8123249" lon="35.0556154">
<ele>490.399994</ele>
<time>2021-09-24T04:50:18.000Z</time>
</trkpt>
<trkpt lat="31.8123737" lon="35.0556442">
<ele>490.000000</ele>
<time>2021-09-24T04:50:19.000Z</time>
</trkpt>
<trkpt lat="31.8124149" lon="35.0556886">
<ele>489.799988</ele>
<time>2021-09-24T04:50:20.000Z</time>
</trkpt>
<trkpt lat="31.8124493" lon="35.0557470">
<ele>489.399994</ele>
<time>2021-09-24T04:50:21.000Z</time>
</trkpt>
<trkpt lat="31.8124791" lon="35.0558157">
<ele>489.200012</ele>
<time>2021-09-24T04:50:22.000Z</time>
</trkpt>
<trkpt lat="31.8125068" lon="35.0558866">
<ele>488.399994</ele>
<time>2021-09-24T04:50:23.000Z</time>
</trkpt>
<trkpt lat="31.8125342" lon="35.0559581">
<ele>488.200012</ele>
<time>2021-09-24T04:50:24.000Z</time>
</trkpt>
<trkpt lat="31.8127690" lon="35.0565234">
<ele>485.200012</ele>
<time>2021-09-24T04:50:32.000Z</time>
</trkpt>
<trkpt lat="31.8129161" lon="35.0568834">
<ele>481.600006</ele>
<time>2021-09-24T04:50:37.000Z</time>
</trkpt>
<trkpt lat="31.8129977" lon="35.0570844">
<ele>480.200012</ele>
<time>2021-09-24T04:50:40.000Z</time>
</trkpt>
<trkpt lat="31.8130159" lon="35.0571540">
<ele>479.799988</ele>
<time>2021-09-24T04:50:41.000Z</time>
</trkpt>
<trkpt lat="31.8130252" lon="35.0572271">
<ele>479.199982</ele>
<time>2021-09-24T04:50:42.000Z</time>
</trkpt>
<trkpt lat="31.8130249" lon="35.0573055">
<ele>478.399994</ele>
<time>2021-09-24T04:50:43.000Z</time>
</trkpt>
<trkpt lat="31.8130197" lon="35.0573874">
<ele>477.799957</ele>
<time>2021-09-24T04:50:44.000Z</time>
</trkpt>
<trkpt lat="31.8130144" lon="35.0575429">
<ele>476.799988</ele>
<time>2021-09-24T04:50:46.000Z</time>
</trkpt>
<trkpt lat="31.8130196" lon="35.0576098">
<ele>476.399994</ele>
<time>2021-09-24T04:50:47.000Z</time>
</trkpt>
<trkpt lat="31.8130296" lon="35.0576695">
<ele>476.199982</ele>
<time>2021-09-24T04:50:48.000Z</time>
</trkpt>
<trkpt lat="31.8130481" lon="35.0577242">
<ele>475.200012</ele>
<time>2021-09-24T04:50:49.000Z</time>
</trkpt>
<trkpt lat="31.8130775" lon="35.0577678">
<ele>474.800018</ele>
<time>2021-09-24T04:50:50.000Z</time>
</trkpt>
<trkpt lat="31.8131151" lon="35.0577931">
<ele>474.200012</ele>
<time>2021-09-24T04:50:51.000Z</time>
</trkpt>
<trkpt lat="31.8131593" lon="35.0578014">
<ele>473.799988</ele>
<time>2021-09-24T04:50:52.000Z</time>
</trkpt>
<trkpt lat="31.8132106" lon="35.0577954">
<ele>473.200043</ele>
<time>2021-09-24T04:50:53.000Z</time>
</trkpt>
<trkpt lat="31.8132673" lon="35.0577821">
<ele>472.799988</ele>
<time>2021-09-24T04:50:54.000Z</time>
</trkpt>
<trkpt lat="31.8133881" lon="35.0577595">
<ele>472.200012</ele>
<time>2021-09-24T04:50:56.000Z</time>
</trkpt>
<trkpt lat="31.8134501" lon="35.0577615">
<ele>471.799988</ele>
<time>2021-09-24T04:50:57.000Z</time>
</trkpt>
<trkpt lat="31.8135084" lon="35.0577781">
<ele>471.600006</ele>
<time>2021-09-24T04:50:58.000Z</time>
</trkpt>
<trkpt lat="31.8135562" lon="35.0578131">
<ele>471.000000</ele>
<time>2021-09-24T04:50:59.000Z</time>
</trkpt>
<trkpt lat="31.8135927" lon="35.0578653">
<ele>470.600006</ele>
<time>2021-09-24T04:51:00.000Z</time>
</trkpt>
<trkpt lat="31.8136190" lon="35.0579287">
<ele>470.200012</ele>
<time>2021-09-24T04:51:01.000Z</time>
</trkpt>
<trkpt lat="31.8136383" lon="35.0580010">
<ele>469.799988</ele>
<time>2021-09-24T04:51:02.000Z</time>
</trkpt>
<trkpt lat="31.8136568" lon="35.0580802">
<ele>469.000000</ele>
<time>2021-09-24T04:51:03.000Z</time>
</trkpt>
<trkpt lat="31.8137152" lon="35.0583257">
<ele>466.600037</ele>
<time>2021-09-24T04:51:07.000Z</time>
</trkpt>
<trkpt lat="31.8137308" lon="35.0583547">
<ele>465.999969</ele>
<time>2021-09-24T04:51:08.000Z</time>
</trkpt>
<trkpt lat="31.8137521" lon="35.0583707">
<ele>465.600006</ele>
<time>2021-09-24T04:51:09.000Z</time>
</trkpt>
<trkpt lat="31.8137748" lon="35.0583762">
<ele>464.799988</ele>
<time>2021-09-24T04:51:10.000Z</time>
</trkpt>
<trkpt lat="31.8137937" lon="35.0583715">
<ele>464.200012</ele>
<time>2021-09-24T04:51:11.000Z</time>
</trkpt>
<trkpt lat="31.8138071" lon="35.0583572">
<ele>463.799957</ele>
<time>2021-09-24T04:51:12.000Z</time>
</trkpt>
<trkpt lat="31.8138150" lon="35.0583368">
<ele>463.399994</ele>
<time>2021-09-24T04:51:13.000Z</time>
</trkpt>
<trkpt lat="31.8138186" lon="35.0583144">
<ele>463.000031</ele>
<time>2021-09-24T04:51:14.000Z</time>
</trkpt>
<trkpt lat="31.8138198" lon="35.0582889">
<ele>462.600006</ele>
<time>2021-09-24T04:51:15.000Z</time>
</trkpt>
<trkpt lat="31.8138217" lon="35.0582604">
<ele>462.000000</ele>
<time>2021-09-24T04:51:16.000Z</time>
</trkpt>
<trkpt lat="31.8138239" lon="35.0582287">
<ele>461.799988</ele>
<time>2021-09-24T04:51:17.000Z</time>
</trkpt>
<trkpt lat="31.8138223" lon="35.0579624">
<ele>460.600006</ele>
<time>2021-09-24T04:51:23.000Z</time>
</trkpt>
<trkpt lat="31.8137648" lon="35.0575849">
<ele>459.600006</ele>
<time>2021-09-24T04:51:29.000Z</time>
</trkpt>
<trkpt lat="31.8136851" lon="35.0570848">
<ele>457.399994</ele>
<time>2021-09-24T04:51:37.000Z</time>
</trkpt>
<trkpt lat="31.8136794" lon="35.0569717">
<ele>457.000000</ele>
<time>2021-09-24T04:51:39.000Z</time>
</trkpt>
<trkpt lat="31.8137169" lon="35.0566161">
<ele>455.399994</ele>
<time>2021-09-24T04:51:44.000Z</time>
</trkpt>
<trkpt lat="31.8137434" lon="35.0562330">
<ele>454.600006</ele>
<time>2021-09-24T04:51:50.000Z</time>
</trkpt>
<trkpt lat="31.8137521" lon="35.0561724">
<ele>454.399994</ele>
<time>2021-09-24T04:51:51.000Z</time>
</trkpt>
<trkpt lat="31.8137931" lon="35.0558725">
<ele>453.200012</ele>
<time>2021-09-24T04:51:56.000Z</time>
</trkpt>
<trkpt lat="31.8138100" lon="35.0558201">
<ele>452.600006</ele>
<time>2021-09-24T04:51:57.000Z</time>
</trkpt>
<trkpt lat="31.8138311" lon="35.0557708">
<ele>452.399994</ele>
<time>2021-09-24T04:51:58.000Z</time>
</trkpt>
<trkpt lat="31.8138587" lon="35.0557255">
<ele>452.399994</ele>
<time>2021-09-24T04:51:59.000Z</time>
</trkpt>
<trkpt lat="31.8138918" lon="35.0556834">
<ele>452.399994</ele>
<time>2021-09-24T04:52:00.000Z</time>
</trkpt>
<trkpt lat="31.8139241" lon="35.0556433">
<ele>452.200012</ele>
<time>2021-09-24T04:52:01.000Z</time>
</trkpt>
<trkpt lat="31.8139467" lon="35.0556043">
<ele>452.200012</ele>
<time>2021-09-24T04:52:02.000Z</time>
</trkpt>
<trkpt lat="31.8139623" lon="35.0555626">
<ele>452.200012</ele>
<time>2021-09-24T04:52:03.000Z</time>
</trkpt>
<trkpt lat="31.8139700" lon="35.0555161">
<ele>452.200012</ele>
<time>2021-09-24T04:52:04.000Z</time>
</trkpt>
<trkpt lat="31.8139686" lon="35.0554666">
<ele>451.999969</ele>
<time>2021-09-24T04:52:05.000Z</time>
</trkpt>
<trkpt lat="31.8139573" lon="35.0554182">
<ele>451.799988</ele>
<time>2021-09-24T04:52:06.000Z</time>
</trkpt>
<trkpt lat="31.8139318" lon="35.0553673">
<ele>451.600006</ele>
<time>2021-09-24T04:52:07.000Z</time>
</trkpt>
<trkpt lat="31.8138966" lon="35.0553175">
<ele>451.399994</ele>
<time>2021-09-24T04:52:08.000Z</time>
</trkpt>
<trkpt lat="31.8138542" lon="35.0552728">
<ele>451.199982</ele>
<time>2021-09-24T04:52:09.000Z</time>
</trkpt>
<trkpt lat="31.8138094" lon="35.0552281">
<ele>451.000000</ele>
<time>2021-09-24T04:52:10.000Z</time>
</trkpt>
<trkpt lat="31.8137615" lon="35.0551796">
<ele>450.200012</ele>
<time>2021-09-24T04:52:11.000Z</time>
</trkpt>
<trkpt lat="31.8137171" lon="35.0551270">
<ele>449.800018</ele>
<time>2021-09-24T04:52:12.000Z</time>
</trkpt>
<trkpt lat="31.8136781" lon="35.0550667">
<ele>449.399994</ele>
<time>2021-09-24T04:52:13.000Z</time>
</trkpt>
<trkpt lat="31.8136440" lon="35.0550017">
<ele>448.799988</ele>
<time>2021-09-24T04:52:14.000Z</time>
</trkpt>
<trkpt lat="31.8134481" lon="35.0546259">
<ele>445.799988</ele>
<time>2021-09-24T04:52:20.000Z</time>
</trkpt>
<trkpt lat="31.8133704" lon="35.0545051">
<ele>445.200012</ele>
<time>2021-09-24T04:52:22.000Z</time>
</trkpt>
<trkpt lat="31.8133397" lon="35.0544420">
<ele>445.200012</ele>
<time>2021-09-24T04:52:23.000Z</time>
</trkpt>
<trkpt lat="31.8131705" lon="35.0540392">
<ele>442.200012</ele>
<time>2021-09-24T04:52:29.000Z</time>
</trkpt>
<trkpt lat="31.8131263" lon="35.0539756">
<ele>441.600037</ele>
<time>2021-09-24T04:52:30.000Z</time>
</trkpt>
<trkpt lat="31.8130763" lon="35.0539191">
<ele>440.999969</ele>
<time>2021-09-24T04:52:31.000Z</time>
</trkpt>
<trkpt lat="31.8130212" lon="35.0538734">
<ele>440.399994</ele>
<time>2021-09-24T04:52:32.000Z</time>
</trkpt>
<trkpt lat="31.8129604" lon="35.0538401">
<ele>440.000000</ele>
<time>2021-09-24T04:52:33.000Z</time>
</trkpt>
<trkpt lat="31.8128941" lon="35.0538110">
<ele>439.399994</ele>
<time>2021-09-24T04:52:34.000Z</time>
</trkpt>
<trkpt lat="31.8128281" lon="35.0537763">
<ele>438.799957</ele>
<time>2021-09-24T04:52:35.000Z</time>
</trkpt>
<trkpt lat="31.8127650" lon="35.0537350">
<ele>438.000031</ele>
<time>2021-09-24T04:52:36.000Z</time>
</trkpt>
<trkpt lat="31.8127067" lon="35.0536817">
<ele>436.799988</ele>
<time>2021-09-24T04:52:37.000Z</time>
</trkpt>
<trkpt lat="31.8126570" lon="35.0536180">
<ele>436.399994</ele>
<time>2021-09-24T04:52:38.000Z</time>
</trkpt>
<trkpt lat="31.8126174" lon="35.0535483">
<ele>436.000000</ele>
<time>2021-09-24T04:52:39.000Z</time>
</trkpt>
<trkpt lat="31.8125870" lon="35.0534726">
<ele>435.399994</ele>
<time>2021-09-24T04:52:40.000Z</time>
</trkpt>
<trkpt lat="31.8125624" lon="35.0533895">
<ele>434.799988</ele>
<time>2021-09-24T04:52:41.000Z</time>
</trkpt>
<trkpt lat="31.8125438" lon="35.0533001">
<ele>434.600006</ele>
<time>2021-09-24T04:52:42.000Z</time>
</trkpt>
<trkpt lat="31.8125324" lon="35.0532089">
<ele>434.200012</ele>
<time>2021-09-24T04:52:43.000Z</time>
</trkpt>
<trkpt lat="31.8125294" lon="35.0531167">
<ele>433.799988</ele>
<time>2021-09-24T04:52:44.000Z</time>
</trkpt>
<trkpt lat="31.8125319" lon="35.0530219">
<ele>433.399994</ele>
<time>2021-09-24T04:52:45.000Z</time>
</trkpt>
<trkpt lat="31.8125432" lon="35.0528293">
<ele>432.399994</ele>
<time>2021-09-24T04:52:47.000Z</time>
</trkpt>
<trkpt lat="31.8125415" lon="35.0527332">
<ele>432.000000</ele>
<time>2021-09-24T04:52:48.000Z</time>
</trkpt>
<trkpt lat="31.8125341" lon="35.0526352">
<ele>431.400024</ele>
<time>2021-09-24T04:52:49.000Z</time>
</trkpt>
<trkpt lat="31.8124783" lon="35.0521458">
<ele>428.200012</ele>
<time>2021-09-24T04:52:55.000Z</time>
</trkpt>
<trkpt lat="31.8124714" lon="35.0520712">
<ele>427.799957</ele>
<time>2021-09-24T04:52:56.000Z</time>
</trkpt>
<trkpt lat="31.8124724" lon="35.0519869">
<ele>427.600006</ele>
<time>2021-09-24T04:52:57.000Z</time>
</trkpt>
<trkpt lat="31.8125021" lon="35.0514579">
<ele>425.000000</ele>
<time>2021-09-24T04:53:03.000Z</time>
</trkpt>
<trkpt lat="31.8125174" lon="35.0513754">
<ele>425.000000</ele>
<time>2021-09-24T04:53:04.000Z</time>
</trkpt>
<trkpt lat="31.8125828" lon="35.0509900">
<ele>422.000000</ele>
<time>2021-09-24T04:53:09.000Z</time>
</trkpt>
<trkpt lat="31.8125956" lon="35.0504081">
<ele>418.799988</ele>
<time>2021-09-24T04:53:17.000Z</time>
</trkpt>
<trkpt lat="31.8126160" lon="35.0502717">
<ele>417.600006</ele>
<time>2021-09-24T04:53:19.000Z</time>
</trkpt>
<trkpt lat="31.8126337" lon="35.0502058">
<ele>417.200012</ele>
<time>2021-09-24T04:53:20.000Z</time>
</trkpt>
<trkpt lat="31.8126559" lon="35.0501414">
<ele>416.799988</ele>
<time>2021-09-24T04:53:21.000Z</time>
</trkpt>
<trkpt lat="31.8128355" lon="35.0497224">
<ele>415.600006</ele>
<time>2021-09-24T04:53:28.000Z</time>
</trkpt>
<trkpt lat="31.8128679" lon="35.0496603">
<ele>415.199982</ele>
<time>2021-09-24T04:53:29.000Z</time>
</trkpt>
<trkpt lat="31.8130990" lon="35.0491840">
<ele>412.799988</ele>
<time>2021-09-24T04:53:36.000Z</time>
</trkpt>
<trkpt lat="31.8131986" lon="35.0489901">
<ele>412.000000</ele>
<time>2021-09-24T04:53:39.000Z</time>
</trkpt>
<trkpt lat="31.8134799" lon="35.0486536">
<ele>409.799988</ele>
<time>2021-09-24T04:53:45.000Z</time>
</trkpt>
<trkpt lat="31.8135347" lon="35.0486019">
<ele>409.399963</ele>
<time>2021-09-24T04:53:46.000Z</time>
</trkpt>
<trkpt lat="31.8139199" lon="35.0482378">
<ele>407.200012</ele>
<time>2021-09-24T04:53:53.000Z</time>
</trkpt>
<trkpt lat="31.8141970" lon="35.0478854">
<ele>403.600006</ele>
<time>2021-09-24T04:53:59.000Z</time>
</trkpt>
<trkpt lat="31.8142420" lon="35.0478330">
<ele>403.400024</ele>
<time>2021-09-24T04:54:00.000Z</time>
</trkpt>
<trkpt lat="31.8146442" lon="35.0473727">
<ele>401.000000</ele>
<time>2021-09-24T04:54:09.000Z</time>
</trkpt>
<trkpt lat="31.8146957" lon="35.0473300">
<ele>400.600006</ele>
<time>2021-09-24T04:54:10.000Z</time>
</trkpt>
<trkpt lat="31.8150838" lon="35.0470583">
<ele>398.799988</ele>
<time>2021-09-24T04:54:17.000Z</time>
</trkpt>
<trkpt lat="31.8153382" lon="35.0468535">
<ele>397.600006</ele>
<time>2021-09-24T04:54:22.000Z</time>
</trkpt>
<trkpt lat="31.8153796" lon="35.0468006">
<ele>397.399994</ele>
<time>2021-09-24T04:54:23.000Z</time>
</trkpt>
<trkpt lat="31.8154498" lon="35.0466864">
<ele>397.000000</ele>
<time>2021-09-24T04:54:25.000Z</time>
</trkpt>
<trkpt lat="31.8154763" lon="35.0466232">
<ele>396.799988</ele>
<time>2021-09-24T04:54:26.000Z</time>
</trkpt>
<trkpt lat="31.8154977" lon="35.0465559">
<ele>396.799988</ele>
<time>2021-09-24T04:54:27.000Z</time>
</trkpt>
<trkpt lat="31.8156824" lon="35.0459283">
<ele>395.000000</ele>
<time>2021-09-24T04:54:36.000Z</time>
</trkpt>
<trkpt lat="31.8158084" lon="35.0454883">
<ele>393.799988</ele>
<time>2021-09-24T04:54:42.000Z</time>
</trkpt>
<trkpt lat="31.8158152" lon="35.0454225">
<ele>393.600006</ele>
<time>2021-09-24T04:54:43.000Z</time>
</trkpt>
<trkpt lat="31.8158125" lon="35.0453557">
<ele>393.399994</ele>
<time>2021-09-24T04:54:44.000Z</time>
</trkpt>
<trkpt lat="31.8158020" lon="35.0452868">
<ele>393.000000</ele>
<time>2021-09-24T04:54:45.000Z</time>
</trkpt>
<trkpt lat="31.8157903" lon="35.0452161">
<ele>392.799988</ele>
<time>2021-09-24T04:54:46.000Z</time>
</trkpt>
<trkpt lat="31.8157153" lon="35.0448144">
<ele>390.600006</ele>
<time>2021-09-24T04:54:52.000Z</time>
</trkpt>
<trkpt lat="31.8157115" lon="35.0447383">
<ele>390.000000</ele>
<time>2021-09-24T04:54:53.000Z</time>
</trkpt>
<trkpt lat="31.8157128" lon="35.0446623">
<ele>389.600006</ele>
<time>2021-09-24T04:54:54.000Z</time>
</trkpt>
<trkpt lat="31.8157144" lon="35.0445850">
<ele>389.399994</ele>
<time>2021-09-24T04:54:55.000Z</time>
</trkpt>
<trkpt lat="31.8157126" lon="35.0445071">
<ele>389.200012</ele>
<time>2021-09-24T04:54:56.000Z</time>
</trkpt>
<trkpt lat="31.8156779" lon="35.0440451">
<ele>387.600006</ele>
<time>2021-09-24T04:55:02.000Z</time>
</trkpt>
<trkpt lat="31.8155548" lon="35.0433976">
<ele>385.600006</ele>
<time>2021-09-24T04:55:10.000Z</time>
</trkpt>
<trkpt lat="31.8155588" lon="35.0433096">
<ele>385.399994</ele>
<time>2021-09-24T04:55:11.000Z</time>
</trkpt>
<trkpt lat="31.8155699" lon="35.0432231">
<ele>385.399994</ele>
<time>2021-09-24T04:55:12.000Z</time>
</trkpt>
<trkpt lat="31.8155920" lon="35.0431490">
<ele>385.200012</ele>
<time>2021-09-24T04:55:13.000Z</time>
</trkpt>
<trkpt lat="31.8156261" lon="35.0430879">
<ele>385.000031</ele>
<time>2021-09-24T04:55:14.000Z</time>
</trkpt>
<trkpt lat="31.8156630" lon="35.0430348">
<ele>384.799988</ele>
<time>2021-09-24T04:55:15.000Z</time>
</trkpt>
<trkpt lat="31.8159143" lon="35.0426090">
<ele>384.000000</ele>
<time>2021-09-24T04:55:23.000Z</time>
</trkpt>
<trkpt lat="31.8160650" lon="35.0421659">
<ele>382.799988</ele>
<time>2021-09-24T04:55:29.000Z</time>
</trkpt>
<trkpt lat="31.8161914" lon="35.0416548">
<ele>379.799988</ele>
<time>2021-09-24T04:55:35.000Z</time>
</trkpt>
<trkpt lat="31.8163010" lon="35.0412399">
<ele>376.600006</ele>
<time>2021-09-24T04:55:39.000Z</time>
</trkpt>
<trkpt lat="31.8164110" lon="35.0408841">
<ele>373.600006</ele>
<time>2021-09-24T04:55:42.000Z</time>
</trkpt>
<trkpt lat="31.8165032" lon="35.0405143">
<ele>370.399963</ele>
<time>2021-09-24T04:55:45.000Z</time>
</trkpt>
<trkpt lat="31.8166093" lon="35.0401419">
<ele>367.000000</ele>
<time>2021-09-24T04:55:48.000Z</time>
</trkpt>
<trkpt lat="31.8167791" lon="35.0395336">
<ele>363.399994</ele>
<time>2021-09-24T04:55:53.000Z</time>
</trkpt>
<trkpt lat="31.8169291" lon="35.0390803">
<ele>359.799988</ele>
<time>2021-09-24T04:55:57.000Z</time>
</trkpt>
<trkpt lat="31.8170982" lon="35.0386573">
<ele>356.399963</ele>
<time>2021-09-24T04:56:01.000Z</time>
</trkpt>
<trkpt lat="31.8174380" lon="35.0380948">
<ele>353.799988</ele>
<time>2021-09-24T04:56:07.000Z</time>
</trkpt>
<trkpt lat="31.8175065" lon="35.0380198">
<ele>353.400024</ele>
<time>2021-09-24T04:56:08.000Z</time>
</trkpt>
<trkpt lat="31.8175849" lon="35.0379553">
<ele>352.799957</ele>
<time>2021-09-24T04:56:09.000Z</time>
</trkpt>
<trkpt lat="31.8179691" lon="35.0376310">
<ele>350.000000</ele>
<time>2021-09-24T04:56:14.000Z</time>
</trkpt>
<trkpt lat="31.8180316" lon="35.0375503">
<ele>349.399994</ele>
<time>2021-09-24T04:56:15.000Z</time>
</trkpt>
<trkpt lat="31.8180846" lon="35.0374651">
<ele>348.799988</ele>
<time>2021-09-24T04:56:16.000Z</time>
</trkpt>
<trkpt lat="31.8181752" lon="35.0372861">
<ele>347.399994</ele>
<time>2021-09-24T04:56:18.000Z</time>
</trkpt>
<trkpt lat="31.8182110" lon="35.0371909">
<ele>347.000000</ele>
<time>2021-09-24T04:56:19.000Z</time>
</trkpt>
<trkpt lat="31.8184197" lon="35.0365366">
<ele>343.200012</ele>
<time>2021-09-24T04:56:26.000Z</time>
</trkpt>
<trkpt lat="31.8185188" lon="35.0360757">
<ele>341.399994</ele>
<time>2021-09-24T04:56:31.000Z</time>
</trkpt>
<trkpt lat="31.8185335" lon="35.0355331">
<ele>339.200012</ele>
<time>2021-09-24T04:56:37.000Z</time>
</trkpt>
<trkpt lat="31.8185565" lon="35.0354427">
<ele>338.399994</ele>
<time>2021-09-24T04:56:38.000Z</time>
</trkpt>
<trkpt lat="31.8185840" lon="35.0353552">
<ele>338.399994</ele>
<time>2021-09-24T04:56:39.000Z</time>
</trkpt>
<trkpt lat="31.8188362" lon="35.0347559">
<ele>335.800018</ele>
<time>2021-09-24T04:56:46.000Z</time>
</trkpt>
<trkpt lat="31.8188540" lon="35.0346660">
<ele>335.399994</ele>
<time>2021-09-24T04:56:47.000Z</time>
</trkpt>
<trkpt lat="31.8188549" lon="35.0345770">
<ele>335.200012</ele>
<time>2021-09-24T04:56:48.000Z</time>
</trkpt>
<trkpt lat="31.8188445" lon="35.0344887">
<ele>335.000031</ele>
<time>2021-09-24T04:56:49.000Z</time>
</trkpt>
<trkpt lat="31.8188261" lon="35.0344012">
<ele>334.799988</ele>
<time>2021-09-24T04:56:50.000Z</time>
</trkpt>
<trkpt lat="31.8188034" lon="35.0343147">
<ele>334.600006</ele>
<time>2021-09-24T04:56:51.000Z</time>
</trkpt>
<trkpt lat="31.8186839" lon="35.0335896">
<ele>331.200012</ele>
<time>2021-09-24T04:56:59.000Z</time>
</trkpt>
<trkpt lat="31.8186608" lon="35.0335011">
<ele>330.799988</ele>
<time>2021-09-24T04:57:00.000Z</time>
</trkpt>
<trkpt lat="31.8186270" lon="35.0334156">
<ele>330.399994</ele>
<time>2021-09-24T04:57:01.000Z</time>
</trkpt>
<trkpt lat="31.8185831" lon="35.0333357">
<ele>330.000000</ele>
<time>2021-09-24T04:57:02.000Z</time>
</trkpt>
<trkpt lat="31.8185325" lon="35.0332600">
<ele>329.600006</ele>
<time>2021-09-24T04:57:03.000Z</time>
</trkpt>
<trkpt lat="31.8184798" lon="35.0331872">
<ele>329.399994</ele>
<time>2021-09-24T04:57:04.000Z</time>
</trkpt>
<trkpt lat="31.8182627" lon="35.0327987">
<ele>327.600037</ele>
<time>2021-09-24T04:57:09.000Z</time>
</trkpt>
<trkpt lat="31.8182342" lon="35.0327148">
<ele>327.399994</ele>
<time>2021-09-24T04:57:10.000Z</time>
</trkpt>
<trkpt lat="31.8182109" lon="35.0326301">
<ele>327.200012</ele>
<time>2021-09-24T04:57:11.000Z</time>
</trkpt>
<trkpt lat="31.8181769" lon="35.0324547">
<ele>326.799988</ele>
<time>2021-09-24T04:57:13.000Z</time>
</trkpt>
<trkpt lat="31.8181709" lon="35.0323630">
<ele>326.399994</ele>
<time>2021-09-24T04:57:14.000Z</time>
</trkpt>
<trkpt lat="31.8181616" lon="35.0321778">
<ele>325.600006</ele>
<time>2021-09-24T04:57:16.000Z</time>
</trkpt>
<trkpt lat="31.8181466" lon="35.0320905">
<ele>325.000000</ele>
<time>2021-09-24T04:57:17.000Z</time>
</trkpt>
<trkpt lat="31.8181213" lon="35.0320068">
<ele>324.600006</ele>
<time>2021-09-24T04:57:18.000Z</time>
</trkpt>
<trkpt lat="31.8179160" lon="35.0314310">
<ele>322.000000</ele>
<time>2021-09-24T04:57:25.000Z</time>
</trkpt>
<trkpt lat="31.8178277" lon="35.0311911">
<ele>321.200012</ele>
<time>2021-09-24T04:57:28.000Z</time>
</trkpt>
<trkpt lat="31.8177454" lon="35.0310393">
<ele>320.799988</ele>
<time>2021-09-24T04:57:30.000Z</time>
</trkpt>
<trkpt lat="31.8175145" lon="35.0306738">
<ele>319.200012</ele>
<time>2021-09-24T04:57:35.000Z</time>
</trkpt>
<trkpt lat="31.8174814" lon="35.0305921">
<ele>318.799988</ele>
<time>2021-09-24T04:57:36.000Z</time>
</trkpt>
<trkpt lat="31.8174561" lon="35.0305078">
<ele>318.600006</ele>
<time>2021-09-24T04:57:37.000Z</time>
</trkpt>
<trkpt lat="31.8173706" lon="35.0301670">
<ele>316.799988</ele>
<time>2021-09-24T04:57:41.000Z</time>
</trkpt>
<trkpt lat="31.8172785" lon="35.0296647">
<ele>314.600006</ele>
<time>2021-09-24T04:57:47.000Z</time>
</trkpt>
<trkpt lat="31.8172834" lon="35.0295780">
<ele>314.600006</ele>
<time>2021-09-24T04:57:48.000Z</time>
</trkpt>
<trkpt lat="31.8174150" lon="35.0289887">
<ele>312.399994</ele>
<time>2021-09-24T04:57:55.000Z</time>
</trkpt>
<trkpt lat="31.8175327" lon="35.0284813">
<ele>310.000000</ele>
<time>2021-09-24T04:58:01.000Z</time>
</trkpt>
<trkpt lat="31.8175531" lon="35.0283957">
<ele>309.799988</ele>
<time>2021-09-24T04:58:02.000Z</time>
</trkpt>
<trkpt lat="31.8175858" lon="35.0283145">
<ele>309.600006</ele>
<time>2021-09-24T04:58:03.000Z</time>
</trkpt>
<trkpt lat="31.8176259" lon="35.0282392">
<ele>309.399994</ele>
<time>2021-09-24T04:58:04.000Z</time>
</trkpt>
<trkpt lat="31.8178474" lon="35.0277382">
<ele>307.600006</ele>
<time>2021-09-24T04:58:11.000Z</time>
</trkpt>
<trkpt lat="31.8179748" lon="35.0274520">
<ele>306.799988</ele>
<time>2021-09-24T04:58:15.000Z</time>
</trkpt>
<trkpt lat="31.8180126" lon="35.0273880">
<ele>306.799988</ele>
<time>2021-09-24T04:58:16.000Z</time>
</trkpt>
<trkpt lat="31.8180492" lon="35.0273238">
<ele>306.600006</ele>
<time>2021-09-24T04:58:17.000Z</time>
</trkpt>
<trkpt lat="31.8181751" lon="35.0269338">
<ele>305.799988</ele>
<time>2021-09-24T04:58:23.000Z</time>
</trkpt>
<trkpt lat="31.8181847" lon="35.0268747">
<ele>305.799988</ele>
<time>2021-09-24T04:58:24.000Z</time>
</trkpt>
<trkpt lat="31.8181856" lon="35.0264716">
<ele>305.200012</ele>
<time>2021-09-24T04:58:30.000Z</time>
</trkpt>
<trkpt lat="31.8181719" lon="35.0263970">
<ele>305.200012</ele>
<time>2021-09-24T04:58:31.000Z</time>
</trkpt>
<trkpt lat="31.8181113" lon="35.0260710">
<ele>304.600006</ele>
<time>2021-09-24T04:58:35.000Z</time>
</trkpt>
<trkpt lat="31.8181111" lon="35.0259816">
<ele>304.200012</ele>
<time>2021-09-24T04:58:36.000Z</time>
</trkpt>
<trkpt lat="31.8181177" lon="35.0258915">
<ele>303.799988</ele>
<time>2021-09-24T04:58:37.000Z</time>
</trkpt>
<trkpt lat="31.8181299" lon="35.0258010">
<ele>303.600006</ele>
<time>2021-09-24T04:58:38.000Z</time>
</trkpt>
<trkpt lat="31.8181475" lon="35.0257125">
<ele>303.200012</ele>
<time>2021-09-24T04:58:39.000Z</time>
</trkpt>
<trkpt lat="31.8181693" lon="35.0256258">
<ele>302.600006</ele>
<time>2021-09-24T04:58:40.000Z</time>
</trkpt>
<trkpt lat="31.8181936" lon="35.0255378">
<ele>302.200012</ele>
<time>2021-09-24T04:58:41.000Z</time>
</trkpt>
<trkpt lat="31.8183346" lon="35.0250995">
<ele>300.600006</ele>
<time>2021-09-24T04:58:46.000Z</time>
</trkpt>
<trkpt lat="31.8183790" lon="35.0250264">
<ele>300.399994</ele>
<time>2021-09-24T04:58:47.000Z</time>
</trkpt>
<trkpt lat="31.8184283" lon="35.0249582">
<ele>300.200012</ele>
<time>2021-09-24T04:58:48.000Z</time>
</trkpt>
<trkpt lat="31.8187003" lon="35.0245958">
<ele>298.399994</ele>
<time>2021-09-24T04:58:54.000Z</time>
</trkpt>
<trkpt lat="31.8187970" lon="35.0245033">
<ele>298.200012</ele>
<time>2021-09-24T04:58:56.000Z</time>
</trkpt>
<trkpt lat="31.8188471" lon="35.0244715">
<ele>298.200012</ele>
<time>2021-09-24T04:58:57.000Z</time>
</trkpt>
<trkpt lat="31.8188964" lon="35.0244517">
<ele>298.200012</ele>
<time>2021-09-24T04:58:58.000Z</time>
</trkpt>
<trkpt lat="31.8189423" lon="35.0244405">
<ele>298.000000</ele>
<time>2021-09-24T04:58:59.000Z</time>
</trkpt>
<trkpt lat="31.8189840" lon="35.0244325">
<ele>298.000000</ele>
<time>2021-09-24T04:59:00.000Z</time>
</trkpt>
<trkpt lat="31.8191313" lon="35.0244702">
<ele>298.200012</ele>
<time>2021-09-24T04:59:05.000Z</time>
</trkpt>
<trkpt lat="31.8192142" lon="35.0245929">
<ele>299.200012</ele>
<time>2021-09-24T04:59:12.000Z</time>
</trkpt>
<trkpt lat="31.8192825" lon="35.0247668">
<ele>300.600006</ele>
<time>2021-09-24T04:59:22.000Z</time>
</trkpt>
<trkpt lat="31.8193255" lon="35.0249256">
<ele>301.399994</ele>
<time>2021-09-24T04:59:30.000Z</time>
</trkpt>
<trkpt lat="31.8193961" lon="35.0250901">
<ele>301.200012</ele>
<time>2021-09-24T04:59:40.000Z</time>
</trkpt>
<trkpt lat="31.8194442" lon="35.0251985">
<ele>304.200012</ele>
<time>2021-09-24T04:59:47.000Z</time>
</trkpt>
<trkpt lat="31.8194679" lon="35.0252408">
<ele>303.000000</ele>
<time>2021-09-24T04:59:50.000Z</time>
</trkpt>
<trkpt lat="31.8194963" lon="35.0252932">
<ele>306.600006</ele>
<time>2021-09-24T04:59:53.000Z</time>
</trkpt>
<trkpt lat="31.8195986" lon="35.0254408">
<ele>306.799988</ele>
<time>2021-09-24T05:00:04.000Z</time>
</trkpt>
<trkpt lat="31.8197596" lon="35.0255410">
<ele>307.799988</ele>
<time>2021-09-24T05:00:15.000Z</time>
</trkpt>
<trkpt lat="31.8199321" lon="35.0256026">
<ele>308.799988</ele>
<time>2021-09-24T05:00:25.000Z</time>
</trkpt>
<trkpt lat="31.8201388" lon="35.0256528">
<ele>310.000000</ele>
<time>2021-09-24T05:00:36.000Z</time>
</trkpt>
<trkpt lat="31.8203237" lon="35.0256848">
<ele>310.600006</ele>
<time>2021-09-24T05:00:45.000Z</time>
</trkpt>
<trkpt lat="31.8204970" lon="35.0257418">
<ele>311.000000</ele>
<time>2021-09-24T05:00:54.000Z</time>
</trkpt>
<trkpt lat="31.8207535" lon="35.0258830">
<ele>311.200012</ele>
<time>2021-09-24T05:01:04.000Z</time>
</trkpt>
<trkpt lat="31.8210323" lon="35.0260849">
<ele>310.399994</ele>
<time>2021-09-24T05:01:12.000Z</time>
</trkpt>
<trkpt lat="31.8213541" lon="35.0262559">
<ele>309.200012</ele>
<time>2021-09-24T05:01:19.000Z</time>
</trkpt>
<trkpt lat="31.8218110" lon="35.0264765">
<ele>307.200012</ele>
<time>2021-09-24T05:01:28.000Z</time>
</trkpt>
<trkpt lat="31.8223344" lon="35.0267383">
<ele>305.000000</ele>
<time>2021-09-24T05:01:37.000Z</time>
</trkpt>
<trkpt lat="31.8224596" lon="35.0268129">
<ele>304.200012</ele>
<time>2021-09-24T05:01:39.000Z</time>
</trkpt>
<trkpt lat="31.8229331" lon="35.0270351">
<ele>301.000000</ele>
<time>2021-09-24T05:01:46.000Z</time>
</trkpt>
<trkpt lat="31.8232655" lon="35.0272666">
<ele>300.000000</ele>
<time>2021-09-24T05:01:53.000Z</time>
</trkpt>
<trkpt lat="31.8235664" lon="35.0275947">
<ele>300.000000</ele>
<time>2021-09-24T05:02:03.000Z</time>
</trkpt>
<trkpt lat="31.8238287" lon="35.0278917">
<ele>300.799988</ele>
<time>2021-09-24T05:02:13.000Z</time>
</trkpt>
<trkpt lat="31.8240254" lon="35.0281338">
<ele>301.000000</ele>
<time>2021-09-24T05:02:21.000Z</time>
</trkpt>
<trkpt lat="31.8242570" lon="35.0284236">
<ele>302.000000</ele>
<time>2021-09-24T05:02:31.000Z</time>
</trkpt>
<trkpt lat="31.8244261" lon="35.0286385">
<ele>302.399994</ele>
<time>2021-09-24T05:02:39.000Z</time>
</trkpt>
<trkpt lat="31.8246425" lon="35.0288936">
<ele>303.799988</ele>
<time>2021-09-24T05:02:49.000Z</time>
</trkpt>
<trkpt lat="31.8248407" lon="35.0291264">
<ele>304.399994</ele>
<time>2021-09-24T05:02:59.000Z</time>
</trkpt>
<trkpt lat="31.8250403" lon="35.0293520">
<ele>305.600006</ele>
<time>2021-09-24T05:03:10.000Z</time>
</trkpt>
<trkpt lat="31.8252644" lon="35.0295944">
<ele>306.399994</ele>
<time>2021-09-24T05:03:22.000Z</time>
</trkpt>
<trkpt lat="31.8254335" lon="35.0297710">
<ele>307.200012</ele>
<time>2021-09-24T05:03:31.000Z</time>
</trkpt>
<trkpt lat="31.8255554" lon="35.0299286">
<ele>307.799988</ele>
<time>2021-09-24T05:03:38.000Z</time>
</trkpt>
<trkpt lat="31.8257299" lon="35.0301400">
<ele>308.399994</ele>
<time>2021-09-24T05:03:47.000Z</time>
</trkpt>
<trkpt lat="31.8259729" lon="35.0304313">
<ele>309.399994</ele>
<time>2021-09-24T05:03:59.000Z</time>
</trkpt>
<trkpt lat="31.8262049" lon="35.0307017">
<ele>310.200012</ele>
<time>2021-09-24T05:04:10.000Z</time>
</trkpt>
<trkpt lat="31.8264669" lon="35.0308968">
<ele>310.399994</ele>
<time>2021-09-24T05:04:19.000Z</time>
</trkpt>
<trkpt lat="31.8267814" lon="35.0309812">
<ele>310.200012</ele>
<time>2021-09-24T05:04:27.000Z</time>
</trkpt>
<trkpt lat="31.8271094" lon="35.0310167">
<ele>309.799988</ele>
<time>2021-09-24T05:04:35.000Z</time>
</trkpt>
<trkpt lat="31.8274231" lon="35.0309908">
<ele>310.200012</ele>
<time>2021-09-24T05:04:43.000Z</time>
</trkpt>
<trkpt lat="31.8276943" lon="35.0309540">
<ele>310.399994</ele>
<time>2021-09-24T05:04:51.000Z</time>
</trkpt>
<trkpt lat="31.8280120" lon="35.0309373">
<ele>311.399994</ele>
<time>2021-09-24T05:05:02.000Z</time>
</trkpt>
<trkpt lat="31.8282407" lon="35.0309175">
<ele>312.600006</ele>
<time>2021-09-24T05:05:12.000Z</time>
</trkpt>
<trkpt lat="31.8284516" lon="35.0309006">
<ele>314.000000</ele>
<time>2021-09-24T05:05:22.000Z</time>
</trkpt>
<trkpt lat="31.8286214" lon="35.0308807">
<ele>315.399994</ele>
<time>2021-09-24T05:05:31.000Z</time>
</trkpt>
<trkpt lat="31.8288651" lon="35.0308709">
<ele>317.000000</ele>
<time>2021-09-24T05:05:43.000Z</time>
</trkpt>
<trkpt lat="31.8290737" lon="35.0308866">
<ele>318.600006</ele>
<time>2021-09-24T05:05:54.000Z</time>
</trkpt>
<trkpt lat="31.8292696" lon="35.0309320">
<ele>319.599976</ele>
<time>2021-09-24T05:06:04.000Z</time>
</trkpt>
<trkpt lat="31.8294357" lon="35.0310059">
<ele>320.799988</ele>
<time>2021-09-24T05:06:13.000Z</time>
</trkpt>
<trkpt lat="31.8296340" lon="35.0311399">
<ele>322.200012</ele>
<time>2021-09-24T05:06:24.000Z</time>
</trkpt>
<trkpt lat="31.8298648" lon="35.0313130">
<ele>322.600006</ele>
<time>2021-09-24T05:06:32.000Z</time>
</trkpt>
<trkpt lat="31.8300429" lon="35.0314654">
<ele>322.200012</ele>
<time>2021-09-24T05:06:38.000Z</time>
</trkpt>
<trkpt lat="31.8302537" lon="35.0316269">
<ele>322.399994</ele>
<time>2021-09-24T05:06:45.000Z</time>
</trkpt>
<trkpt lat="31.8303715" lon="35.0317139">
<ele>323.600006</ele>
<time>2021-09-24T05:06:53.000Z</time>
</trkpt>
<trkpt lat="31.8304651" lon="35.0317935">
<ele>325.600006</ele>
<time>2021-09-24T05:07:01.000Z</time>
</trkpt>
<trkpt lat="31.8305567" lon="35.0318541">
<ele>326.999969</ele>
<time>2021-09-24T05:07:09.000Z</time>
</trkpt>
<trkpt lat="31.8305848" lon="35.0318774">
<ele>327.600037</ele>
<time>2021-09-24T05:07:12.000Z</time>
</trkpt>
<trkpt lat="31.8305982" lon="35.0318818">
<ele>327.799988</ele>
<time>2021-09-24T05:07:13.000Z</time>
</trkpt>
<trkpt lat="31.8306112" lon="35.0318882">
<ele>328.000000</ele>
<time>2021-09-24T05:07:14.000Z</time>
</trkpt>
<trkpt lat="31.8306879" lon="35.0319487">
<ele>329.200012</ele>
<time>2021-09-24T05:07:21.000Z</time>
</trkpt>
<trkpt lat="31.8307014" lon="35.0319554">
<ele>329.399994</ele>
<time>2021-09-24T05:07:22.000Z</time>
</trkpt>
<trkpt lat="31.8308253" lon="35.0320327">
<ele>330.399994</ele>
<time>2021-09-24T05:07:31.000Z</time>
</trkpt>
<trkpt lat="31.8309575" lon="35.0321076">
<ele>331.399963</ele>
<time>2021-09-24T05:07:41.000Z</time>
</trkpt>
<trkpt lat="31.8309691" lon="35.0321076">
<ele>331.600006</ele>
<time>2021-09-24T05:07:42.000Z</time>
</trkpt>
<trkpt lat="31.8309815" lon="35.0321050">
<ele>331.799988</ele>
<time>2021-09-24T05:07:43.000Z</time>
</trkpt>
<trkpt lat="31.8309953" lon="35.0321010">
<ele>331.799988</ele>
<time>2021-09-24T05:07:44.000Z</time>
</trkpt>
<trkpt lat="31.8310096" lon="35.0320930">
<ele>332.000000</ele>
<time>2021-09-24T05:07:45.000Z</time>
</trkpt>
<trkpt lat="31.8310228" lon="35.0320796">
<ele>332.000000</ele>
<time>2021-09-24T05:07:46.000Z</time>
</trkpt>
<trkpt lat="31.8310344" lon="35.0320619">
<ele>332.200012</ele>
<time>2021-09-24T05:07:47.000Z</time>
</trkpt>
<trkpt lat="31.8310454" lon="35.0320401">
<ele>332.200012</ele>
<time>2021-09-24T05:07:48.000Z</time>
</trkpt>
<trkpt lat="31.8311300" lon="35.0318538">
<ele>332.799988</ele>
<time>2021-09-24T05:07:56.000Z</time>
</trkpt>
<trkpt lat="31.8312130" lon="35.0315482">
<ele>333.200012</ele>
<time>2021-09-24T05:08:07.000Z</time>
</trkpt>
<trkpt lat="31.8311773" lon="35.0313018">
<ele>333.799988</ele>
<time>2021-09-24T05:08:17.000Z</time>
</trkpt>
<trkpt lat="31.8311086" lon="35.0310695">
<ele>334.600006</ele>
<time>2021-09-24T05:08:27.000Z</time>
</trkpt>
<trkpt lat="31.8310296" lon="35.0308350">
<ele>335.000031</ele>
<time>2021-09-24T05:08:37.000Z</time>
</trkpt>
<trkpt lat="31.8309172" lon="35.0305971">
<ele>335.399994</ele>
<time>2021-09-24T05:08:47.000Z</time>
</trkpt>
<trkpt lat="31.8307456" lon="35.0304053">
<ele>336.000000</ele>
<time>2021-09-24T05:08:57.000Z</time>
</trkpt>
<trkpt lat="31.8304925" lon="35.0302442">
<ele>337.000000</ele>
<time>2021-09-24T05:09:09.000Z</time>
</trkpt>
<trkpt lat="31.8302636" lon="35.0301155">
<ele>337.799988</ele>
<time>2021-09-24T05:09:20.000Z</time>
</trkpt>
<trkpt lat="31.8300048" lon="35.0299475">
<ele>338.600006</ele>
<time>2021-09-24T05:09:32.000Z</time>
</trkpt>
<trkpt lat="31.8298302" lon="35.0297413">
<ele>339.399994</ele>
<time>2021-09-24T05:09:42.000Z</time>
</trkpt>
<trkpt lat="31.8297529" lon="35.0295144">
<ele>339.799988</ele>
<time>2021-09-24T05:09:51.000Z</time>
</trkpt>
<trkpt lat="31.8297370" lon="35.0292872">
<ele>340.399994</ele>
<time>2021-09-24T05:10:00.000Z</time>
</trkpt>
<trkpt lat="31.8297365" lon="35.0290708">
<ele>341.600037</ele>
<time>2021-09-24T05:10:09.000Z</time>
</trkpt>
<trkpt lat="31.8297346" lon="35.0288799">
<ele>342.200012</ele>
<time>2021-09-24T05:10:17.000Z</time>
</trkpt>
<trkpt lat="31.8296999" lon="35.0286952">
<ele>343.200012</ele>
<time>2021-09-24T05:10:26.000Z</time>
</trkpt>
<trkpt lat="31.8295976" lon="35.0285323">
<ele>344.000000</ele>
<time>2021-09-24T05:10:35.000Z</time>
</trkpt>
<trkpt lat="31.8294881" lon="35.0284406">
<ele>345.200012</ele>
<time>2021-09-24T05:10:43.000Z</time>
</trkpt>
<trkpt lat="31.8293411" lon="35.0283572">
<ele>346.800018</ele>
<time>2021-09-24T05:10:53.000Z</time>
</trkpt>
<trkpt lat="31.8291780" lon="35.0282612">
<ele>348.200043</ele>
<time>2021-09-24T05:11:04.000Z</time>
</trkpt>
<trkpt lat="31.8290585" lon="35.0281593">
<ele>349.399994</ele>
<time>2021-09-24T05:11:13.000Z</time>
</trkpt>
<trkpt lat="31.8289268" lon="35.0279981">
<ele>350.399994</ele>
<time>2021-09-24T05:11:24.000Z</time>
</trkpt>
<trkpt lat="31.8288743" lon="35.0278887">
<ele>351.799988</ele>
<time>2021-09-24T05:11:32.000Z</time>
</trkpt>
<trkpt lat="31.8288067" lon="35.0277225">
<ele>349.600006</ele>
<time>2021-09-24T05:11:44.000Z</time>
</trkpt>
<trkpt lat="31.8287939" lon="35.0276937">
<ele>353.600006</ele>
<time>2021-09-24T05:11:46.000Z</time>
</trkpt>
<trkpt lat="31.8287882" lon="35.0276605">
<ele>357.000000</ele>
<time>2021-09-24T05:11:48.000Z</time>
</trkpt>
<trkpt lat="31.8287549" lon="35.0274633">
<ele>357.000000</ele>
<time>2021-09-24T05:12:00.000Z</time>
</trkpt>
<trkpt lat="31.8287300" lon="35.0273009">
<ele>357.399994</ele>
<time>2021-09-24T05:12:09.000Z</time>
</trkpt>
<trkpt lat="31.8287257" lon="35.0271083">
<ele>359.000000</ele>
<time>2021-09-24T05:12:20.000Z</time>
</trkpt>
<trkpt lat="31.8287354" lon="35.0269158">
<ele>360.399994</ele>
<time>2021-09-24T05:12:31.000Z</time>
</trkpt>
<trkpt lat="31.8287824" lon="35.0267565">
<ele>361.799988</ele>
<time>2021-09-24T05:12:40.000Z</time>
</trkpt>
<trkpt lat="31.8288615" lon="35.0266498">
<ele>362.999969</ele>
<time>2021-09-24T05:12:48.000Z</time>
</trkpt>
<trkpt lat="31.8289689" lon="35.0265526">
<ele>364.200012</ele>
<time>2021-09-24T05:12:57.000Z</time>
</trkpt>
<trkpt lat="31.8289833" lon="35.0265475">
<ele>364.200012</ele>
<time>2021-09-24T05:12:58.000Z</time>
</trkpt>
<trkpt lat="31.8289965" lon="35.0265439">
<ele>364.200012</ele>
<time>2021-09-24T05:12:59.000Z</time>
</trkpt>
<trkpt lat="31.8290078" lon="35.0265421">
<ele>364.399994</ele>
<time>2021-09-24T05:13:00.000Z</time>
</trkpt>
<trkpt lat="31.8290415" lon="35.0265349">
<ele>364.600006</ele>
<time>2021-09-24T05:13:04.000Z</time>
</trkpt>
<trkpt lat="31.8290514" lon="35.0265441">
<ele>364.799988</ele>
<time>2021-09-24T05:13:05.000Z</time>
</trkpt>
<trkpt lat="31.8290589" lon="35.0265599">
<ele>364.799988</ele>
<time>2021-09-24T05:13:06.000Z</time>
</trkpt>
<trkpt lat="31.8290678" lon="35.0266113">
<ele>364.799988</ele>
<time>2021-09-24T05:13:11.000Z</time>
</trkpt>
<trkpt lat="31.8290680" lon="35.0266115">
<ele>365.000000</ele>
<time>2021-09-24T05:13:13.000Z</time>
</trkpt>
<trkpt lat="31.8290428" lon="35.0265702">
<ele>363.799957</ele>
<time>2021-09-24T05:27:31.000Z</time>
</trkpt>
<trkpt lat="31.8290424" lon="35.0265686">
<ele>364.399994</ele>
<time>2021-09-24T05:27:34.000Z</time>
</trkpt>
<trkpt lat="31.8290196" lon="35.0264719">
<ele>364.799988</ele>
<time>2021-09-24T05:29:52.000Z</time>
</trkpt>
<trkpt lat="31.8290115" lon="35.0264505">
<ele>364.799988</ele>
<time>2021-09-24T05:29:53.000Z</time>
</trkpt>
<trkpt lat="31.8290019" lon="35.0264296">
<ele>364.799988</ele>
<time>2021-09-24T05:29:54.000Z</time>
</trkpt>
<trkpt lat="31.8289886" lon="35.0264059">
<ele>364.799988</ele>
<time>2021-09-24T05:29:55.000Z</time>
</trkpt>
<trkpt lat="31.8289686" lon="35.0263761">
<ele>364.600006</ele>
<time>2021-09-24T05:29:56.000Z</time>
</trkpt>
<trkpt lat="31.8289400" lon="35.0263392">
<ele>364.600006</ele>
<time>2021-09-24T05:29:57.000Z</time>
</trkpt>
<trkpt lat="31.8289043" lon="35.0263007">
<ele>364.399994</ele>
<time>2021-09-24T05:29:58.000Z</time>
</trkpt>
<trkpt lat="31.8288622" lon="35.0262645">
<ele>364.399994</ele>
<time>2021-09-24T05:29:59.000Z</time>
</trkpt>
<trkpt lat="31.8288146" lon="35.0262270">
<ele>364.200012</ele>
<time>2021-09-24T05:30:00.000Z</time>
</trkpt>
<trkpt lat="31.8285451" lon="35.0259420">
<ele>362.399994</ele>
<time>2021-09-24T05:30:05.000Z</time>
</trkpt>
<trkpt lat="31.8282324" lon="35.0255133">
<ele>359.399994</ele>
<time>2021-09-24T05:30:10.000Z</time>
</trkpt>
<trkpt lat="31.8279326" lon="35.0250150">
<ele>356.000000</ele>
<time>2021-09-24T05:30:15.000Z</time>
</trkpt>
<trkpt lat="31.8275968" lon="35.0245647">
<ele>352.600037</ele>
<time>2021-09-24T05:30:20.000Z</time>
</trkpt>
<trkpt lat="31.8273884" lon="35.0242918">
<ele>349.399994</ele>
<time>2021-09-24T05:30:23.000Z</time>
</trkpt>
<trkpt lat="31.8271232" lon="35.0239625">
<ele>346.200012</ele>
<time>2021-09-24T05:30:27.000Z</time>
</trkpt>
<trkpt lat="31.8270751" lon="35.0238849">
<ele>345.399963</ele>
<time>2021-09-24T05:30:28.000Z</time>
</trkpt>
<trkpt lat="31.8270382" lon="35.0238008">
<ele>344.599976</ele>
<time>2021-09-24T05:30:29.000Z</time>
</trkpt>
<trkpt lat="31.8270141" lon="35.0237120">
<ele>344.000000</ele>
<time>2021-09-24T05:30:30.000Z</time>
</trkpt>
<trkpt lat="31.8270036" lon="35.0236204">
<ele>343.600006</ele>
<time>2021-09-24T05:30:31.000Z</time>
</trkpt>
<trkpt lat="31.8270053" lon="35.0235269">
<ele>343.000000</ele>
<time>2021-09-24T05:30:32.000Z</time>
</trkpt>
<trkpt lat="31.8270156" lon="35.0234301">
<ele>342.400024</ele>
<time>2021-09-24T05:30:33.000Z</time>
</trkpt>
<trkpt lat="31.8270332" lon="35.0233309">
<ele>342.000000</ele>
<time>2021-09-24T05:30:34.000Z</time>
</trkpt>
<trkpt lat="31.8270594" lon="35.0232326">
<ele>341.600037</ele>
<time>2021-09-24T05:30:35.000Z</time>
</trkpt>
<trkpt lat="31.8270941" lon="35.0231369">
<ele>340.600006</ele>
<time>2021-09-24T05:30:36.000Z</time>
</trkpt>
<trkpt lat="31.8271379" lon="35.0230430">
<ele>340.200012</ele>
<time>2021-09-24T05:30:37.000Z</time>
</trkpt>
<trkpt lat="31.8271890" lon="35.0229533">
<ele>339.600006</ele>
<time>2021-09-24T05:30:38.000Z</time>
</trkpt>
<trkpt lat="31.8272478" lon="35.0228689">
<ele>339.000000</ele>
<time>2021-09-24T05:30:39.000Z</time>
</trkpt>
<trkpt lat="31.8273129" lon="35.0227893">
<ele>338.399994</ele>
<time>2021-09-24T05:30:40.000Z</time>
</trkpt>
<trkpt lat="31.8273833" lon="35.0227125">
<ele>337.999969</ele>
<time>2021-09-24T05:30:41.000Z</time>
</trkpt>
<trkpt lat="31.8277313" lon="35.0222802">
<ele>335.000031</ele>
<time>2021-09-24T05:30:46.000Z</time>
</trkpt>
<trkpt lat="31.8278318" lon="35.0220708">
<ele>334.000000</ele>
<time>2021-09-24T05:30:48.000Z</time>
</trkpt>
<trkpt lat="31.8278675" lon="35.0219603">
<ele>333.200012</ele>
<time>2021-09-24T05:30:49.000Z</time>
</trkpt>
<trkpt lat="31.8279899" lon="35.0213987">
<ele>330.200012</ele>
<time>2021-09-24T05:30:54.000Z</time>
</trkpt>
<trkpt lat="31.8280404" lon="35.0206731">
<ele>326.799988</ele>
<time>2021-09-24T05:31:00.000Z</time>
</trkpt>
<trkpt lat="31.8280790" lon="35.0201728">
<ele>323.600006</ele>
<time>2021-09-24T05:31:04.000Z</time>
</trkpt>
<trkpt lat="31.8281078" lon="35.0199365">
<ele>322.200012</ele>
<time>2021-09-24T05:31:06.000Z</time>
</trkpt>
<trkpt lat="31.8281340" lon="35.0198259">
<ele>321.399994</ele>
<time>2021-09-24T05:31:07.000Z</time>
</trkpt>
<trkpt lat="31.8281673" lon="35.0197207">
<ele>320.799988</ele>
<time>2021-09-24T05:31:08.000Z</time>
</trkpt>
<trkpt lat="31.8282074" lon="35.0196230">
<ele>320.200012</ele>
<time>2021-09-24T05:31:09.000Z</time>
</trkpt>
<trkpt lat="31.8282545" lon="35.0195379">
<ele>319.599976</ele>
<time>2021-09-24T05:31:10.000Z</time>
</trkpt>
<trkpt lat="31.8283086" lon="35.0194677">
<ele>319.000000</ele>
<time>2021-09-24T05:31:11.000Z</time>
</trkpt>
<trkpt lat="31.8283696" lon="35.0194114">
<ele>318.000000</ele>
<time>2021-09-24T05:31:12.000Z</time>
</trkpt>
<trkpt lat="31.8284350" lon="35.0193653">
<ele>317.400024</ele>
<time>2021-09-24T05:31:13.000Z</time>
</trkpt>
<trkpt lat="31.8285028" lon="35.0193300">
<ele>317.000000</ele>
<time>2021-09-24T05:31:14.000Z</time>
</trkpt>
<trkpt lat="31.8285691" lon="35.0193046">
<ele>316.000000</ele>
<time>2021-09-24T05:31:15.000Z</time>
</trkpt>
<trkpt lat="31.8286319" lon="35.0192897">
<ele>315.200012</ele>
<time>2021-09-24T05:31:16.000Z</time>
</trkpt>
<trkpt lat="31.8286902" lon="35.0192838">
<ele>314.600006</ele>
<time>2021-09-24T05:31:17.000Z</time>
</trkpt>
<trkpt lat="31.8287423" lon="35.0192841">
<ele>314.200012</ele>
<time>2021-09-24T05:31:18.000Z</time>
</trkpt>
<trkpt lat="31.8287879" lon="35.0192884">
<ele>314.000000</ele>
<time>2021-09-24T05:31:19.000Z</time>
</trkpt>
<trkpt lat="31.8289314" lon="35.0193090">
<ele>313.600006</ele>
<time>2021-09-24T05:31:24.000Z</time>
</trkpt>
<trkpt lat="31.8291343" lon="35.0193578">
<ele>315.600006</ele>
<time>2021-09-24T05:31:35.000Z</time>
</trkpt>
<trkpt lat="31.8292636" lon="35.0193961">
<ele>316.600037</ele>
<time>2021-09-24T05:31:42.000Z</time>
</trkpt>
<trkpt lat="31.8293860" lon="35.0194179">
<ele>318.000000</ele>
<time>2021-09-24T05:31:50.000Z</time>
</trkpt>
<trkpt lat="31.8295619" lon="35.0194254">
<ele>320.200012</ele>
<time>2021-09-24T05:32:01.000Z</time>
</trkpt>
<trkpt lat="31.8297139" lon="35.0194130">
<ele>321.399994</ele>
<time>2021-09-24T05:32:11.000Z</time>
</trkpt>
<trkpt lat="31.8298805" lon="35.0193977">
<ele>323.000000</ele>
<time>2021-09-24T05:32:22.000Z</time>
</trkpt>
<trkpt lat="31.8299672" lon="35.0193866">
<ele>323.799988</ele>
<time>2021-09-24T05:32:28.000Z</time>
</trkpt>
<trkpt lat="31.8299812" lon="35.0193832">
<ele>323.999969</ele>
<time>2021-09-24T05:32:29.000Z</time>
</trkpt>
<trkpt lat="31.8301434" lon="35.0193658">
<ele>325.600006</ele>
<time>2021-09-24T05:32:40.000Z</time>
</trkpt>
<trkpt lat="31.8302540" lon="35.0193634">
<ele>326.799988</ele>
<time>2021-09-24T05:32:49.000Z</time>
</trkpt>
<trkpt lat="31.8303630" lon="35.0193710">
<ele>328.200012</ele>
<time>2021-09-24T05:32:58.000Z</time>
</trkpt>
<trkpt lat="31.8305139" lon="35.0194051">
<ele>329.600006</ele>
<time>2021-09-24T05:33:07.000Z</time>
</trkpt>
<trkpt lat="31.8306233" lon="35.0194355">
<ele>330.799988</ele>
<time>2021-09-24T05:33:16.000Z</time>
</trkpt>
<trkpt lat="31.8307135" lon="35.0194722">
<ele>332.799988</ele>
<time>2021-09-24T05:33:24.000Z</time>
</trkpt>
<trkpt lat="31.8308456" lon="35.0195260">
<ele>335.000031</ele>
<time>2021-09-24T05:33:36.000Z</time>
</trkpt>
<trkpt lat="31.8309520" lon="35.0195842">
<ele>336.600006</ele>
<time>2021-09-24T05:33:46.000Z</time>
</trkpt>
<trkpt lat="31.8310469" lon="35.0196328">
<ele>337.799988</ele>
<time>2021-09-24T05:33:55.000Z</time>
</trkpt>
<trkpt lat="31.8311550" lon="35.0197065">
<ele>338.399994</ele>
<time>2021-09-24T05:34:02.000Z</time>
</trkpt>
<trkpt lat="31.8312475" lon="35.0197682">
<ele>339.799988</ele>
<time>2021-09-24T05:34:10.000Z</time>
</trkpt>
<trkpt lat="31.8313315" lon="35.0198302">
<ele>341.000000</ele>
<time>2021-09-24T05:34:18.000Z</time>
</trkpt>
<trkpt lat="31.8313750" lon="35.0198671">
<ele>341.799988</ele>
<time>2021-09-24T05:34:23.000Z</time>
</trkpt>
<trkpt lat="31.8314579" lon="35.0199392">
<ele>343.200012</ele>
<time>2021-09-24T05:34:32.000Z</time>
</trkpt>
<trkpt lat="31.8315741" lon="35.0200411">
<ele>345.000000</ele>
<time>2021-09-24T05:34:44.000Z</time>
</trkpt>
<trkpt lat="31.8316608" lon="35.0201272">
<ele>346.600006</ele>
<time>2021-09-24T05:34:54.000Z</time>
</trkpt>
<trkpt lat="31.8317626" lon="35.0202258">
<ele>348.000000</ele>
<time>2021-09-24T05:35:04.000Z</time>
</trkpt>
<trkpt lat="31.8318531" lon="35.0203052">
<ele>349.399994</ele>
<time>2021-09-24T05:35:13.000Z</time>
</trkpt>
<trkpt lat="31.8319559" lon="35.0204058">
<ele>351.199982</ele>
<time>2021-09-24T05:35:23.000Z</time>
</trkpt>
<trkpt lat="31.8320805" lon="35.0205166">
<ele>353.400024</ele>
<time>2021-09-24T05:35:34.000Z</time>
</trkpt>
<trkpt lat="31.8320895" lon="35.0205299">
<ele>353.600006</ele>
<time>2021-09-24T05:35:35.000Z</time>
</trkpt>
<trkpt lat="31.8320995" lon="35.0205419">
<ele>353.799988</ele>
<time>2021-09-24T05:35:36.000Z</time>
</trkpt>
<trkpt lat="31.8322045" lon="35.0206671">
<ele>355.200012</ele>
<time>2021-09-24T05:35:46.000Z</time>
</trkpt>
<trkpt lat="31.8322796" lon="35.0207520">
<ele>355.799988</ele>
<time>2021-09-24T05:35:52.000Z</time>
</trkpt>
<trkpt lat="31.8323760" lon="35.0208587">
<ele>357.600006</ele>
<time>2021-09-24T05:36:02.000Z</time>
</trkpt>
<trkpt lat="31.8324722" lon="35.0209671">
<ele>359.200043</ele>
<time>2021-09-24T05:36:12.000Z</time>
</trkpt>
<trkpt lat="31.8325543" lon="35.0210550">
<ele>360.600006</ele>
<time>2021-09-24T05:36:20.000Z</time>
</trkpt>
<trkpt lat="31.8326232" lon="35.0211547">
<ele>362.000000</ele>
<time>2021-09-24T05:36:29.000Z</time>
</trkpt>
<trkpt lat="31.8327277" lon="35.0212946">
<ele>363.799957</ele>
<time>2021-09-24T05:36:42.000Z</time>
</trkpt>
<trkpt lat="31.8327774" lon="35.0213661">
<ele>364.000000</ele>
<time>2021-09-24T05:36:47.000Z</time>
</trkpt>
<trkpt lat="31.8327800" lon="35.0213839">
<ele>364.200012</ele>
<time>2021-09-24T05:36:48.000Z</time>
</trkpt>
<trkpt lat="31.8328241" lon="35.0215519">
<ele>366.200012</ele>
<time>2021-09-24T05:36:59.000Z</time>
</trkpt>
<trkpt lat="31.8328413" lon="35.0216503">
<ele>367.400024</ele>
<time>2021-09-24T05:37:06.000Z</time>
</trkpt>
<trkpt lat="31.8328425" lon="35.0216625">
<ele>367.400024</ele>
<time>2021-09-24T05:37:07.000Z</time>
</trkpt>
<trkpt lat="31.8328460" lon="35.0216748">
<ele>367.799988</ele>
<time>2021-09-24T05:37:08.000Z</time>
</trkpt>
<trkpt lat="31.8328642" lon="35.0217914">
<ele>369.399994</ele>
<time>2021-09-24T05:37:17.000Z</time>
</trkpt>
<trkpt lat="31.8328958" lon="35.0219690">
<ele>371.800018</ele>
<time>2021-09-24T05:37:30.000Z</time>
</trkpt>
<trkpt lat="31.8329004" lon="35.0221156">
<ele>373.399994</ele>
<time>2021-09-24T05:37:40.000Z</time>
</trkpt>
<trkpt lat="31.8329023" lon="35.0222611">
<ele>375.000000</ele>
<time>2021-09-24T05:37:50.000Z</time>
</trkpt>
<trkpt lat="31.8329006" lon="35.0224180">
<ele>376.799988</ele>
<time>2021-09-24T05:38:01.000Z</time>
</trkpt>
<trkpt lat="31.8329035" lon="35.0225181">
<ele>377.799957</ele>
<time>2021-09-24T05:38:08.000Z</time>
</trkpt>
<trkpt lat="31.8329049" lon="35.0226513">
<ele>379.399994</ele>
<time>2021-09-24T05:38:16.000Z</time>
</trkpt>
<trkpt lat="31.8329071" lon="35.0226825">
<ele>379.799988</ele>
<time>2021-09-24T05:38:18.000Z</time>
</trkpt>
<trkpt lat="31.8329122" lon="35.0226961">
<ele>379.799988</ele>
<time>2021-09-24T05:38:19.000Z</time>
</trkpt>
<trkpt lat="31.8329271" lon="35.0227933">
<ele>380.799988</ele>
<time>2021-09-24T05:38:27.000Z</time>
</trkpt>
<trkpt lat="31.8329318" lon="35.0228062">
<ele>381.000000</ele>
<time>2021-09-24T05:38:28.000Z</time>
</trkpt>
<trkpt lat="31.8329365" lon="35.0228193">
<ele>381.000000</ele>
<time>2021-09-24T05:38:29.000Z</time>
</trkpt>
<trkpt lat="31.8329681" lon="35.0229450">
<ele>382.399994</ele>
<time>2021-09-24T05:38:38.000Z</time>
</trkpt>
<trkpt lat="31.8330076" lon="35.0230634">
<ele>383.399994</ele>
<time>2021-09-24T05:38:46.000Z</time>
</trkpt>
<trkpt lat="31.8330330" lon="35.0231507">
<ele>384.399963</ele>
<time>2021-09-24T05:38:53.000Z</time>
</trkpt>
<trkpt lat="31.8330380" lon="35.0231625">
<ele>384.600006</ele>
<time>2021-09-24T05:38:54.000Z</time>
</trkpt>
<trkpt lat="31.8330427" lon="35.0231762">
<ele>384.600006</ele>
<time>2021-09-24T05:38:55.000Z</time>
</trkpt>
<trkpt lat="31.8330483" lon="35.0231906">
<ele>384.799988</ele>
<time>2021-09-24T05:38:56.000Z</time>
</trkpt>
<trkpt lat="31.8330556" lon="35.0232028">
<ele>385.000031</ele>
<time>2021-09-24T05:38:57.000Z</time>
</trkpt>
<trkpt lat="31.8330635" lon="35.0232149">
<ele>385.200012</ele>
<time>2021-09-24T05:38:58.000Z</time>
</trkpt>
<trkpt lat="31.8330735" lon="35.0232277">
<ele>385.399994</ele>
<time>2021-09-24T05:38:59.000Z</time>
</trkpt>
<trkpt lat="31.8331787" lon="35.0233516">
<ele>386.600006</ele>
<time>2021-09-24T05:39:09.000Z</time>
</trkpt>
<trkpt lat="31.8332593" lon="35.0233958">
<ele>387.600006</ele>
<time>2021-09-24T05:39:15.000Z</time>
</trkpt>
<trkpt lat="31.8333602" lon="35.0234468">
<ele>389.000000</ele>
<time>2021-09-24T05:39:23.000Z</time>
</trkpt>
<trkpt lat="31.8334695" lon="35.0234440">
<ele>390.399994</ele>
<time>2021-09-24T05:39:31.000Z</time>
</trkpt>
<trkpt lat="31.8334804" lon="35.0234366">
<ele>390.399994</ele>
<time>2021-09-24T05:39:32.000Z</time>
</trkpt>
<trkpt lat="31.8335347" lon="35.0233776">
<ele>391.200012</ele>
<time>2021-09-24T05:39:37.000Z</time>
</trkpt>
<trkpt lat="31.8335392" lon="35.0233615">
<ele>391.200012</ele>
<time>2021-09-24T05:39:38.000Z</time>
</trkpt>
<trkpt lat="31.8335457" lon="35.0233439">
<ele>391.399994</ele>
<time>2021-09-24T05:39:39.000Z</time>
</trkpt>
<trkpt lat="31.8336056" lon="35.0231419">
<ele>392.400024</ele>
<time>2021-09-24T05:39:49.000Z</time>
</trkpt>
<trkpt lat="31.8336654" lon="35.0229216">
<ele>393.000000</ele>
<time>2021-09-24T05:39:58.000Z</time>
</trkpt>
<trkpt lat="31.8336884" lon="35.0226985">
<ele>393.399994</ele>
<time>2021-09-24T05:40:06.000Z</time>
</trkpt>
<trkpt lat="31.8337080" lon="35.0224022">
<ele>393.799988</ele>
<time>2021-09-24T05:40:14.000Z</time>
</trkpt>
<trkpt lat="31.8337756" lon="35.0219583">
<ele>394.000000</ele>
<time>2021-09-24T05:40:23.000Z</time>
</trkpt>
<trkpt lat="31.8338513" lon="35.0214794">
<ele>394.399994</ele>
<time>2021-09-24T05:40:33.000Z</time>
</trkpt>
<trkpt lat="31.8339290" lon="35.0211315">
<ele>395.000000</ele>
<time>2021-09-24T05:40:42.000Z</time>
</trkpt>
<trkpt lat="31.8340935" lon="35.0208282">
<ele>395.200012</ele>
<time>2021-09-24T05:40:51.000Z</time>
</trkpt>
<trkpt lat="31.8342188" lon="35.0206093">
<ele>395.600006</ele>
<time>2021-09-24T05:40:57.000Z</time>
</trkpt>
<trkpt lat="31.8344045" lon="35.0203276">
<ele>395.399963</ele>
<time>2021-09-24T05:41:04.000Z</time>
</trkpt>
<trkpt lat="31.8344373" lon="35.0202887">
<ele>395.399963</ele>
<time>2021-09-24T05:41:05.000Z</time>
</trkpt>
<trkpt lat="31.8345103" lon="35.0202146">
<ele>395.200012</ele>
<time>2021-09-24T05:41:07.000Z</time>
</trkpt>
<trkpt lat="31.8345542" lon="35.0201830">
<ele>395.000000</ele>
<time>2021-09-24T05:41:08.000Z</time>
</trkpt>
<trkpt lat="31.8349017" lon="35.0199867">
<ele>393.399994</ele>
<time>2021-09-24T05:41:14.000Z</time>
</trkpt>
<trkpt lat="31.8353535" lon="35.0196780">
<ele>391.000000</ele>
<time>2021-09-24T05:41:20.000Z</time>
</trkpt>
<trkpt lat="31.8356598" lon="35.0193059">
<ele>388.399994</ele>
<time>2021-09-24T05:41:25.000Z</time>
</trkpt>
<trkpt lat="31.8357016" lon="35.0192190">
<ele>387.600006</ele>
<time>2021-09-24T05:41:26.000Z</time>
</trkpt>
<trkpt lat="31.8357362" lon="35.0191289">
<ele>386.799988</ele>
<time>2021-09-24T05:41:27.000Z</time>
</trkpt>
<trkpt lat="31.8358763" lon="35.0186187">
<ele>384.799988</ele>
<time>2021-09-24T05:41:33.000Z</time>
</trkpt>
<trkpt lat="31.8359512" lon="35.0182762">
<ele>384.399963</ele>
<time>2021-09-24T05:41:39.000Z</time>
</trkpt>
<trkpt lat="31.8359855" lon="35.0181249">
<ele>384.600006</ele>
<time>2021-09-24T05:41:42.000Z</time>
</trkpt>
<trkpt lat="31.8360002" lon="35.0180796">
<ele>384.600006</ele>
<time>2021-09-24T05:41:43.000Z</time>
</trkpt>
<trkpt lat="31.8360179" lon="35.0180365">
<ele>384.600006</ele>
<time>2021-09-24T05:41:44.000Z</time>
</trkpt>
<trkpt lat="31.8361037" lon="35.0178727">
<ele>385.000031</ele>
<time>2021-09-24T05:41:48.000Z</time>
</trkpt>
<trkpt lat="31.8362091" lon="35.0177199">
<ele>385.200012</ele>
<time>2021-09-24T05:41:52.000Z</time>
</trkpt>
<trkpt lat="31.8362437" lon="35.0176864">
<ele>385.200012</ele>
<time>2021-09-24T05:41:53.000Z</time>
</trkpt>
<trkpt lat="31.8363667" lon="35.0175819">
<ele>385.000031</ele>
<time>2021-09-24T05:41:56.000Z</time>
</trkpt>
<trkpt lat="31.8364044" lon="35.0175382">
<ele>385.200012</ele>
<time>2021-09-24T05:41:57.000Z</time>
</trkpt>
<trkpt lat="31.8367453" lon="35.0172036">
<ele>384.799988</ele>
<time>2021-09-24T05:42:05.000Z</time>
</trkpt>
<trkpt lat="31.8370660" lon="35.0169540">
<ele>384.600006</ele>
<time>2021-09-24T05:42:12.000Z</time>
</trkpt>
<trkpt lat="31.8373990" lon="35.0164907">
<ele>383.599976</ele>
<time>2021-09-24T05:42:21.000Z</time>
</trkpt>
<trkpt lat="31.8376109" lon="35.0159949">
<ele>382.200012</ele>
<time>2021-09-24T05:42:28.000Z</time>
</trkpt>
<trkpt lat="31.8376646" lon="35.0158219">
<ele>381.399963</ele>
<time>2021-09-24T05:42:30.000Z</time>
</trkpt>
<trkpt lat="31.8376809" lon="35.0157266">
<ele>381.000000</ele>
<time>2021-09-24T05:42:31.000Z</time>
</trkpt>
<trkpt lat="31.8377367" lon="35.0150711">
<ele>378.799988</ele>
<time>2021-09-24T05:42:37.000Z</time>
</trkpt>
<trkpt lat="31.8377301" lon="35.0149569">
<ele>378.200012</ele>
<time>2021-09-24T05:42:38.000Z</time>
</trkpt>
<trkpt lat="31.8376683" lon="35.0143903">
<ele>375.200012</ele>
<time>2021-09-24T05:42:43.000Z</time>
</trkpt>
<trkpt lat="31.8376612" lon="35.0141627">
<ele>373.000000</ele>
<time>2021-09-24T05:42:45.000Z</time>
</trkpt>
<trkpt lat="31.8376051" lon="35.0134901">
<ele>369.799988</ele>
<time>2021-09-24T05:42:51.000Z</time>
</trkpt>
<trkpt lat="31.8375407" lon="35.0127634">
<ele>366.399994</ele>
<time>2021-09-24T05:42:58.000Z</time>
</trkpt>
<trkpt lat="31.8374987" lon="35.0120543">
<ele>362.999969</ele>
<time>2021-09-24T05:43:05.000Z</time>
</trkpt>
<trkpt lat="31.8374364" lon="35.0114263">
<ele>360.399994</ele>
<time>2021-09-24T05:43:11.000Z</time>
</trkpt>
<trkpt lat="31.8373922" lon="35.0109909">
<ele>357.399994</ele>
<time>2021-09-24T05:43:15.000Z</time>
</trkpt>
<trkpt lat="31.8373791" lon="35.0104193">
<ele>355.000000</ele>
<time>2021-09-24T05:43:20.000Z</time>
</trkpt>
<trkpt lat="31.8373909" lon="35.0103047">
<ele>354.399994</ele>
<time>2021-09-24T05:43:21.000Z</time>
</trkpt>
<trkpt lat="31.8374877" lon="35.0098613">
<ele>352.200012</ele>
<time>2021-09-24T05:43:25.000Z</time>
</trkpt>
<trkpt lat="31.8376298" lon="35.0093077">
<ele>349.000031</ele>
<time>2021-09-24T05:43:30.000Z</time>
</trkpt>
<trkpt lat="31.8378944" lon="35.0084967">
<ele>345.600006</ele>
<time>2021-09-24T05:43:37.000Z</time>
</trkpt>
<trkpt lat="31.8380669" lon="35.0079901">
<ele>342.200012</ele>
<time>2021-09-24T05:43:41.000Z</time>
</trkpt>
<trkpt lat="31.8382002" lon="35.0074312">
<ele>338.600006</ele>
<time>2021-09-24T05:43:45.000Z</time>
</trkpt>
<trkpt lat="31.8382596" lon="35.0068364">
<ele>335.200012</ele>
<time>2021-09-24T05:43:49.000Z</time>
</trkpt>
<trkpt lat="31.8382590" lon="35.0066870">
<ele>334.200043</ele>
<time>2021-09-24T05:43:50.000Z</time>
</trkpt>
<trkpt lat="31.8382404" lon="35.0065417">
<ele>333.200012</ele>
<time>2021-09-24T05:43:51.000Z</time>
</trkpt>
<trkpt lat="31.8382041" lon="35.0064032">
<ele>331.000000</ele>
<time>2021-09-24T05:43:52.000Z</time>
</trkpt>
<trkpt lat="31.8381570" lon="35.0062715">
<ele>330.200012</ele>
<time>2021-09-24T05:43:53.000Z</time>
</trkpt>
<trkpt lat="31.8381048" lon="35.0061449">
<ele>329.200012</ele>
<time>2021-09-24T05:43:54.000Z</time>
</trkpt>
<trkpt lat="31.8380474" lon="35.0060249">
<ele>328.400024</ele>
<time>2021-09-24T05:43:55.000Z</time>
</trkpt>
<trkpt lat="31.8379816" lon="35.0059137">
<ele>327.600037</ele>
<time>2021-09-24T05:43:56.000Z</time>
</trkpt>
<trkpt lat="31.8376841" lon="35.0055110">
<ele>324.399994</ele>
<time>2021-09-24T05:44:00.000Z</time>
</trkpt>
<trkpt lat="31.8373151" lon="35.0050384">
<ele>320.399963</ele>
<time>2021-09-24T05:44:05.000Z</time>
</trkpt>
<trkpt lat="31.8372530" lon="35.0049428">
<ele>320.399963</ele>
<time>2021-09-24T05:44:06.000Z</time>
</trkpt>
<trkpt lat="31.8372067" lon="35.0048425">
<ele>319.399994</ele>
<time>2021-09-24T05:44:07.000Z</time>
</trkpt>
<trkpt lat="31.8371833" lon="35.0047375">
<ele>319.000000</ele>
<time>2021-09-24T05:44:08.000Z</time>
</trkpt>
<trkpt lat="31.8371831" lon="35.0046362">
<ele>318.399994</ele>
<time>2021-09-24T05:44:09.000Z</time>
</trkpt>
<trkpt lat="31.8371990" lon="35.0045424">
<ele>318.200012</ele>
<time>2021-09-24T05:44:10.000Z</time>
</trkpt>
<trkpt lat="31.8372217" lon="35.0044581">
<ele>318.000000</ele>
<time>2021-09-24T05:44:11.000Z</time>
</trkpt>
<trkpt lat="31.8372476" lon="35.0043823">
<ele>317.799988</ele>
<time>2021-09-24T05:44:12.000Z</time>
</trkpt>
<trkpt lat="31.8372743" lon="35.0043142">
<ele>317.799988</ele>
<time>2021-09-24T05:44:13.000Z</time>
</trkpt>
<trkpt lat="31.8374362" lon="35.0040017">
<ele>318.600006</ele>
<time>2021-09-24T05:44:19.000Z</time>
</trkpt>
<trkpt lat="31.8375884" lon="35.0035958">
<ele>319.200012</ele>
<time>2021-09-24T05:44:25.000Z</time>
</trkpt>
<trkpt lat="31.8376009" lon="35.0035098">
<ele>319.200012</ele>
<time>2021-09-24T05:44:26.000Z</time>
</trkpt>
<trkpt lat="31.8375720" lon="35.0030006">
<ele>318.399994</ele>
<time>2021-09-24T05:44:32.000Z</time>
</trkpt>
<trkpt lat="31.8374342" lon="35.0023658">
<ele>317.799988</ele>
<time>2021-09-24T05:44:41.000Z</time>
</trkpt>
<trkpt lat="31.8374058" lon="35.0017978">
<ele>318.600006</ele>
<time>2021-09-24T05:44:51.000Z</time>
</trkpt>
<trkpt lat="31.8374509" lon="35.0015286">
<ele>319.599976</ele>
<time>2021-09-24T05:44:57.000Z</time>
</trkpt>
<trkpt lat="31.8374900" lon="35.0014402">
<ele>319.799988</ele>
<time>2021-09-24T05:44:59.000Z</time>
</trkpt>
<trkpt lat="31.8377455" lon="35.0011033">
<ele>319.799988</ele>
<time>2021-09-24T05:45:06.000Z</time>
</trkpt>
<trkpt lat="31.8380699" lon="35.0007570">
<ele>318.200012</ele>
<time>2021-09-24T05:45:12.000Z</time>
</trkpt>
<trkpt lat="31.8384209" lon="35.0002863">
<ele>315.600006</ele>
<time>2021-09-24T05:45:18.000Z</time>
</trkpt>
<trkpt lat="31.8386397" lon="34.9997148">
<ele>312.999969</ele>
<time>2021-09-24T05:45:23.000Z</time>
</trkpt>
<trkpt lat="31.8388350" lon="34.9991391">
<ele>308.799988</ele>
<time>2021-09-24T05:45:27.000Z</time>
</trkpt>
<trkpt lat="31.8389953" lon="34.9987018">
<ele>305.399994</ele>
<time>2021-09-24T05:45:30.000Z</time>
</trkpt>
<trkpt lat="31.8391267" lon="34.9982724">
<ele>302.200012</ele>
<time>2021-09-24T05:45:33.000Z</time>
</trkpt>
<trkpt lat="31.8393092" lon="34.9977146">
<ele>298.200012</ele>
<time>2021-09-24T05:45:37.000Z</time>
</trkpt>
<trkpt lat="31.8394172" lon="34.9974455">
<ele>296.200012</ele>
<time>2021-09-24T05:45:39.000Z</time>
</trkpt>
<trkpt lat="31.8394851" lon="34.9973174">
<ele>294.399994</ele>
<time>2021-09-24T05:45:40.000Z</time>
</trkpt>
<trkpt lat="31.8395629" lon="34.9971955">
<ele>293.600006</ele>
<time>2021-09-24T05:45:41.000Z</time>
</trkpt>
<trkpt lat="31.8396491" lon="34.9970798">
<ele>292.799988</ele>
<time>2021-09-24T05:45:42.000Z</time>
</trkpt>
<trkpt lat="31.8397408" lon="34.9969687">
<ele>292.000000</ele>
<time>2021-09-24T05:45:43.000Z</time>
</trkpt>
<trkpt lat="31.8399146" lon="34.9967384">
<ele>289.799988</ele>
<time>2021-09-24T05:45:45.000Z</time>
</trkpt>
<trkpt lat="31.8401182" lon="34.9963435">
<ele>286.799988</ele>
<time>2021-09-24T05:45:48.000Z</time>
</trkpt>
<trkpt lat="31.8403160" lon="34.9959558">
<ele>283.600006</ele>
<time>2021-09-24T05:45:51.000Z</time>
</trkpt>
<trkpt lat="31.8405802" lon="34.9954672">
<ele>279.600006</ele>
<time>2021-09-24T05:45:55.000Z</time>
</trkpt>
<trkpt lat="31.8407875" lon="34.9950423">
<ele>276.399994</ele>
<time>2021-09-24T05:45:59.000Z</time>
</trkpt>
<trkpt lat="31.8408018" lon="34.9949850">
<ele>275.600006</ele>
<time>2021-09-24T05:46:00.000Z</time>
</trkpt>
<trkpt lat="31.8407979" lon="34.9949430">
<ele>274.600006</ele>
<time>2021-09-24T05:46:01.000Z</time>
</trkpt>
<trkpt lat="31.8407859" lon="34.9949041">
<ele>273.600006</ele>
<time>2021-09-24T05:46:02.000Z</time>
</trkpt>
<trkpt lat="31.8407728" lon="34.9948679">
<ele>272.799988</ele>
<time>2021-09-24T05:46:03.000Z</time>
</trkpt>
<trkpt lat="31.8407558" lon="34.9948373">
<ele>272.000000</ele>
<time>2021-09-24T05:46:04.000Z</time>
</trkpt>
<trkpt lat="31.8407337" lon="34.9948171">
<ele>271.399994</ele>
<time>2021-09-24T05:46:05.000Z</time>
</trkpt>
<trkpt lat="31.8407122" lon="34.9948134">
<ele>271.000000</ele>
<time>2021-09-24T05:46:06.000Z</time>
</trkpt>
<trkpt lat="31.8406921" lon="34.9948161">
<ele>270.399994</ele>
<time>2021-09-24T05:46:07.000Z</time>
</trkpt>
<trkpt lat="31.8406742" lon="34.9948093">
<ele>269.600006</ele>
<time>2021-09-24T05:46:08.000Z</time>
</trkpt>
<trkpt lat="31.8406645" lon="34.9947935">
<ele>269.200012</ele>
<time>2021-09-24T05:46:09.000Z</time>
</trkpt>
<trkpt lat="31.8406620" lon="34.9947755">
<ele>269.000000</ele>
<time>2021-09-24T05:46:10.000Z</time>
</trkpt>
<trkpt lat="31.8406588" lon="34.9947533">
<ele>268.799988</ele>
<time>2021-09-24T05:46:11.000Z</time>
</trkpt>
<trkpt lat="31.8406504" lon="34.9947259">
<ele>268.600006</ele>
<time>2021-09-24T05:46:12.000Z</time>
</trkpt>
<trkpt lat="31.8406347" lon="34.9946996">
<ele>268.200012</ele>
<time>2021-09-24T05:46:13.000Z</time>
</trkpt>
<trkpt lat="31.8406148" lon="34.9946739">
<ele>268.200012</ele>
<time>2021-09-24T05:46:14.000Z</time>
</trkpt>
<trkpt lat="31.8405913" lon="34.9946456">
<ele>268.000000</ele>
<time>2021-09-24T05:46:15.000Z</time>
</trkpt>
<trkpt lat="31.8404222" lon="34.9944446">
<ele>269.399994</ele>
<time>2021-09-24T05:46:24.000Z</time>
</trkpt>
<trkpt lat="31.8403196" lon="34.9942839">
<ele>270.799988</ele>
<time>2021-09-24T05:46:32.000Z</time>
</trkpt>
<trkpt lat="31.8401351" lon="34.9940651">
<ele>272.200012</ele>
<time>2021-09-24T05:46:43.000Z</time>
</trkpt>
<trkpt lat="31.8399486" lon="34.9938665">
<ele>273.000000</ele>
<time>2021-09-24T05:46:53.000Z</time>
</trkpt>
<trkpt lat="31.8396456" lon="34.9936184">
<ele>273.200012</ele>
<time>2021-09-24T05:47:05.000Z</time>
</trkpt>
<trkpt lat="31.8393997" lon="34.9934929">
<ele>273.000000</ele>
<time>2021-09-24T05:47:12.000Z</time>
</trkpt>
<trkpt lat="31.8393603" lon="34.9934801">
<ele>272.799988</ele>
<time>2021-09-24T05:47:13.000Z</time>
</trkpt>
<trkpt lat="31.8391823" lon="34.9934110">
<ele>272.600006</ele>
<time>2021-09-24T05:47:17.000Z</time>
</trkpt>
<trkpt lat="31.8391401" lon="34.9933837">
<ele>272.399994</ele>
<time>2021-09-24T05:47:18.000Z</time>
</trkpt>
<trkpt lat="31.8390625" lon="34.9933301">
<ele>272.200012</ele>
<time>2021-09-24T05:47:20.000Z</time>
</trkpt>
<trkpt lat="31.8388832" lon="34.9931777">
<ele>271.600006</ele>
<time>2021-09-24T05:47:27.000Z</time>
</trkpt>
<trkpt lat="31.8386911" lon="34.9930642">
<ele>271.399994</ele>
<time>2021-09-24T05:47:34.000Z</time>
</trkpt>
<trkpt lat="31.8385066" lon="34.9930813">
<ele>271.600006</ele>
<time>2021-09-24T05:47:41.000Z</time>
</trkpt>
<trkpt lat="31.8383479" lon="34.9931115">
<ele>272.799988</ele>
<time>2021-09-24T05:47:49.000Z</time>
</trkpt>
<trkpt lat="31.8381694" lon="34.9931963">
<ele>274.000000</ele>
<time>2021-09-24T05:47:58.000Z</time>
</trkpt>
<trkpt lat="31.8379995" lon="34.9932476">
<ele>275.000000</ele>
<time>2021-09-24T05:48:08.000Z</time>
</trkpt>
<trkpt lat="31.8378290" lon="34.9932608">
<ele>276.799988</ele>
<time>2021-09-24T05:48:18.000Z</time>
</trkpt>
<trkpt lat="31.8376193" lon="34.9931764">
<ele>277.000000</ele>
<time>2021-09-24T05:48:25.000Z</time>
</trkpt>
<trkpt lat="31.8375074" lon="34.9930742">
<ele>276.600006</ele>
<time>2021-09-24T05:48:28.000Z</time>
</trkpt>
<trkpt lat="31.8374791" lon="34.9930306">
<ele>276.600006</ele>
<time>2021-09-24T05:48:29.000Z</time>
</trkpt>
<trkpt lat="31.8374250" lon="34.9929435">
<ele>276.399994</ele>
<time>2021-09-24T05:48:31.000Z</time>
</trkpt>
<trkpt lat="31.8373896" lon="34.9929162">
<ele>276.200012</ele>
<time>2021-09-24T05:48:32.000Z</time>
</trkpt>
<trkpt lat="31.8373493" lon="34.9929067">
<ele>276.000000</ele>
<time>2021-09-24T05:48:33.000Z</time>
</trkpt>
<trkpt lat="31.8373068" lon="34.9929150">
<ele>275.799988</ele>
<time>2021-09-24T05:48:34.000Z</time>
</trkpt>
<trkpt lat="31.8372662" lon="34.9929362">
<ele>275.399994</ele>
<time>2021-09-24T05:48:35.000Z</time>
</trkpt>
<trkpt lat="31.8372267" lon="34.9929623">
<ele>275.200012</ele>
<time>2021-09-24T05:48:36.000Z</time>
</trkpt>
<trkpt lat="31.8371095" lon="34.9930273">
<ele>274.799988</ele>
<time>2021-09-24T05:48:39.000Z</time>
</trkpt>
<trkpt lat="31.8368640" lon="34.9930574">
<ele>275.000000</ele>
<time>2021-09-24T05:48:46.000Z</time>
</trkpt>
<trkpt lat="31.8367232" lon="34.9929378">
<ele>275.799988</ele>
<time>2021-09-24T05:48:52.000Z</time>
</trkpt>
<trkpt lat="31.8367174" lon="34.9929031">
<ele>275.799988</ele>
<time>2021-09-24T05:48:53.000Z</time>
</trkpt>
<trkpt lat="31.8367152" lon="34.9928647">
<ele>275.799988</ele>
<time>2021-09-24T05:48:54.000Z</time>
</trkpt>
<trkpt lat="31.8367128" lon="34.9928238">
<ele>276.000000</ele>
<time>2021-09-24T05:48:55.000Z</time>
</trkpt>
<trkpt lat="31.8367108" lon="34.9927811">
<ele>276.000000</ele>
<time>2021-09-24T05:48:56.000Z</time>
</trkpt>
<trkpt lat="31.8367107" lon="34.9927410">
<ele>276.000000</ele>
<time>2021-09-24T05:48:57.000Z</time>
</trkpt>
<trkpt lat="31.8367747" lon="34.9925066">
<ele>276.600006</ele>
<time>2021-09-24T05:49:03.000Z</time>
</trkpt>
<trkpt lat="31.8368130" lon="34.9924135">
<ele>276.600006</ele>
<time>2021-09-24T05:49:05.000Z</time>
</trkpt>
<trkpt lat="31.8368262" lon="34.9923607">
<ele>276.600006</ele>
<time>2021-09-24T05:49:06.000Z</time>
</trkpt>
<trkpt lat="31.8369203" lon="34.9918261">
<ele>275.399994</ele>
<time>2021-09-24T05:49:16.000Z</time>
</trkpt>
<trkpt lat="31.8369738" lon="34.9916342">
<ele>275.200012</ele>
<time>2021-09-24T05:49:20.000Z</time>
</trkpt>
<trkpt lat="31.8370065" lon="34.9915399">
<ele>275.200012</ele>
<time>2021-09-24T05:49:22.000Z</time>
</trkpt>
<trkpt lat="31.8371475" lon="34.9912450">
<ele>274.799988</ele>
<time>2021-09-24T05:49:28.000Z</time>
</trkpt>
<trkpt lat="31.8371607" lon="34.9911897">
<ele>274.799988</ele>
<time>2021-09-24T05:49:29.000Z</time>
</trkpt>
<trkpt lat="31.8371583" lon="34.9911373">
<ele>274.799988</ele>
<time>2021-09-24T05:49:30.000Z</time>
</trkpt>
<trkpt lat="31.8371443" lon="34.9910880">
<ele>274.799988</ele>
<time>2021-09-24T05:49:31.000Z</time>
</trkpt>
<trkpt lat="31.8371204" lon="34.9910489">
<ele>274.600006</ele>
<time>2021-09-24T05:49:32.000Z</time>
</trkpt>
<trkpt lat="31.8370956" lon="34.9910148">
<ele>274.600006</ele>
<time>2021-09-24T05:49:33.000Z</time>
</trkpt>
<trkpt lat="31.8369456" lon="34.9908376">
<ele>275.399994</ele>
<time>2021-09-24T05:49:40.000Z</time>
</trkpt>
<trkpt lat="31.8367663" lon="34.9906325">
<ele>277.000000</ele>
<time>2021-09-24T05:49:50.000Z</time>
</trkpt>
<trkpt lat="31.8366227" lon="34.9904824">
<ele>278.399994</ele>
<time>2021-09-24T05:49:58.000Z</time>
</trkpt>
<trkpt lat="31.8365015" lon="34.9903160">
<ele>279.799988</ele>
<time>2021-09-24T05:50:06.000Z</time>
</trkpt>
<trkpt lat="31.8363400" lon="34.9900457">
<ele>280.600006</ele>
<time>2021-09-24T05:50:16.000Z</time>
</trkpt>
<trkpt lat="31.8361418" lon="34.9899515">
<ele>280.799988</ele>
<time>2021-09-24T05:50:22.000Z</time>
</trkpt>
<trkpt lat="31.8360179" lon="34.9899264">
<ele>280.799988</ele>
<time>2021-09-24T05:50:25.000Z</time>
</trkpt>
<trkpt lat="31.8359751" lon="34.9899293">
<ele>280.799988</ele>
<time>2021-09-24T05:50:26.000Z</time>
</trkpt>
<trkpt lat="31.8359334" lon="34.9899400">
<ele>280.799988</ele>
<time>2021-09-24T05:50:27.000Z</time>
</trkpt>
<trkpt lat="31.8358983" lon="34.9899606">
<ele>280.799988</ele>
<time>2021-09-24T05:50:28.000Z</time>
</trkpt>
<trkpt lat="31.8358691" lon="34.9899851">
<ele>280.799988</ele>
<time>2021-09-24T05:50:29.000Z</time>
</trkpt>
<trkpt lat="31.8356638" lon="34.9901543">
<ele>282.000000</ele>
<time>2021-09-24T05:50:37.000Z</time>
</trkpt>
<trkpt lat="31.8354971" lon="34.9903830">
<ele>283.399994</ele>
<time>2021-09-24T05:50:46.000Z</time>
</trkpt>
<trkpt lat="31.8353960" lon="34.9906258">
<ele>284.799988</ele>
<time>2021-09-24T05:50:56.000Z</time>
</trkpt>
<trkpt lat="31.8353095" lon="34.9908271">
<ele>286.600006</ele>
<time>2021-09-24T05:51:06.000Z</time>
</trkpt>
<trkpt lat="31.8352609" lon="34.9910457">
<ele>287.600006</ele>
<time>2021-09-24T05:51:15.000Z</time>
</trkpt>
<trkpt lat="31.8352520" lon="34.9911953">
<ele>288.799988</ele>
<time>2021-09-24T05:51:23.000Z</time>
</trkpt>
<trkpt lat="31.8352736" lon="34.9913810">
<ele>290.200012</ele>
<time>2021-09-24T05:51:33.000Z</time>
</trkpt>
<trkpt lat="31.8352890" lon="34.9915530">
<ele>291.600006</ele>
<time>2021-09-24T05:51:43.000Z</time>
</trkpt>
<trkpt lat="31.8352868" lon="34.9917053">
<ele>293.399994</ele>
<time>2021-09-24T05:51:53.000Z</time>
</trkpt>
<trkpt lat="31.8352738" lon="34.9918265">
<ele>294.799988</ele>
<time>2021-09-24T05:52:01.000Z</time>
</trkpt>
<trkpt lat="31.8352552" lon="34.9919534">
<ele>296.399994</ele>
<time>2021-09-24T05:52:09.000Z</time>
</trkpt>
<trkpt lat="31.8352810" lon="34.9920934">
<ele>298.399994</ele>
<time>2021-09-24T05:52:19.000Z</time>
</trkpt>
<trkpt lat="31.8353849" lon="34.9922602">
<ele>300.600006</ele>
<time>2021-09-24T05:52:30.000Z</time>
</trkpt>
<trkpt lat="31.8355084" lon="34.9923655">
<ele>301.799988</ele>
<time>2021-09-24T05:52:38.000Z</time>
</trkpt>
<trkpt lat="31.8356348" lon="34.9924403">
<ele>302.200012</ele>
<time>2021-09-24T05:52:42.000Z</time>
</trkpt>
<trkpt lat="31.8356598" lon="34.9924844">
<ele>302.200012</ele>
<time>2021-09-24T05:52:43.000Z</time>
</trkpt>
<trkpt lat="31.8356706" lon="34.9925363">
<ele>302.000000</ele>
<time>2021-09-24T05:52:44.000Z</time>
</trkpt>
<trkpt lat="31.8356616" lon="34.9925875">
<ele>302.000000</ele>
<time>2021-09-24T05:52:45.000Z</time>
</trkpt>
<trkpt lat="31.8356374" lon="34.9926283">
<ele>301.799988</ele>
<time>2021-09-24T05:52:46.000Z</time>
</trkpt>
<trkpt lat="31.8356100" lon="34.9926584">
<ele>301.799988</ele>
<time>2021-09-24T05:52:47.000Z</time>
</trkpt>
<trkpt lat="31.8355426" lon="34.9927326">
<ele>301.799988</ele>
<time>2021-09-24T05:52:52.000Z</time>
</trkpt>
<trkpt lat="31.8354769" lon="34.9929035">
<ele>303.200012</ele>
<time>2021-09-24T05:52:59.000Z</time>
</trkpt>
<trkpt lat="31.8354090" lon="34.9930521">
<ele>304.200012</ele>
<time>2021-09-24T05:53:07.000Z</time>
</trkpt>
<trkpt lat="31.8353659" lon="34.9932099">
<ele>305.600006</ele>
<time>2021-09-24T05:53:16.000Z</time>
</trkpt>
<trkpt lat="31.8352935" lon="34.9933680">
<ele>306.799988</ele>
<time>2021-09-24T05:53:24.000Z</time>
</trkpt>
<trkpt lat="31.8352249" lon="34.9935257">
<ele>308.799988</ele>
<time>2021-09-24T05:53:33.000Z</time>
</trkpt>
<trkpt lat="31.8351820" lon="34.9937678">
<ele>309.399994</ele>
<time>2021-09-24T05:53:41.000Z</time>
</trkpt>
<trkpt lat="31.8351239" lon="34.9939779">
<ele>310.399994</ele>
<time>2021-09-24T05:53:49.000Z</time>
</trkpt>
<trkpt lat="31.8350419" lon="34.9942290">
<ele>311.399994</ele>
<time>2021-09-24T05:53:58.000Z</time>
</trkpt>
<trkpt lat="31.8349672" lon="34.9944192">
<ele>311.399994</ele>
<time>2021-09-24T05:54:02.000Z</time>
</trkpt>
<trkpt lat="31.8349540" lon="34.9944760">
<ele>311.399994</ele>
<time>2021-09-24T05:54:03.000Z</time>
</trkpt>
<trkpt lat="31.8349448" lon="34.9945340">
<ele>311.200012</ele>
<time>2021-09-24T05:54:04.000Z</time>
</trkpt>
<trkpt lat="31.8349426" lon="34.9945924">
<ele>311.200012</ele>
<time>2021-09-24T05:54:05.000Z</time>
</trkpt>
<trkpt lat="31.8349469" lon="34.9946519">
<ele>311.000000</ele>
<time>2021-09-24T05:54:06.000Z</time>
</trkpt>
<trkpt lat="31.8349562" lon="34.9947104">
<ele>311.000000</ele>
<time>2021-09-24T05:54:07.000Z</time>
</trkpt>
<trkpt lat="31.8349694" lon="34.9947669">
<ele>311.000000</ele>
<time>2021-09-24T05:54:08.000Z</time>
</trkpt>
<trkpt lat="31.8349840" lon="34.9948236">
<ele>310.799988</ele>
<time>2021-09-24T05:54:09.000Z</time>
</trkpt>
<trkpt lat="31.8351234" lon="34.9953052">
<ele>310.399994</ele>
<time>2021-09-24T05:54:18.000Z</time>
</trkpt>
<trkpt lat="31.8351422" lon="34.9953632">
<ele>310.200012</ele>
<time>2021-09-24T05:54:19.000Z</time>
</trkpt>
<trkpt lat="31.8352162" lon="34.9957535">
<ele>309.399994</ele>
<time>2021-09-24T05:54:24.000Z</time>
</trkpt>
<trkpt lat="31.8352147" lon="34.9958519">
<ele>309.200012</ele>
<time>2021-09-24T05:54:25.000Z</time>
</trkpt>
<trkpt lat="31.8352160" lon="34.9962405">
<ele>307.399994</ele>
<time>2021-09-24T05:54:29.000Z</time>
</trkpt>
<trkpt lat="31.8352319" lon="34.9963176">
<ele>307.000000</ele>
<time>2021-09-24T05:54:30.000Z</time>
</trkpt>
<trkpt lat="31.8352581" lon="34.9963770">
<ele>306.600006</ele>
<time>2021-09-24T05:54:31.000Z</time>
</trkpt>
<trkpt lat="31.8353024" lon="34.9964152">
<ele>306.000000</ele>
<time>2021-09-24T05:54:32.000Z</time>
</trkpt>
<trkpt lat="31.8353502" lon="34.9964366">
<ele>305.600006</ele>
<time>2021-09-24T05:54:33.000Z</time>
</trkpt>
<trkpt lat="31.8353981" lon="34.9964525">
<ele>305.000000</ele>
<time>2021-09-24T05:54:34.000Z</time>
</trkpt>
<trkpt lat="31.8354837" lon="34.9964882">
<ele>304.200012</ele>
<time>2021-09-24T05:54:36.000Z</time>
</trkpt>
<trkpt lat="31.8355237" lon="34.9965095">
<ele>304.000000</ele>
<time>2021-09-24T05:54:37.000Z</time>
</trkpt>
<trkpt lat="31.8355595" lon="34.9965361">
<ele>303.799988</ele>
<time>2021-09-24T05:54:38.000Z</time>
</trkpt>
<trkpt lat="31.8355909" lon="34.9965678">
<ele>303.799988</ele>
<time>2021-09-24T05:54:39.000Z</time>
</trkpt>
<trkpt lat="31.8356185" lon="34.9966030">
<ele>303.600006</ele>
<time>2021-09-24T05:54:40.000Z</time>
</trkpt>
<trkpt lat="31.8356445" lon="34.9966373">
<ele>303.399994</ele>
<time>2021-09-24T05:54:41.000Z</time>
</trkpt>
<trkpt lat="31.8357971" lon="34.9968635">
<ele>303.600006</ele>
<time>2021-09-24T05:54:49.000Z</time>
</trkpt>
<trkpt lat="31.8359012" lon="34.9970399">
<ele>305.799988</ele>
<time>2021-09-24T05:54:59.000Z</time>
</trkpt>
<trkpt lat="31.8359952" lon="34.9971813">
<ele>308.399994</ele>
<time>2021-09-24T05:55:10.000Z</time>
</trkpt>
<trkpt lat="31.8360735" lon="34.9972956">
<ele>310.200012</ele>
<time>2021-09-24T05:55:19.000Z</time>
</trkpt>
<trkpt lat="31.8360631" lon="34.9974693">
<ele>310.799988</ele>
<time>2021-09-24T05:55:27.000Z</time>
</trkpt>
<trkpt lat="31.8359451" lon="34.9977620">
<ele>310.399994</ele>
<time>2021-09-24T05:55:33.000Z</time>
</trkpt>
<trkpt lat="31.8357615" lon="34.9982392">
<ele>309.399994</ele>
<time>2021-09-24T05:55:44.000Z</time>
</trkpt>
<trkpt lat="31.8357380" lon="34.9982881">
<ele>309.399994</ele>
<time>2021-09-24T05:55:45.000Z</time>
</trkpt>
<trkpt lat="31.8357075" lon="34.9983334">
<ele>309.399994</ele>
<time>2021-09-24T05:55:46.000Z</time>
</trkpt>
<trkpt lat="31.8356731" lon="34.9983710">
<ele>309.399994</ele>
<time>2021-09-24T05:55:47.000Z</time>
</trkpt>
<trkpt lat="31.8356336" lon="34.9983995">
<ele>309.200012</ele>
<time>2021-09-24T05:55:48.000Z</time>
</trkpt>
<trkpt lat="31.8355903" lon="34.9984102">
<ele>309.000000</ele>
<time>2021-09-24T05:55:49.000Z</time>
</trkpt>
<trkpt lat="31.8355484" lon="34.9984054">
<ele>308.799988</ele>
<time>2021-09-24T05:55:50.000Z</time>
</trkpt>
<trkpt lat="31.8355104" lon="34.9983931">
<ele>308.799988</ele>
<time>2021-09-24T05:55:51.000Z</time>
</trkpt>
<trkpt lat="31.8354763" lon="34.9983808">
<ele>308.799988</ele>
<time>2021-09-24T05:55:52.000Z</time>
</trkpt>
<trkpt lat="31.8352602" lon="34.9982102">
<ele>309.000000</ele>
<time>2021-09-24T05:55:59.000Z</time>
</trkpt>
<trkpt lat="31.8350268" lon="34.9979329">
<ele>308.000000</ele>
<time>2021-09-24T05:56:05.000Z</time>
</trkpt>
<trkpt lat="31.8348635" lon="34.9977873">
<ele>307.000000</ele>
<time>2021-09-24T05:56:08.000Z</time>
</trkpt>
<trkpt lat="31.8348050" lon="34.9977564">
<ele>306.600006</ele>
<time>2021-09-24T05:56:09.000Z</time>
</trkpt>
<trkpt lat="31.8347436" lon="34.9977397">
<ele>306.399994</ele>
<time>2021-09-24T05:56:10.000Z</time>
</trkpt>
<trkpt lat="31.8346795" lon="34.9977366">
<ele>306.000000</ele>
<time>2021-09-24T05:56:11.000Z</time>
</trkpt>
<trkpt lat="31.8346148" lon="34.9977437">
<ele>305.600006</ele>
<time>2021-09-24T05:56:12.000Z</time>
</trkpt>
<trkpt lat="31.8344841" lon="34.9977484">
<ele>304.600006</ele>
<time>2021-09-24T05:56:14.000Z</time>
</trkpt>
<trkpt lat="31.8342243" lon="34.9977237">
<ele>302.200012</ele>
<time>2021-09-24T05:56:18.000Z</time>
</trkpt>
<trkpt lat="31.8341619" lon="34.9977275">
<ele>301.600006</ele>
<time>2021-09-24T05:56:19.000Z</time>
</trkpt>
<trkpt lat="31.8337152" lon="34.9977739">
<ele>300.399994</ele>
<time>2021-09-24T05:56:27.000Z</time>
</trkpt>
<trkpt lat="31.8335071" lon="34.9977701">
<ele>300.000000</ele>
<time>2021-09-24T05:56:31.000Z</time>
</trkpt>
<trkpt lat="31.8334552" lon="34.9977572">
<ele>300.000000</ele>
<time>2021-09-24T05:56:32.000Z</time>
</trkpt>
<trkpt lat="31.8333074" lon="34.9977090">
<ele>299.399994</ele>
<time>2021-09-24T05:56:35.000Z</time>
</trkpt>
<trkpt lat="31.8332689" lon="34.9976794">
<ele>299.399994</ele>
<time>2021-09-24T05:56:36.000Z</time>
</trkpt>
<trkpt lat="31.8332374" lon="34.9976371">
<ele>299.200012</ele>
<time>2021-09-24T05:56:37.000Z</time>
</trkpt>
<trkpt lat="31.8332136" lon="34.9975843">
<ele>299.000000</ele>
<time>2021-09-24T05:56:38.000Z</time>
</trkpt>
<trkpt lat="31.8331933" lon="34.9975260">
<ele>298.600006</ele>
<time>2021-09-24T05:56:39.000Z</time>
</trkpt>
<trkpt lat="31.8331499" lon="34.9974222">
<ele>298.200012</ele>
<time>2021-09-24T05:56:41.000Z</time>
</trkpt>
<trkpt lat="31.8331147" lon="34.9973786">
<ele>297.600006</ele>
<time>2021-09-24T05:56:42.000Z</time>
</trkpt>
<trkpt lat="31.8330691" lon="34.9973397">
<ele>297.000000</ele>
<time>2021-09-24T05:56:43.000Z</time>
</trkpt>
<trkpt lat="31.8330156" lon="34.9973050">
<ele>296.399994</ele>
<time>2021-09-24T05:56:44.000Z</time>
</trkpt>
<trkpt lat="31.8329577" lon="34.9972756">
<ele>295.600006</ele>
<time>2021-09-24T05:56:45.000Z</time>
</trkpt>
<trkpt lat="31.8328963" lon="34.9972494">
<ele>295.000000</ele>
<time>2021-09-24T05:56:46.000Z</time>
</trkpt>
<trkpt lat="31.8327723" lon="34.9971904">
<ele>294.399994</ele>
<time>2021-09-24T05:56:48.000Z</time>
</trkpt>
<trkpt lat="31.8327130" lon="34.9971509">
<ele>294.000000</ele>
<time>2021-09-24T05:56:49.000Z</time>
</trkpt>
<trkpt lat="31.8326581" lon="34.9971041">
<ele>293.200012</ele>
<time>2021-09-24T05:56:50.000Z</time>
</trkpt>
<trkpt lat="31.8326083" lon="34.9970500">
<ele>292.600006</ele>
<time>2021-09-24T05:56:51.000Z</time>
</trkpt>
<trkpt lat="31.8325601" lon="34.9969945">
<ele>292.200012</ele>
<time>2021-09-24T05:56:52.000Z</time>
</trkpt>
<trkpt lat="31.8325104" lon="34.9969478">
<ele>291.799988</ele>
<time>2021-09-24T05:56:53.000Z</time>
</trkpt>
<trkpt lat="31.8324599" lon="34.9969193">
<ele>291.200012</ele>
<time>2021-09-24T05:56:54.000Z</time>
</trkpt>
<trkpt lat="31.8324091" lon="34.9969076">
<ele>291.000000</ele>
<time>2021-09-24T05:56:55.000Z</time>
</trkpt>
<trkpt lat="31.8323585" lon="34.9969031">
<ele>290.799988</ele>
<time>2021-09-24T05:56:56.000Z</time>
</trkpt>
<trkpt lat="31.8323099" lon="34.9969028">
<ele>290.600006</ele>
<time>2021-09-24T05:56:57.000Z</time>
</trkpt>
<trkpt lat="31.8322640" lon="34.9969029">
<ele>290.200012</ele>
<time>2021-09-24T05:56:58.000Z</time>
</trkpt>
<trkpt lat="31.8322175" lon="34.9969008">
<ele>290.000000</ele>
<time>2021-09-24T05:56:59.000Z</time>
</trkpt>
<trkpt lat="31.8318692" lon="34.9968482">
<ele>288.600006</ele>
<time>2021-09-24T05:57:05.000Z</time>
</trkpt>
<trkpt lat="31.8314925" lon="34.9967129">
<ele>286.000000</ele>
<time>2021-09-24T05:57:11.000Z</time>
</trkpt>
<trkpt lat="31.8314355" lon="34.9967013">
<ele>286.000000</ele>
<time>2021-09-24T05:57:12.000Z</time>
</trkpt>
<trkpt lat="31.8313809" lon="34.9966826">
<ele>286.000000</ele>
<time>2021-09-24T05:57:13.000Z</time>
</trkpt>
<trkpt lat="31.8313282" lon="34.9966562">
<ele>285.799988</ele>
<time>2021-09-24T05:57:14.000Z</time>
</trkpt>
<trkpt lat="31.8312738" lon="34.9966261">
<ele>285.600006</ele>
<time>2021-09-24T05:57:15.000Z</time>
</trkpt>
<trkpt lat="31.8311519" lon="34.9965726">
<ele>285.000000</ele>
<time>2021-09-24T05:57:17.000Z</time>
</trkpt>
<trkpt lat="31.8310865" lon="34.9965531">
<ele>284.600006</ele>
<time>2021-09-24T05:57:18.000Z</time>
</trkpt>
<trkpt lat="31.8308855" lon="34.9965032">
<ele>283.799988</ele>
<time>2021-09-24T05:57:21.000Z</time>
</trkpt>
<trkpt lat="31.8308203" lon="34.9964781">
<ele>283.000000</ele>
<time>2021-09-24T05:57:22.000Z</time>
</trkpt>
<trkpt lat="31.8306849" lon="34.9964307">
<ele>282.000000</ele>
<time>2021-09-24T05:57:24.000Z</time>
</trkpt>
<trkpt lat="31.8306107" lon="34.9964199">
<ele>281.399994</ele>
<time>2021-09-24T05:57:25.000Z</time>
</trkpt>
<trkpt lat="31.8305351" lon="34.9964180">
<ele>281.000000</ele>
<time>2021-09-24T05:57:26.000Z</time>
</trkpt>
<trkpt lat="31.8304609" lon="34.9964221">
<ele>280.600006</ele>
<time>2021-09-24T05:57:27.000Z</time>
</trkpt>
<trkpt lat="31.8303901" lon="34.9964349">
<ele>280.399994</ele>
<time>2021-09-24T05:57:28.000Z</time>
</trkpt>
<trkpt lat="31.8303243" lon="34.9964578">
<ele>280.200012</ele>
<time>2021-09-24T05:57:29.000Z</time>
</trkpt>
<trkpt lat="31.8302661" lon="34.9964817">
<ele>279.799988</ele>
<time>2021-09-24T05:57:30.000Z</time>
</trkpt>
<trkpt lat="31.8300660" lon="34.9965299">
<ele>279.399994</ele>
<time>2021-09-24T05:57:35.000Z</time>
</trkpt>
<trkpt lat="31.8298271" lon="34.9966094">
<ele>280.399994</ele>
<time>2021-09-24T05:57:42.000Z</time>
</trkpt>
<trkpt lat="31.8297071" lon="34.9966680">
<ele>281.399994</ele>
<time>2021-09-24T05:57:49.000Z</time>
</trkpt>
<trkpt lat="31.8295948" lon="34.9967358">
<ele>283.000000</ele>
<time>2021-09-24T05:57:58.000Z</time>
</trkpt>
<trkpt lat="31.8294515" lon="34.9968139">
<ele>285.399994</ele>
<time>2021-09-24T05:58:10.000Z</time>
</trkpt>
<trkpt lat="31.8293395" lon="34.9968448">
<ele>287.000000</ele>
<time>2021-09-24T05:58:19.000Z</time>
</trkpt>
<trkpt lat="31.8292343" lon="34.9968921">
<ele>288.000000</ele>
<time>2021-09-24T05:58:28.000Z</time>
</trkpt>
<trkpt lat="31.8291861" lon="34.9969046">
<ele>288.600006</ele>
<time>2021-09-24T05:58:32.000Z</time>
</trkpt>
<trkpt lat="31.8291735" lon="34.9969081">
<ele>288.799988</ele>
<time>2021-09-24T05:58:33.000Z</time>
</trkpt>
<trkpt lat="31.8291581" lon="34.9969084">
<ele>288.799988</ele>
<time>2021-09-24T05:58:34.000Z</time>
</trkpt>
<trkpt lat="31.8289871" lon="34.9969014">
<ele>289.600006</ele>
<time>2021-09-24T05:58:42.000Z</time>
</trkpt>
<trkpt lat="31.8287617" lon="34.9970184">
<ele>289.600006</ele>
<time>2021-09-24T05:58:50.000Z</time>
</trkpt>
<trkpt lat="31.8285392" lon="34.9972794">
<ele>290.200012</ele>
<time>2021-09-24T05:59:00.000Z</time>
</trkpt>
<trkpt lat="31.8282939" lon="34.9976294">
<ele>290.600006</ele>
<time>2021-09-24T05:59:10.000Z</time>
</trkpt>
<trkpt lat="31.8282390" lon="34.9977870">
<ele>290.399994</ele>
<time>2021-09-24T05:59:13.000Z</time>
</trkpt>
<trkpt lat="31.8281915" lon="34.9980132">
<ele>290.200012</ele>
<time>2021-09-24T05:59:17.000Z</time>
</trkpt>
<trkpt lat="31.8281887" lon="34.9980699">
<ele>290.200012</ele>
<time>2021-09-24T05:59:18.000Z</time>
</trkpt>
<trkpt lat="31.8281931" lon="34.9981263">
<ele>290.000000</ele>
<time>2021-09-24T05:59:19.000Z</time>
</trkpt>
<trkpt lat="31.8282044" lon="34.9981782">
<ele>290.000000</ele>
<time>2021-09-24T05:59:20.000Z</time>
</trkpt>
<trkpt lat="31.8282168" lon="34.9982244">
<ele>290.200012</ele>
<time>2021-09-24T05:59:21.000Z</time>
</trkpt>
<trkpt lat="31.8283106" lon="34.9985288">
<ele>291.200012</ele>
<time>2021-09-24T05:59:29.000Z</time>
</trkpt>
<trkpt lat="31.8284592" lon="34.9987647">
<ele>292.600006</ele>
<time>2021-09-24T05:59:37.000Z</time>
</trkpt>
<trkpt lat="31.8286413" lon="34.9990466">
<ele>293.799988</ele>
<time>2021-09-24T05:59:47.000Z</time>
</trkpt>
<trkpt lat="31.8287982" lon="34.9991285">
<ele>294.600006</ele>
<time>2021-09-24T05:59:53.000Z</time>
</trkpt>
<trkpt lat="31.8290369" lon="34.9992347">
<ele>295.000000</ele>
<time>2021-09-24T06:00:02.000Z</time>
</trkpt>
<trkpt lat="31.8291883" lon="34.9993979">
<ele>295.600006</ele>
<time>2021-09-24T06:00:08.000Z</time>
</trkpt>
<trkpt lat="31.8293871" lon="34.9996881">
<ele>295.000000</ele>
<time>2021-09-24T06:00:13.000Z</time>
</trkpt>
<trkpt lat="31.8295605" lon="34.9999467">
<ele>294.000000</ele>
<time>2021-09-24T06:00:17.000Z</time>
</trkpt>
<trkpt lat="31.8297649" lon="35.0001747">
<ele>294.000000</ele>
<time>2021-09-24T06:00:23.000Z</time>
</trkpt>
<trkpt lat="31.8299005" lon="35.0003796">
<ele>295.000000</ele>
<time>2021-09-24T06:00:30.000Z</time>
</trkpt>
<trkpt lat="31.8300441" lon="35.0006414">
<ele>295.600006</ele>
<time>2021-09-24T06:00:37.000Z</time>
</trkpt>
<trkpt lat="31.8300789" lon="35.0006765">
<ele>295.600006</ele>
<time>2021-09-24T06:00:38.000Z</time>
</trkpt>
<trkpt lat="31.8301222" lon="35.0007040">
<ele>295.600006</ele>
<time>2021-09-24T06:00:39.000Z</time>
</trkpt>
<trkpt lat="31.8302125" lon="35.0007623">
<ele>295.600006</ele>
<time>2021-09-24T06:00:41.000Z</time>
</trkpt>
<trkpt lat="31.8302480" lon="35.0008048">
<ele>295.600006</ele>
<time>2021-09-24T06:00:42.000Z</time>
</trkpt>
<trkpt lat="31.8302811" lon="35.0008472">
<ele>295.600006</ele>
<time>2021-09-24T06:00:43.000Z</time>
</trkpt>
<trkpt lat="31.8303180" lon="35.0008818">
<ele>295.600006</ele>
<time>2021-09-24T06:00:44.000Z</time>
</trkpt>
<trkpt lat="31.8303555" lon="35.0009097">
<ele>295.600006</ele>
<time>2021-09-24T06:00:45.000Z</time>
</trkpt>
<trkpt lat="31.8306370" lon="35.0011325">
<ele>296.000000</ele>
<time>2021-09-24T06:00:53.000Z</time>
</trkpt>
<trkpt lat="31.8309284" lon="35.0013290">
<ele>295.799988</ele>
<time>2021-09-24T06:01:00.000Z</time>
</trkpt>
<trkpt lat="31.8310890" lon="35.0014571">
<ele>296.600006</ele>
<time>2021-09-24T06:01:07.000Z</time>
</trkpt>
<trkpt lat="31.8312724" lon="35.0016005">
<ele>298.000000</ele>
<time>2021-09-24T06:01:14.000Z</time>
</trkpt>
<trkpt lat="31.8315535" lon="35.0017165">
<ele>297.799988</ele>
<time>2021-09-24T06:01:21.000Z</time>
</trkpt>
<trkpt lat="31.8315940" lon="35.0017432">
<ele>297.799988</ele>
<time>2021-09-24T06:01:22.000Z</time>
</trkpt>
<trkpt lat="31.8319456" lon="35.0020000">
<ele>297.200012</ele>
<time>2021-09-24T06:01:30.000Z</time>
</trkpt>
<trkpt lat="31.8319954" lon="35.0020400">
<ele>297.000000</ele>
<time>2021-09-24T06:01:31.000Z</time>
</trkpt>
<trkpt lat="31.8320408" lon="35.0020853">
<ele>296.799988</ele>
<time>2021-09-24T06:01:32.000Z</time>
</trkpt>
<trkpt lat="31.8320815" lon="35.0021341">
<ele>296.600006</ele>
<time>2021-09-24T06:01:33.000Z</time>
</trkpt>
<trkpt lat="31.8321143" lon="35.0021818">
<ele>296.399994</ele>
<time>2021-09-24T06:01:34.000Z</time>
</trkpt>
<trkpt lat="31.8321361" lon="35.0022269">
<ele>296.000000</ele>
<time>2021-09-24T06:01:35.000Z</time>
</trkpt>
<trkpt lat="31.8321465" lon="35.0022719">
<ele>295.799988</ele>
<time>2021-09-24T06:01:36.000Z</time>
</trkpt>
<trkpt lat="31.8321444" lon="35.0023159">
<ele>295.600006</ele>
<time>2021-09-24T06:01:37.000Z</time>
</trkpt>
<trkpt lat="31.8321324" lon="35.0023549">
<ele>295.399994</ele>
<time>2021-09-24T06:01:38.000Z</time>
</trkpt>
<trkpt lat="31.8321122" lon="35.0023861">
<ele>295.200012</ele>
<time>2021-09-24T06:01:39.000Z</time>
</trkpt>
<trkpt lat="31.8320817" lon="35.0024107">
<ele>295.200012</ele>
<time>2021-09-24T06:01:40.000Z</time>
</trkpt>
<trkpt lat="31.8320404" lon="35.0024308">
<ele>295.000000</ele>
<time>2021-09-24T06:01:41.000Z</time>
</trkpt>
<trkpt lat="31.8319889" lon="35.0024542">
<ele>294.799988</ele>
<time>2021-09-24T06:01:42.000Z</time>
</trkpt>
<trkpt lat="31.8319292" lon="35.0024850">
<ele>294.600006</ele>
<time>2021-09-24T06:01:43.000Z</time>
</trkpt>
<trkpt lat="31.8318118" lon="35.0025647">
<ele>293.799988</ele>
<time>2021-09-24T06:01:45.000Z</time>
</trkpt>
<trkpt lat="31.8317713" lon="35.0026220">
<ele>293.399994</ele>
<time>2021-09-24T06:01:46.000Z</time>
</trkpt>
<trkpt lat="31.8317477" lon="35.0026912">
<ele>293.000000</ele>
<time>2021-09-24T06:01:47.000Z</time>
</trkpt>
<trkpt lat="31.8317390" lon="35.0027681">
<ele>292.399994</ele>
<time>2021-09-24T06:01:48.000Z</time>
</trkpt>
<trkpt lat="31.8317493" lon="35.0028434">
<ele>291.799988</ele>
<time>2021-09-24T06:01:49.000Z</time>
</trkpt>
<trkpt lat="31.8317777" lon="35.0029167">
<ele>290.600006</ele>
<time>2021-09-24T06:01:50.000Z</time>
</trkpt>
<trkpt lat="31.8318202" lon="35.0029715">
<ele>290.600006</ele>
<time>2021-09-24T06:01:51.000Z</time>
</trkpt>
<trkpt lat="31.8318732" lon="35.0030048">
<ele>289.799988</ele>
<time>2021-09-24T06:01:52.000Z</time>
</trkpt>
<trkpt lat="31.8319321" lon="35.0030171">
<ele>289.000000</ele>
<time>2021-09-24T06:01:53.000Z</time>
</trkpt>
<trkpt lat="31.8319891" lon="35.0030137">
<ele>288.399994</ele>
<time>2021-09-24T06:01:54.000Z</time>
</trkpt>
<trkpt lat="31.8320423" lon="35.0030121">
<ele>287.799988</ele>
<time>2021-09-24T06:01:55.000Z</time>
</trkpt>
<trkpt lat="31.8320906" lon="35.0030296">
<ele>287.399994</ele>
<time>2021-09-24T06:01:56.000Z</time>
</trkpt>
<trkpt lat="31.8321311" lon="35.0030684">
<ele>287.000000</ele>
<time>2021-09-24T06:01:57.000Z</time>
</trkpt>
<trkpt lat="31.8321651" lon="35.0031223">
<ele>286.799988</ele>
<time>2021-09-24T06:01:58.000Z</time>
</trkpt>
<trkpt lat="31.8321966" lon="35.0031837">
<ele>286.399994</ele>
<time>2021-09-24T06:01:59.000Z</time>
</trkpt>
<trkpt lat="31.8322283" lon="35.0032553">
<ele>286.000000</ele>
<time>2021-09-24T06:02:00.000Z</time>
</trkpt>
<trkpt lat="31.8322608" lon="35.0033365">
<ele>285.600006</ele>
<time>2021-09-24T06:02:01.000Z</time>
</trkpt>
<trkpt lat="31.8323389" lon="35.0036000">
<ele>283.799988</ele>
<time>2021-09-24T06:02:04.000Z</time>
</trkpt>
<trkpt lat="31.8323470" lon="35.0036844">
<ele>282.799988</ele>
<time>2021-09-24T06:02:05.000Z</time>
</trkpt>
<trkpt lat="31.8323395" lon="35.0037623">
<ele>282.600006</ele>
<time>2021-09-24T06:02:06.000Z</time>
</trkpt>
<trkpt lat="31.8323148" lon="35.0038331">
<ele>282.399994</ele>
<time>2021-09-24T06:02:07.000Z</time>
</trkpt>
<trkpt lat="31.8322809" lon="35.0038954">
<ele>282.000000</ele>
<time>2021-09-24T06:02:08.000Z</time>
</trkpt>
<trkpt lat="31.8322473" lon="35.0039564">
<ele>281.600006</ele>
<time>2021-09-24T06:02:09.000Z</time>
</trkpt>
<trkpt lat="31.8321110" lon="35.0042236">
<ele>280.600006</ele>
<time>2021-09-24T06:02:13.000Z</time>
</trkpt>
<trkpt lat="31.8320851" lon="35.0043076">
<ele>280.399994</ele>
<time>2021-09-24T06:02:14.000Z</time>
</trkpt>
<trkpt lat="31.8320720" lon="35.0043998">
<ele>280.200012</ele>
<time>2021-09-24T06:02:15.000Z</time>
</trkpt>
<trkpt lat="31.8320756" lon="35.0044939">
<ele>280.000000</ele>
<time>2021-09-24T06:02:16.000Z</time>
</trkpt>
<trkpt lat="31.8320928" lon="35.0045843">
<ele>279.799988</ele>
<time>2021-09-24T06:02:17.000Z</time>
</trkpt>
<trkpt lat="31.8321129" lon="35.0046683">
<ele>279.399994</ele>
<time>2021-09-24T06:02:18.000Z</time>
</trkpt>
<trkpt lat="31.8321275" lon="35.0047461">
<ele>278.399994</ele>
<time>2021-09-24T06:02:19.000Z</time>
</trkpt>
<trkpt lat="31.8321345" lon="35.0048179">
<ele>278.000000</ele>
<time>2021-09-24T06:02:20.000Z</time>
</trkpt>
<trkpt lat="31.8321346" lon="35.0048844">
<ele>277.799988</ele>
<time>2021-09-24T06:02:21.000Z</time>
</trkpt>
<trkpt lat="31.8321284" lon="35.0049459">
<ele>277.399994</ele>
<time>2021-09-24T06:02:22.000Z</time>
</trkpt>
<trkpt lat="31.8321159" lon="35.0050028">
<ele>277.200012</ele>
<time>2021-09-24T06:02:23.000Z</time>
</trkpt>
<trkpt lat="31.8320973" lon="35.0050524">
<ele>277.000000</ele>
<time>2021-09-24T06:02:24.000Z</time>
</trkpt>
<trkpt lat="31.8320735" lon="35.0050942">
<ele>277.000000</ele>
<time>2021-09-24T06:02:25.000Z</time>
</trkpt>
<trkpt lat="31.8320461" lon="35.0051265">
<ele>276.799988</ele>
<time>2021-09-24T06:02:26.000Z</time>
</trkpt>
<trkpt lat="31.8320149" lon="35.0051514">
<ele>276.799988</ele>
<time>2021-09-24T06:02:27.000Z</time>
</trkpt>
<trkpt lat="31.8319791" lon="35.0051637">
<ele>276.799988</ele>
<time>2021-09-24T06:02:28.000Z</time>
</trkpt>
<trkpt lat="31.8319444" lon="35.0051568">
<ele>276.799988</ele>
<time>2021-09-24T06:02:29.000Z</time>
</trkpt>
<trkpt lat="31.8319181" lon="35.0051373">
<ele>277.000000</ele>
<time>2021-09-24T06:02:30.000Z</time>
</trkpt>
<trkpt lat="31.8318971" lon="35.0051154">
<ele>277.000000</ele>
<time>2021-09-24T06:02:31.000Z</time>
</trkpt>
<trkpt lat="31.8318782" lon="35.0050947">
<ele>277.200012</ele>
<time>2021-09-24T06:02:32.000Z</time>
</trkpt>
<trkpt lat="31.8317860" lon="35.0048852">
<ele>277.600006</ele>
<time>2021-09-24T06:02:38.000Z</time>
</trkpt>
<trkpt lat="31.8316528" lon="35.0044654">
<ele>277.200012</ele>
<time>2021-09-24T06:02:46.000Z</time>
</trkpt>
<trkpt lat="31.8316250" lon="35.0044122">
<ele>277.000000</ele>
<time>2021-09-24T06:02:47.000Z</time>
</trkpt>
<trkpt lat="31.8313974" lon="35.0040993">
<ele>276.200012</ele>
<time>2021-09-24T06:02:53.000Z</time>
</trkpt>
<trkpt lat="31.8313621" lon="35.0040650">
<ele>275.799988</ele>
<time>2021-09-24T06:02:54.000Z</time>
</trkpt>
<trkpt lat="31.8313277" lon="35.0040486">
<ele>275.600006</ele>
<time>2021-09-24T06:02:55.000Z</time>
</trkpt>
<trkpt lat="31.8312949" lon="35.0040515">
<ele>275.399994</ele>
<time>2021-09-24T06:02:56.000Z</time>
</trkpt>
<trkpt lat="31.8312704" lon="35.0040668">
<ele>275.000000</ele>
<time>2021-09-24T06:02:57.000Z</time>
</trkpt>
<trkpt lat="31.8312593" lon="35.0040853">
<ele>274.799988</ele>
<time>2021-09-24T06:02:58.000Z</time>
</trkpt>
<trkpt lat="31.8312561" lon="35.0041002">
<ele>274.200012</ele>
<time>2021-09-24T06:02:59.000Z</time>
</trkpt>
<trkpt lat="31.8312752" lon="35.0042478">
<ele>274.200012</ele>
<time>2021-09-24T06:03:08.000Z</time>
</trkpt>
<trkpt lat="31.8313248" lon="35.0043733">
<ele>275.399994</ele>
<time>2021-09-24T06:03:16.000Z</time>
</trkpt>
<trkpt lat="31.8313975" lon="35.0044865">
<ele>276.799988</ele>
<time>2021-09-24T06:03:25.000Z</time>
</trkpt>
<trkpt lat="31.8314742" lon="35.0046207">
<ele>278.399994</ele>
<time>2021-09-24T06:03:35.000Z</time>
</trkpt>
<trkpt lat="31.8315182" lon="35.0047891">
<ele>280.000000</ele>
<time>2021-09-24T06:03:46.000Z</time>
</trkpt>
<trkpt lat="31.8315104" lon="35.0049312">
<ele>281.399994</ele>
<time>2021-09-24T06:03:55.000Z</time>
</trkpt>
<trkpt lat="31.8314816" lon="35.0050849">
<ele>283.600006</ele>
<time>2021-09-24T06:04:06.000Z</time>
</trkpt>
<trkpt lat="31.8314697" lon="35.0052135">
<ele>285.399994</ele>
<time>2021-09-24T06:04:16.000Z</time>
</trkpt>
<trkpt lat="31.8314615" lon="35.0053397">
<ele>287.200012</ele>
<time>2021-09-24T06:04:25.000Z</time>
</trkpt>
<trkpt lat="31.8314123" lon="35.0054467">
<ele>288.799988</ele>
<time>2021-09-24T06:04:34.000Z</time>
</trkpt>
<trkpt lat="31.8313256" lon="35.0054761">
<ele>290.399994</ele>
<time>2021-09-24T06:04:42.000Z</time>
</trkpt>
<trkpt lat="31.8312434" lon="35.0054368">
<ele>292.200012</ele>
<time>2021-09-24T06:04:50.000Z</time>
</trkpt>
<trkpt lat="31.8311425" lon="35.0053766">
<ele>293.600006</ele>
<time>2021-09-24T06:04:59.000Z</time>
</trkpt>
<trkpt lat="31.8309986" lon="35.0052574">
<ele>294.600006</ele>
<time>2021-09-24T06:05:08.000Z</time>
</trkpt>
<trkpt lat="31.8308685" lon="35.0052324">
<ele>295.200012</ele>
<time>2021-09-24T06:05:15.000Z</time>
</trkpt>
<trkpt lat="31.8308553" lon="35.0052505">
<ele>295.399994</ele>
<time>2021-09-24T06:05:16.000Z</time>
</trkpt>
<trkpt lat="31.8308480" lon="35.0052726">
<ele>295.399994</ele>
<time>2021-09-24T06:05:17.000Z</time>
</trkpt>
<trkpt lat="31.8308446" lon="35.0052953">
<ele>295.600006</ele>
<time>2021-09-24T06:05:18.000Z</time>
</trkpt>
<trkpt lat="31.8308428" lon="35.0053147">
<ele>295.799988</ele>
<time>2021-09-24T06:05:19.000Z</time>
</trkpt>
<trkpt lat="31.8308462" lon="35.0053567">
<ele>296.200012</ele>
<time>2021-09-24T06:05:22.000Z</time>
</trkpt>
<trkpt lat="31.8308521" lon="35.0053699">
<ele>296.399994</ele>
<time>2021-09-24T06:05:23.000Z</time>
</trkpt>
<trkpt lat="31.8308577" lon="35.0053837">
<ele>296.600006</ele>
<time>2021-09-24T06:05:24.000Z</time>
</trkpt>
<trkpt lat="31.8308627" lon="35.0053973">
<ele>297.000000</ele>
<time>2021-09-24T06:05:25.000Z</time>
</trkpt>
<trkpt lat="31.8308680" lon="35.0054103">
<ele>297.000000</ele>
<time>2021-09-24T06:05:26.000Z</time>
</trkpt>
<trkpt lat="31.8309056" lon="35.0055834">
<ele>299.000000</ele>
<time>2021-09-24T06:05:38.000Z</time>
</trkpt>
<trkpt lat="31.8308466" lon="35.0057069">
<ele>300.399994</ele>
<time>2021-09-24T06:05:47.000Z</time>
</trkpt>
<trkpt lat="31.8307064" lon="35.0057172">
<ele>301.600006</ele>
<time>2021-09-24T06:05:55.000Z</time>
</trkpt>
<trkpt lat="31.8304894" lon="35.0056944">
<ele>301.799988</ele>
<time>2021-09-24T06:06:02.000Z</time>
</trkpt>
<trkpt lat="31.8302464" lon="35.0057687">
<ele>301.600006</ele>
<time>2021-09-24T06:06:09.000Z</time>
</trkpt>
<trkpt lat="31.8301718" lon="35.0058316">
<ele>302.399994</ele>
<time>2021-09-24T06:06:15.000Z</time>
</trkpt>
<trkpt lat="31.8300882" lon="35.0059802">
<ele>304.200012</ele>
<time>2021-09-24T06:06:26.000Z</time>
</trkpt>
<trkpt lat="31.8300309" lon="35.0061755">
<ele>306.000000</ele>
<time>2021-09-24T06:06:38.000Z</time>
</trkpt>
<trkpt lat="31.8299771" lon="35.0063462">
<ele>307.799988</ele>
<time>2021-09-24T06:06:49.000Z</time>
</trkpt>
<trkpt lat="31.8299347" lon="35.0064802">
<ele>308.799988</ele>
<time>2021-09-24T06:06:58.000Z</time>
</trkpt>
<trkpt lat="31.8298932" lon="35.0066274">
<ele>310.000000</ele>
<time>2021-09-24T06:07:07.000Z</time>
</trkpt>
<trkpt lat="31.8298449" lon="35.0067738">
<ele>311.200012</ele>
<time>2021-09-24T06:07:16.000Z</time>
</trkpt>
<trkpt lat="31.8297793" lon="35.0069209">
<ele>312.199982</ele>
<time>2021-09-24T06:07:25.000Z</time>
</trkpt>
<trkpt lat="31.8296612" lon="35.0071502">
<ele>313.200012</ele>
<time>2021-09-24T06:07:35.000Z</time>
</trkpt>
<trkpt lat="31.8295026" lon="35.0073624">
<ele>313.399994</ele>
<time>2021-09-24T06:07:43.000Z</time>
</trkpt>
<trkpt lat="31.8293615" lon="35.0075011">
<ele>313.600006</ele>
<time>2021-09-24T06:07:48.000Z</time>
</trkpt>
<trkpt lat="31.8292618" lon="35.0075867">
<ele>313.600006</ele>
<time>2021-09-24T06:07:51.000Z</time>
</trkpt>
<trkpt lat="31.8292360" lon="35.0076247">
<ele>313.600006</ele>
<time>2021-09-24T06:07:52.000Z</time>
</trkpt>
<trkpt lat="31.8292193" lon="35.0076696">
<ele>313.399994</ele>
<time>2021-09-24T06:07:53.000Z</time>
</trkpt>
<trkpt lat="31.8292089" lon="35.0077187">
<ele>313.399994</ele>
<time>2021-09-24T06:07:54.000Z</time>
</trkpt>
<trkpt lat="31.8292032" lon="35.0077672">
<ele>313.399994</ele>
<time>2021-09-24T06:07:55.000Z</time>
</trkpt>
<trkpt lat="31.8292037" lon="35.0078096">
<ele>313.399994</ele>
<time>2021-09-24T06:07:56.000Z</time>
</trkpt>
<trkpt lat="31.8292073" lon="35.0078409">
<ele>313.399994</ele>
<time>2021-09-24T06:07:57.000Z</time>
</trkpt>
<trkpt lat="31.8292285" lon="35.0079564">
<ele>314.600006</ele>
<time>2021-09-24T06:08:04.000Z</time>
</trkpt>
<trkpt lat="31.8292622" lon="35.0080810">
<ele>316.399994</ele>
<time>2021-09-24T06:08:12.000Z</time>
</trkpt>
<trkpt lat="31.8292639" lon="35.0080958">
<ele>316.600037</ele>
<time>2021-09-24T06:08:13.000Z</time>
</trkpt>
<trkpt lat="31.8292678" lon="35.0081109">
<ele>316.799988</ele>
<time>2021-09-24T06:08:14.000Z</time>
</trkpt>
<trkpt lat="31.8293062" lon="35.0083272">
<ele>319.599976</ele>
<time>2021-09-24T06:08:27.000Z</time>
</trkpt>
<trkpt lat="31.8293148" lon="35.0084905">
<ele>321.399994</ele>
<time>2021-09-24T06:08:37.000Z</time>
</trkpt>
<trkpt lat="31.8292995" lon="35.0086516">
<ele>322.399994</ele>
<time>2021-09-24T06:08:46.000Z</time>
</trkpt>
<trkpt lat="31.8292895" lon="35.0088479">
<ele>323.600006</ele>
<time>2021-09-24T06:08:56.000Z</time>
</trkpt>
<trkpt lat="31.8292861" lon="35.0090539">
<ele>324.799957</ele>
<time>2021-09-24T06:09:06.000Z</time>
</trkpt>
<trkpt lat="31.8292857" lon="35.0090749">
<ele>325.000000</ele>
<time>2021-09-24T06:09:07.000Z</time>
</trkpt>
<trkpt lat="31.8292838" lon="35.0090965">
<ele>325.000000</ele>
<time>2021-09-24T06:09:08.000Z</time>
</trkpt>
<trkpt lat="31.8292871" lon="35.0091192">
<ele>325.200012</ele>
<time>2021-09-24T06:09:09.000Z</time>
</trkpt>
<trkpt lat="31.8292910" lon="35.0091424">
<ele>325.200012</ele>
<time>2021-09-24T06:09:10.000Z</time>
</trkpt>
<trkpt lat="31.8292924" lon="35.0091657">
<ele>325.200012</ele>
<time>2021-09-24T06:09:11.000Z</time>
</trkpt>
<trkpt lat="31.8292924" lon="35.0091900">
<ele>325.399994</ele>
<time>2021-09-24T06:09:12.000Z</time>
</trkpt>
<trkpt lat="31.8292866" lon="35.0093797">
<ele>326.399994</ele>
<time>2021-09-24T06:09:20.000Z</time>
</trkpt>
<trkpt lat="31.8292682" lon="35.0096974">
<ele>327.399994</ele>
<time>2021-09-24T06:09:32.000Z</time>
</trkpt>
<trkpt lat="31.8292798" lon="35.0099115">
<ele>327.799988</ele>
<time>2021-09-24T06:09:40.000Z</time>
</trkpt>
<trkpt lat="31.8293196" lon="35.0102695">
<ele>328.600006</ele>
<time>2021-09-24T06:09:51.000Z</time>
</trkpt>
<trkpt lat="31.8293964" lon="35.0105525">
<ele>329.200012</ele>
<time>2021-09-24T06:10:00.000Z</time>
</trkpt>
<trkpt lat="31.8294881" lon="35.0108686">
<ele>330.799988</ele>
<time>2021-09-24T06:10:11.000Z</time>
</trkpt>
<trkpt lat="31.8295053" lon="35.0111399">
<ele>331.799988</ele>
<time>2021-09-24T06:10:21.000Z</time>
</trkpt>
<trkpt lat="31.8294085" lon="35.0113841">
<ele>332.399994</ele>
<time>2021-09-24T06:10:28.000Z</time>
</trkpt>
<trkpt lat="31.8293751" lon="35.0114198">
<ele>332.399994</ele>
<time>2021-09-24T06:10:29.000Z</time>
</trkpt>
<trkpt lat="31.8292614" lon="35.0115354">
<ele>331.399963</ele>
<time>2021-09-24T06:10:32.000Z</time>
</trkpt>
<trkpt lat="31.8292229" lon="35.0115903">
<ele>331.000000</ele>
<time>2021-09-24T06:10:33.000Z</time>
</trkpt>
<trkpt lat="31.8291887" lon="35.0116589">
<ele>330.599976</ele>
<time>2021-09-24T06:10:34.000Z</time>
</trkpt>
<trkpt lat="31.8291604" lon="35.0117391">
<ele>330.200012</ele>
<time>2021-09-24T06:10:35.000Z</time>
</trkpt>
<trkpt lat="31.8291322" lon="35.0118240">
<ele>329.799988</ele>
<time>2021-09-24T06:10:36.000Z</time>
</trkpt>
<trkpt lat="31.8290990" lon="35.0119032">
<ele>329.200012</ele>
<time>2021-09-24T06:10:37.000Z</time>
</trkpt>
<trkpt lat="31.8290665" lon="35.0119760">
<ele>328.600006</ele>
<time>2021-09-24T06:10:38.000Z</time>
</trkpt>
<trkpt lat="31.8290331" lon="35.0120430">
<ele>328.200012</ele>
<time>2021-09-24T06:10:39.000Z</time>
</trkpt>
<trkpt lat="31.8289949" lon="35.0121037">
<ele>328.000000</ele>
<time>2021-09-24T06:10:40.000Z</time>
</trkpt>
<trkpt lat="31.8287762" lon="35.0123968">
<ele>326.199982</ele>
<time>2021-09-24T06:10:46.000Z</time>
</trkpt>
<trkpt lat="31.8287412" lon="35.0124486">
<ele>326.000000</ele>
<time>2021-09-24T06:10:47.000Z</time>
</trkpt>
<trkpt lat="31.8285558" lon="35.0127252">
<ele>322.799988</ele>
<time>2021-09-24T06:10:52.000Z</time>
</trkpt>
<trkpt lat="31.8284825" lon="35.0128101">
<ele>320.799988</ele>
<time>2021-09-24T06:10:54.000Z</time>
</trkpt>
<trkpt lat="31.8284425" lon="35.0128520">
<ele>319.799988</ele>
<time>2021-09-24T06:10:55.000Z</time>
</trkpt>
<trkpt lat="31.8284070" lon="35.0129024">
<ele>319.000000</ele>
<time>2021-09-24T06:10:56.000Z</time>
</trkpt>
<trkpt lat="31.8283811" lon="35.0129637">
<ele>318.200012</ele>
<time>2021-09-24T06:10:57.000Z</time>
</trkpt>
<trkpt lat="31.8283614" lon="35.0130390">
<ele>317.400024</ele>
<time>2021-09-24T06:10:58.000Z</time>
</trkpt>
<trkpt lat="31.8283405" lon="35.0131231">
<ele>316.200012</ele>
<time>2021-09-24T06:10:59.000Z</time>
</trkpt>
<trkpt lat="31.8283124" lon="35.0132089">
<ele>315.399994</ele>
<time>2021-09-24T06:11:00.000Z</time>
</trkpt>
<trkpt lat="31.8282571" lon="35.0133729">
<ele>313.399994</ele>
<time>2021-09-24T06:11:02.000Z</time>
</trkpt>
<trkpt lat="31.8282423" lon="35.0134480">
<ele>311.799988</ele>
<time>2021-09-24T06:11:03.000Z</time>
</trkpt>
<trkpt lat="31.8282333" lon="35.0135193">
<ele>311.799988</ele>
<time>2021-09-24T06:11:04.000Z</time>
</trkpt>
<trkpt lat="31.8282329" lon="35.0135824">
<ele>311.399994</ele>
<time>2021-09-24T06:11:05.000Z</time>
</trkpt>
<trkpt lat="31.8282438" lon="35.0136402">
<ele>310.399994</ele>
<time>2021-09-24T06:11:06.000Z</time>
</trkpt>
<trkpt lat="31.8282658" lon="35.0136991">
<ele>309.600006</ele>
<time>2021-09-24T06:11:07.000Z</time>
</trkpt>
<trkpt lat="31.8282959" lon="35.0137598">
<ele>308.799988</ele>
<time>2021-09-24T06:11:08.000Z</time>
</trkpt>
<trkpt lat="31.8283308" lon="35.0138232">
<ele>308.200012</ele>
<time>2021-09-24T06:11:09.000Z</time>
</trkpt>
<trkpt lat="31.8283658" lon="35.0138898">
<ele>307.799988</ele>
<time>2021-09-24T06:11:10.000Z</time>
</trkpt>
<trkpt lat="31.8283971" lon="35.0139612">
<ele>307.399994</ele>
<time>2021-09-24T06:11:11.000Z</time>
</trkpt>
<trkpt lat="31.8284945" lon="35.0142516">
<ele>305.600006</ele>
<time>2021-09-24T06:11:15.000Z</time>
</trkpt>
<trkpt lat="31.8284975" lon="35.0143243">
<ele>305.399994</ele>
<time>2021-09-24T06:11:16.000Z</time>
</trkpt>
<trkpt lat="31.8284907" lon="35.0143938">
<ele>305.000000</ele>
<time>2021-09-24T06:11:17.000Z</time>
</trkpt>
<trkpt lat="31.8284645" lon="35.0145719">
<ele>303.799988</ele>
<time>2021-09-24T06:11:21.000Z</time>
</trkpt>
<trkpt lat="31.8284590" lon="35.0146147">
<ele>303.600006</ele>
<time>2021-09-24T06:11:23.000Z</time>
</trkpt>
<trkpt lat="31.8284630" lon="35.0146345">
<ele>303.399994</ele>
<time>2021-09-24T06:11:24.000Z</time>
</trkpt>
<trkpt lat="31.8284663" lon="35.0146529">
<ele>303.399994</ele>
<time>2021-09-24T06:11:25.000Z</time>
</trkpt>
<trkpt lat="31.8284673" lon="35.0146794">
<ele>303.000000</ele>
<time>2021-09-24T06:11:27.000Z</time>
</trkpt>
<trkpt lat="31.8284637" lon="35.0146906">
<ele>303.000000</ele>
<time>2021-09-24T06:11:28.000Z</time>
</trkpt>
<trkpt lat="31.8284599" lon="35.0146980">
<ele>302.799988</ele>
<time>2021-09-24T06:11:33.000Z</time>
</trkpt>
<trkpt lat="31.8284592" lon="35.0147415">
<ele>302.200012</ele>
<time>2021-09-24T06:12:00.000Z</time>
</trkpt>
<trkpt lat="31.8284607" lon="35.0147663">
<ele>302.000000</ele>
<time>2021-09-24T06:12:01.000Z</time>
</trkpt>
<trkpt lat="31.8284615" lon="35.0147952">
<ele>301.799988</ele>
<time>2021-09-24T06:12:02.000Z</time>
</trkpt>
<trkpt lat="31.8284754" lon="35.0151402">
<ele>301.799988</ele>
<time>2021-09-24T06:12:12.000Z</time>
</trkpt>
<trkpt lat="31.8285170" lon="35.0155466">
<ele>302.600006</ele>
<time>2021-09-24T06:12:23.000Z</time>
</trkpt>
<trkpt lat="31.8284934" lon="35.0158286">
<ele>302.399994</ele>
<time>2021-09-24T06:12:28.000Z</time>
</trkpt>
<trkpt lat="31.8284764" lon="35.0163436">
<ele>301.000000</ele>
<time>2021-09-24T06:12:34.000Z</time>
</trkpt>
<trkpt lat="31.8284738" lon="35.0164238">
<ele>300.600006</ele>
<time>2021-09-24T06:12:35.000Z</time>
</trkpt>
<trkpt lat="31.8284591" lon="35.0165011">
<ele>300.200012</ele>
<time>2021-09-24T06:12:36.000Z</time>
</trkpt>
<trkpt lat="31.8284293" lon="35.0165705">
<ele>300.200012</ele>
<time>2021-09-24T06:12:37.000Z</time>
</trkpt>
<trkpt lat="31.8283835" lon="35.0166258">
<ele>300.000000</ele>
<time>2021-09-24T06:12:38.000Z</time>
</trkpt>
<trkpt lat="31.8283242" lon="35.0166682">
<ele>299.799988</ele>
<time>2021-09-24T06:12:39.000Z</time>
</trkpt>
<trkpt lat="31.8282587" lon="35.0167021">
<ele>298.799988</ele>
<time>2021-09-24T06:12:40.000Z</time>
</trkpt>
<trkpt lat="31.8281936" lon="35.0167350">
<ele>298.200012</ele>
<time>2021-09-24T06:12:41.000Z</time>
</trkpt>
<trkpt lat="31.8280710" lon="35.0167938">
<ele>297.200012</ele>
<time>2021-09-24T06:12:43.000Z</time>
</trkpt>
<trkpt lat="31.8280119" lon="35.0168081">
<ele>296.799988</ele>
<time>2021-09-24T06:12:44.000Z</time>
</trkpt>
<trkpt lat="31.8279538" lon="35.0168108">
<ele>296.399994</ele>
<time>2021-09-24T06:12:45.000Z</time>
</trkpt>
<trkpt lat="31.8279004" lon="35.0168038">
<ele>295.799988</ele>
<time>2021-09-24T06:12:46.000Z</time>
</trkpt>
<trkpt lat="31.8278524" lon="35.0167916">
<ele>295.600006</ele>
<time>2021-09-24T06:12:47.000Z</time>
</trkpt>
<trkpt lat="31.8275710" lon="35.0166994">
<ele>294.399994</ele>
<time>2021-09-24T06:12:55.000Z</time>
</trkpt>
<trkpt lat="31.8273704" lon="35.0165668">
<ele>295.399994</ele>
<time>2021-09-24T06:13:04.000Z</time>
</trkpt>
<trkpt lat="31.8272204" lon="35.0164399">
<ele>296.200012</ele>
<time>2021-09-24T06:13:11.000Z</time>
</trkpt>
<trkpt lat="31.8271190" lon="35.0163419">
<ele>296.200012</ele>
<time>2021-09-24T06:13:17.000Z</time>
</trkpt>
<trkpt lat="31.8271024" lon="35.0163326">
<ele>295.399994</ele>
<time>2021-09-24T06:13:23.000Z</time>
</trkpt>
<trkpt lat="31.8271391" lon="35.0163733">
<ele>296.200012</ele>
<time>2021-09-24T06:13:42.000Z</time>
</trkpt>
<trkpt lat="31.8271524" lon="35.0163828">
<ele>296.000000</ele>
<time>2021-09-24T06:13:43.000Z</time>
</trkpt>
<trkpt lat="31.8271689" lon="35.0163949">
<ele>296.000000</ele>
<time>2021-09-24T06:13:44.000Z</time>
</trkpt>
<trkpt lat="31.8273304" lon="35.0165404">
<ele>295.799988</ele>
<time>2021-09-24T06:13:53.000Z</time>
</trkpt>
<trkpt lat="31.8274492" lon="35.0166056">
<ele>296.000000</ele>
<time>2021-09-24T06:13:59.000Z</time>
</trkpt>
<trkpt lat="31.8274636" lon="35.0165924">
<ele>296.000000</ele>
<time>2021-09-24T06:14:00.000Z</time>
</trkpt>
<trkpt lat="31.8274715" lon="35.0165687">
<ele>295.799988</ele>
<time>2021-09-24T06:14:01.000Z</time>
</trkpt>
<trkpt lat="31.8274729" lon="35.0165384">
<ele>295.799988</ele>
<time>2021-09-24T06:14:02.000Z</time>
</trkpt>
<trkpt lat="31.8274694" lon="35.0165044">
<ele>295.600006</ele>
<time>2021-09-24T06:14:03.000Z</time>
</trkpt>
<trkpt lat="31.8274641" lon="35.0164696">
<ele>295.399994</ele>
<time>2021-09-24T06:14:04.000Z</time>
</trkpt>
<trkpt lat="31.8274392" lon="35.0162845">
<ele>294.200012</ele>
<time>2021-09-24T06:14:09.000Z</time>
</trkpt>
<trkpt lat="31.8274143" lon="35.0161341">
<ele>293.200012</ele>
<time>2021-09-24T06:14:12.000Z</time>
</trkpt>
<trkpt lat="31.8273877" lon="35.0161022">
<ele>292.799988</ele>
<time>2021-09-24T06:14:13.000Z</time>
</trkpt>
<trkpt lat="31.8273555" lon="35.0160783">
<ele>291.799988</ele>
<time>2021-09-24T06:14:14.000Z</time>
</trkpt>
<trkpt lat="31.8273208" lon="35.0160530">
<ele>291.399994</ele>
<time>2021-09-24T06:14:15.000Z</time>
</trkpt>
<trkpt lat="31.8272863" lon="35.0160216">
<ele>291.000000</ele>
<time>2021-09-24T06:14:16.000Z</time>
</trkpt>
<trkpt lat="31.8272573" lon="35.0159851">
<ele>290.600006</ele>
<time>2021-09-24T06:14:17.000Z</time>
</trkpt>
<trkpt lat="31.8272363" lon="35.0159421">
<ele>290.200012</ele>
<time>2021-09-24T06:14:18.000Z</time>
</trkpt>
<trkpt lat="31.8272206" lon="35.0158952">
<ele>290.000000</ele>
<time>2021-09-24T06:14:19.000Z</time>
</trkpt>
<trkpt lat="31.8272062" lon="35.0158447">
<ele>289.600006</ele>
<time>2021-09-24T06:14:20.000Z</time>
</trkpt>
<trkpt lat="31.8271006" lon="35.0156201">
<ele>288.600006</ele>
<time>2021-09-24T06:14:24.000Z</time>
</trkpt>
<trkpt lat="31.8270570" lon="35.0155646">
<ele>288.200012</ele>
<time>2021-09-24T06:14:25.000Z</time>
</trkpt>
<trkpt lat="31.8270047" lon="35.0155177">
<ele>288.000000</ele>
<time>2021-09-24T06:14:26.000Z</time>
</trkpt>
<trkpt lat="31.8269456" lon="35.0154796">
<ele>287.200012</ele>
<time>2021-09-24T06:14:27.000Z</time>
</trkpt>
<trkpt lat="31.8268823" lon="35.0154512">
<ele>286.600006</ele>
<time>2021-09-24T06:14:28.000Z</time>
</trkpt>
<trkpt lat="31.8268181" lon="35.0154313">
<ele>286.200012</ele>
<time>2021-09-24T06:14:29.000Z</time>
</trkpt>
<trkpt lat="31.8267545" lon="35.0154168">
<ele>285.799988</ele>
<time>2021-09-24T06:14:30.000Z</time>
</trkpt>
<trkpt lat="31.8266932" lon="35.0154065">
<ele>285.600006</ele>
<time>2021-09-24T06:14:31.000Z</time>
</trkpt>
<trkpt lat="31.8263930" lon="35.0153702">
<ele>284.200012</ele>
<time>2021-09-24T06:14:36.000Z</time>
</trkpt>
<trkpt lat="31.8263316" lon="35.0153751">
<ele>284.000000</ele>
<time>2021-09-24T06:14:37.000Z</time>
</trkpt>
<trkpt lat="31.8262718" lon="35.0153885">
<ele>283.600006</ele>
<time>2021-09-24T06:14:38.000Z</time>
</trkpt>
<trkpt lat="31.8262140" lon="35.0154079">
<ele>283.399994</ele>
<time>2021-09-24T06:14:39.000Z</time>
</trkpt>
<trkpt lat="31.8261578" lon="35.0154304">
<ele>283.200012</ele>
<time>2021-09-24T06:14:40.000Z</time>
</trkpt>
<trkpt lat="31.8256191" lon="35.0157079">
<ele>281.600006</ele>
<time>2021-09-24T06:14:50.000Z</time>
</trkpt>
<trkpt lat="31.8254367" lon="35.0158070">
<ele>281.200012</ele>
<time>2021-09-24T06:14:55.000Z</time>
</trkpt>
<trkpt lat="31.8252876" lon="35.0158935">
<ele>280.799988</ele>
<time>2021-09-24T06:15:02.000Z</time>
</trkpt>
<trkpt lat="31.8250452" lon="35.0160988">
<ele>280.000000</ele>
<time>2021-09-24T06:15:10.000Z</time>
</trkpt>
<trkpt lat="31.8249136" lon="35.0162073">
<ele>279.600006</ele>
<time>2021-09-24T06:15:14.000Z</time>
</trkpt>
<trkpt lat="31.8248381" lon="35.0162534">
<ele>279.399994</ele>
<time>2021-09-24T06:15:16.000Z</time>
</trkpt>
<trkpt lat="31.8246930" lon="35.0162929">
<ele>279.200012</ele>
<time>2021-09-24T06:15:19.000Z</time>
</trkpt>
<trkpt lat="31.8242145" lon="35.0163109">
<ele>277.399994</ele>
<time>2021-09-24T06:15:26.000Z</time>
</trkpt>
<trkpt lat="31.8237203" lon="35.0163046">
<ele>274.200012</ele>
<time>2021-09-24T06:15:32.000Z</time>
</trkpt>
<trkpt lat="31.8236408" lon="35.0163032">
<ele>274.200012</ele>
<time>2021-09-24T06:15:33.000Z</time>
</trkpt>
<trkpt lat="31.8233403" lon="35.0162974">
<ele>272.399994</ele>
<time>2021-09-24T06:15:37.000Z</time>
</trkpt>
<trkpt lat="31.8232760" lon="35.0162987">
<ele>272.000000</ele>
<time>2021-09-24T06:15:38.000Z</time>
</trkpt>
<trkpt lat="31.8230668" lon="35.0162446">
<ele>270.399994</ele>
<time>2021-09-24T06:15:44.000Z</time>
</trkpt>
<trkpt lat="31.8230508" lon="35.0162373">
<ele>270.399994</ele>
<time>2021-09-24T06:15:45.000Z</time>
</trkpt>
<trkpt lat="31.8229330" lon="35.0162685">
<ele>269.799988</ele>
<time>2021-09-24T06:15:51.000Z</time>
</trkpt>
<trkpt lat="31.8227882" lon="35.0164286">
<ele>270.000000</ele>
<time>2021-09-24T06:15:59.000Z</time>
</trkpt>
<trkpt lat="31.8226625" lon="35.0166305">
<ele>270.600006</ele>
<time>2021-09-24T06:16:08.000Z</time>
</trkpt>
<trkpt lat="31.8225048" lon="35.0169144">
<ele>270.799988</ele>
<time>2021-09-24T06:16:18.000Z</time>
</trkpt>
<trkpt lat="31.8223904" lon="35.0172050">
<ele>270.799988</ele>
<time>2021-09-24T06:16:26.000Z</time>
</trkpt>
<trkpt lat="31.8222974" lon="35.0175458">
<ele>271.399994</ele>
<time>2021-09-24T06:16:36.000Z</time>
</trkpt>
<trkpt lat="31.8222221" lon="35.0178501">
<ele>272.000000</ele>
<time>2021-09-24T06:16:46.000Z</time>
</trkpt>
<trkpt lat="31.8221397" lon="35.0181569">
<ele>272.399994</ele>
<time>2021-09-24T06:16:55.000Z</time>
</trkpt>
<trkpt lat="31.8220636" lon="35.0185059">
<ele>272.799988</ele>
<time>2021-09-24T06:17:06.000Z</time>
</trkpt>
<trkpt lat="31.8219709" lon="35.0188314">
<ele>273.000000</ele>
<time>2021-09-24T06:17:16.000Z</time>
</trkpt>
<trkpt lat="31.8218989" lon="35.0191682">
<ele>273.000000</ele>
<time>2021-09-24T06:17:24.000Z</time>
</trkpt>
<trkpt lat="31.8218168" lon="35.0195417">
<ele>272.600006</ele>
<time>2021-09-24T06:17:31.000Z</time>
</trkpt>
<trkpt lat="31.8217986" lon="35.0196014">
<ele>272.399994</ele>
<time>2021-09-24T06:17:32.000Z</time>
</trkpt>
<trkpt lat="31.8217723" lon="35.0196577">
<ele>272.399994</ele>
<time>2021-09-24T06:17:33.000Z</time>
</trkpt>
<trkpt lat="31.8217401" lon="35.0197074">
<ele>272.399994</ele>
<time>2021-09-24T06:17:34.000Z</time>
</trkpt>
<trkpt lat="31.8217039" lon="35.0197457">
<ele>272.399994</ele>
<time>2021-09-24T06:17:35.000Z</time>
</trkpt>
<trkpt lat="31.8216626" lon="35.0197694">
<ele>272.000000</ele>
<time>2021-09-24T06:17:36.000Z</time>
</trkpt>
<trkpt lat="31.8216194" lon="35.0197772">
<ele>271.600006</ele>
<time>2021-09-24T06:17:37.000Z</time>
</trkpt>
<trkpt lat="31.8215787" lon="35.0197770">
<ele>271.399994</ele>
<time>2021-09-24T06:17:38.000Z</time>
</trkpt>
<trkpt lat="31.8215402" lon="35.0197724">
<ele>271.399994</ele>
<time>2021-09-24T06:17:39.000Z</time>
</trkpt>
<trkpt lat="31.8215042" lon="35.0197624">
<ele>271.399994</ele>
<time>2021-09-24T06:17:40.000Z</time>
</trkpt>
<trkpt lat="31.8214683" lon="35.0197516">
<ele>271.200012</ele>
<time>2021-09-24T06:17:41.000Z</time>
</trkpt>
<trkpt lat="31.8213955" lon="35.0196764">
<ele>271.000000</ele>
<time>2021-09-24T06:17:44.000Z</time>
</trkpt>
<trkpt lat="31.8213762" lon="35.0196522">
<ele>271.000000</ele>
<time>2021-09-24T06:17:45.000Z</time>
</trkpt>
<trkpt lat="31.8211315" lon="35.0194716">
<ele>271.600006</ele>
<time>2021-09-24T06:17:54.000Z</time>
</trkpt>
<trkpt lat="31.8209513" lon="35.0193274">
<ele>273.600006</ele>
<time>2021-09-24T06:18:03.000Z</time>
</trkpt>
<trkpt lat="31.8208241" lon="35.0191703">
<ele>274.200012</ele>
<time>2021-09-24T06:18:09.000Z</time>
</trkpt>
<trkpt lat="31.8206732" lon="35.0189663">
<ele>274.600006</ele>
<time>2021-09-24T06:18:16.000Z</time>
</trkpt>
<trkpt lat="31.8206457" lon="35.0189089">
<ele>274.600006</ele>
<time>2021-09-24T06:18:17.000Z</time>
</trkpt>
<trkpt lat="31.8204947" lon="35.0186378">
<ele>274.600006</ele>
<time>2021-09-24T06:18:23.000Z</time>
</trkpt>
<trkpt lat="31.8204783" lon="35.0184515">
<ele>274.600006</ele>
<time>2021-09-24T06:18:26.000Z</time>
</trkpt>
<trkpt lat="31.8204747" lon="35.0184000">
<ele>274.600006</ele>
<time>2021-09-24T06:18:27.000Z</time>
</trkpt>
<trkpt lat="31.8204135" lon="35.0182348">
<ele>274.600006</ele>
<time>2021-09-24T06:18:32.000Z</time>
</trkpt>
<trkpt lat="31.8203453" lon="35.0180796">
<ele>276.600006</ele>
<time>2021-09-24T06:18:42.000Z</time>
</trkpt>
<trkpt lat="31.8202166" lon="35.0179613">
<ele>278.600006</ele>
<time>2021-09-24T06:18:53.000Z</time>
</trkpt>
<trkpt lat="31.8201112" lon="35.0179021">
<ele>280.000000</ele>
<time>2021-09-24T06:19:02.000Z</time>
</trkpt>
<trkpt lat="31.8199910" lon="35.0178297">
<ele>281.399994</ele>
<time>2021-09-24T06:19:12.000Z</time>
</trkpt>
<trkpt lat="31.8198846" lon="35.0177681">
<ele>282.200012</ele>
<time>2021-09-24T06:19:21.000Z</time>
</trkpt>
<trkpt lat="31.8197509" lon="35.0176851">
<ele>283.799988</ele>
<time>2021-09-24T06:19:32.000Z</time>
</trkpt>
<trkpt lat="31.8196428" lon="35.0176090">
<ele>285.200012</ele>
<time>2021-09-24T06:19:41.000Z</time>
</trkpt>
<trkpt lat="31.8196230" lon="35.0175279">
<ele>286.200012</ele>
<time>2021-09-24T06:19:46.000Z</time>
</trkpt>
<trkpt lat="31.8196259" lon="35.0175074">
<ele>286.399994</ele>
<time>2021-09-24T06:19:47.000Z</time>
</trkpt>
<trkpt lat="31.8196250" lon="35.0174876">
<ele>286.600006</ele>
<time>2021-09-24T06:19:48.000Z</time>
</trkpt>
<trkpt lat="31.8196278" lon="35.0174698">
<ele>286.799988</ele>
<time>2021-09-24T06:19:49.000Z</time>
</trkpt>
<trkpt lat="31.8196360" lon="35.0174550">
<ele>286.799988</ele>
<time>2021-09-24T06:19:50.000Z</time>
</trkpt>
<trkpt lat="31.8196458" lon="35.0174386">
<ele>287.000000</ele>
<time>2021-09-24T06:19:51.000Z</time>
</trkpt>
<trkpt lat="31.8197725" lon="35.0172912">
<ele>287.399994</ele>
<time>2021-09-24T06:19:59.000Z</time>
</trkpt>
<trkpt lat="31.8200152" lon="35.0170459">
<ele>287.000000</ele>
<time>2021-09-24T06:20:08.000Z</time>
</trkpt>
<trkpt lat="31.8203608" lon="35.0167719">
<ele>286.200012</ele>
<time>2021-09-24T06:20:16.000Z</time>
</trkpt>
<trkpt lat="31.8205835" lon="35.0166243">
<ele>285.200012</ele>
<time>2021-09-24T06:20:20.000Z</time>
</trkpt>
<trkpt lat="31.8206365" lon="35.0165733">
<ele>285.000000</ele>
<time>2021-09-24T06:20:21.000Z</time>
</trkpt>
<trkpt lat="31.8207881" lon="35.0163990">
<ele>284.600006</ele>
<time>2021-09-24T06:20:24.000Z</time>
</trkpt>
<trkpt lat="31.8208232" lon="35.0163275">
<ele>284.399994</ele>
<time>2021-09-24T06:20:25.000Z</time>
</trkpt>
<trkpt lat="31.8208440" lon="35.0162493">
<ele>284.200012</ele>
<time>2021-09-24T06:20:26.000Z</time>
</trkpt>
<trkpt lat="31.8208500" lon="35.0161684">
<ele>283.799988</ele>
<time>2021-09-24T06:20:27.000Z</time>
</trkpt>
<trkpt lat="31.8208387" lon="35.0160910">
<ele>283.200012</ele>
<time>2021-09-24T06:20:28.000Z</time>
</trkpt>
<trkpt lat="31.8208090" lon="35.0160230">
<ele>282.799988</ele>
<time>2021-09-24T06:20:29.000Z</time>
</trkpt>
<trkpt lat="31.8207668" lon="35.0159643">
<ele>282.600006</ele>
<time>2021-09-24T06:20:30.000Z</time>
</trkpt>
<trkpt lat="31.8207205" lon="35.0159144">
<ele>282.000000</ele>
<time>2021-09-24T06:20:31.000Z</time>
</trkpt>
<trkpt lat="31.8206728" lon="35.0158719">
<ele>281.600006</ele>
<time>2021-09-24T06:20:32.000Z</time>
</trkpt>
<trkpt lat="31.8206259" lon="35.0158354">
<ele>281.399994</ele>
<time>2021-09-24T06:20:33.000Z</time>
</trkpt>
<trkpt lat="31.8205159" lon="35.0157257">
<ele>281.200012</ele>
<time>2021-09-24T06:20:36.000Z</time>
</trkpt>
<trkpt lat="31.8204938" lon="35.0156832">
<ele>281.200012</ele>
<time>2021-09-24T06:20:37.000Z</time>
</trkpt>
<trkpt lat="31.8204750" lon="35.0156388">
<ele>281.000000</ele>
<time>2021-09-24T06:20:38.000Z</time>
</trkpt>
<trkpt lat="31.8204581" lon="35.0155903">
<ele>280.799988</ele>
<time>2021-09-24T06:20:39.000Z</time>
</trkpt>
<trkpt lat="31.8204438" lon="35.0155375">
<ele>280.799988</ele>
<time>2021-09-24T06:20:40.000Z</time>
</trkpt>
<trkpt lat="31.8204334" lon="35.0154811">
<ele>280.799988</ele>
<time>2021-09-24T06:20:41.000Z</time>
</trkpt>
<trkpt lat="31.8204284" lon="35.0154216">
<ele>280.799988</ele>
<time>2021-09-24T06:20:42.000Z</time>
</trkpt>
<trkpt lat="31.8204325" lon="35.0153596">
<ele>280.600006</ele>
<time>2021-09-24T06:20:43.000Z</time>
</trkpt>
<trkpt lat="31.8204469" lon="35.0152966">
<ele>280.600006</ele>
<time>2021-09-24T06:20:44.000Z</time>
</trkpt>
<trkpt lat="31.8204731" lon="35.0152369">
<ele>280.399994</ele>
<time>2021-09-24T06:20:45.000Z</time>
</trkpt>
<trkpt lat="31.8205063" lon="35.0151803">
<ele>280.000000</ele>
<time>2021-09-24T06:20:46.000Z</time>
</trkpt>
<trkpt lat="31.8205462" lon="35.0151265">
<ele>280.000000</ele>
<time>2021-09-24T06:20:47.000Z</time>
</trkpt>
<trkpt lat="31.8205920" lon="35.0150771">
<ele>280.000000</ele>
<time>2021-09-24T06:20:48.000Z</time>
</trkpt>
<trkpt lat="31.8206421" lon="35.0150324">
<ele>279.799988</ele>
<time>2021-09-24T06:20:49.000Z</time>
</trkpt>
<trkpt lat="31.8206961" lon="35.0149930">
<ele>279.799988</ele>
<time>2021-09-24T06:20:50.000Z</time>
</trkpt>
<trkpt lat="31.8207512" lon="35.0149590">
<ele>279.600006</ele>
<time>2021-09-24T06:20:51.000Z</time>
</trkpt>
<trkpt lat="31.8208078" lon="35.0149288">
<ele>279.600006</ele>
<time>2021-09-24T06:20:52.000Z</time>
</trkpt>
<trkpt lat="31.8211788" lon="35.0146793">
<ele>278.200012</ele>
<time>2021-09-24T06:20:58.000Z</time>
</trkpt>
<trkpt lat="31.8214627" lon="35.0143672">
<ele>276.399994</ele>
<time>2021-09-24T06:21:03.000Z</time>
</trkpt>
<trkpt lat="31.8215054" lon="35.0142883">
<ele>276.000000</ele>
<time>2021-09-24T06:21:04.000Z</time>
</trkpt>
<trkpt lat="31.8216694" lon="35.0137848">
<ele>274.399994</ele>
<time>2021-09-24T06:21:10.000Z</time>
</trkpt>
<trkpt lat="31.8218262" lon="35.0130517">
<ele>272.600006</ele>
<time>2021-09-24T06:21:19.000Z</time>
</trkpt>
<trkpt lat="31.8219709" lon="35.0123512">
<ele>272.000000</ele>
<time>2021-09-24T06:21:28.000Z</time>
</trkpt>
<trkpt lat="31.8219806" lon="35.0120389">
<ele>271.799988</ele>
<time>2021-09-24T06:21:32.000Z</time>
</trkpt>
<trkpt lat="31.8219664" lon="35.0119648">
<ele>271.600006</ele>
<time>2021-09-24T06:21:33.000Z</time>
</trkpt>
<trkpt lat="31.8219461" lon="35.0118917">
<ele>271.600006</ele>
<time>2021-09-24T06:21:34.000Z</time>
</trkpt>
<trkpt lat="31.8219199" lon="35.0118198">
<ele>271.600006</ele>
<time>2021-09-24T06:21:35.000Z</time>
</trkpt>
<trkpt lat="31.8218903" lon="35.0117515">
<ele>271.399994</ele>
<time>2021-09-24T06:21:36.000Z</time>
</trkpt>
<trkpt lat="31.8218336" lon="35.0116141">
<ele>271.200012</ele>
<time>2021-09-24T06:21:38.000Z</time>
</trkpt>
<trkpt lat="31.8218121" lon="35.0115416">
<ele>271.200012</ele>
<time>2021-09-24T06:21:39.000Z</time>
</trkpt>
<trkpt lat="31.8217977" lon="35.0114683">
<ele>271.200012</ele>
<time>2021-09-24T06:21:40.000Z</time>
</trkpt>
<trkpt lat="31.8216981" lon="35.0109664">
<ele>271.000000</ele>
<time>2021-09-24T06:21:48.000Z</time>
</trkpt>
<trkpt lat="31.8216119" lon="35.0107305">
<ele>271.600006</ele>
<time>2021-09-24T06:21:55.000Z</time>
</trkpt>
<trkpt lat="31.8215211" lon="35.0104913">
<ele>272.600006</ele>
<time>2021-09-24T06:22:03.000Z</time>
</trkpt>
<trkpt lat="31.8214769" lon="35.0102347">
<ele>273.000000</ele>
<time>2021-09-24T06:22:09.000Z</time>
</trkpt>
<trkpt lat="31.8214817" lon="35.0101851">
<ele>273.000000</ele>
<time>2021-09-24T06:22:10.000Z</time>
</trkpt>
<trkpt lat="31.8215460" lon="35.0099013">
<ele>272.799988</ele>
<time>2021-09-24T06:22:15.000Z</time>
</trkpt>
<trkpt lat="31.8215688" lon="35.0098418">
<ele>272.600006</ele>
<time>2021-09-24T06:22:16.000Z</time>
</trkpt>
<trkpt lat="31.8215977" lon="35.0097854">
<ele>272.600006</ele>
<time>2021-09-24T06:22:17.000Z</time>
</trkpt>
<trkpt lat="31.8216340" lon="35.0097347">
<ele>272.399994</ele>
<time>2021-09-24T06:22:18.000Z</time>
</trkpt>
<trkpt lat="31.8216775" lon="35.0096871">
<ele>272.000000</ele>
<time>2021-09-24T06:22:19.000Z</time>
</trkpt>
<trkpt lat="31.8217278" lon="35.0096405">
<ele>272.000000</ele>
<time>2021-09-24T06:22:20.000Z</time>
</trkpt>
<trkpt lat="31.8217816" lon="35.0095953">
<ele>271.600006</ele>
<time>2021-09-24T06:22:21.000Z</time>
</trkpt>
<trkpt lat="31.8222216" lon="35.0092649">
<ele>270.200012</ele>
<time>2021-09-24T06:22:28.000Z</time>
</trkpt>
<trkpt lat="31.8224757" lon="35.0090001">
<ele>268.399994</ele>
<time>2021-09-24T06:22:32.000Z</time>
</trkpt>
<trkpt lat="31.8225252" lon="35.0089196">
<ele>267.399994</ele>
<time>2021-09-24T06:22:33.000Z</time>
</trkpt>
<trkpt lat="31.8225676" lon="35.0088344">
<ele>266.799988</ele>
<time>2021-09-24T06:22:34.000Z</time>
</trkpt>
<trkpt lat="31.8226031" lon="35.0087462">
<ele>266.399994</ele>
<time>2021-09-24T06:22:35.000Z</time>
</trkpt>
<trkpt lat="31.8226310" lon="35.0086567">
<ele>266.000000</ele>
<time>2021-09-24T06:22:36.000Z</time>
</trkpt>
<trkpt lat="31.8226574" lon="35.0085685">
<ele>265.600006</ele>
<time>2021-09-24T06:22:37.000Z</time>
</trkpt>
<trkpt lat="31.8226902" lon="35.0084823">
<ele>265.399994</ele>
<time>2021-09-24T06:22:38.000Z</time>
</trkpt>
<trkpt lat="31.8229565" lon="35.0078481">
<ele>262.799988</ele>
<time>2021-09-24T06:22:46.000Z</time>
</trkpt>
<trkpt lat="31.8230965" lon="35.0075751">
<ele>261.200012</ele>
<time>2021-09-24T06:22:50.000Z</time>
</trkpt>
<trkpt lat="31.8235078" lon="35.0069298">
<ele>259.200012</ele>
<time>2021-09-24T06:23:00.000Z</time>
</trkpt>
<trkpt lat="31.8237506" lon="35.0065247">
<ele>258.799988</ele>
<time>2021-09-24T06:23:07.000Z</time>
</trkpt>
<trkpt lat="31.8239975" lon="35.0061248">
<ele>259.000000</ele>
<time>2021-09-24T06:23:15.000Z</time>
</trkpt>
<trkpt lat="31.8243263" lon="35.0056968">
<ele>258.000000</ele>
<time>2021-09-24T06:23:23.000Z</time>
</trkpt>
<trkpt lat="31.8244703" lon="35.0055182">
<ele>257.200012</ele>
<time>2021-09-24T06:23:26.000Z</time>
</trkpt>
<trkpt lat="31.8246436" lon="35.0053394">
<ele>256.200012</ele>
<time>2021-09-24T06:23:29.000Z</time>
</trkpt>
<trkpt lat="31.8246917" lon="35.0052653">
<ele>256.000000</ele>
<time>2021-09-24T06:23:30.000Z</time>
</trkpt>
<trkpt lat="31.8248998" lon="35.0047320">
<ele>253.200012</ele>
<time>2021-09-24T06:23:36.000Z</time>
</trkpt>
<trkpt lat="31.8249787" lon="35.0042034">
<ele>250.999985</ele>
<time>2021-09-24T06:23:42.000Z</time>
</trkpt>
<trkpt lat="31.8250634" lon="35.0035257">
<ele>249.199982</ele>
<time>2021-09-24T06:23:50.000Z</time>
</trkpt>
<trkpt lat="31.8251134" lon="35.0030675">
<ele>248.000000</ele>
<time>2021-09-24T06:23:56.000Z</time>
</trkpt>
<trkpt lat="31.8251459" lon="35.0028314">
<ele>247.600006</ele>
<time>2021-09-24T06:23:59.000Z</time>
</trkpt>
<trkpt lat="31.8251484" lon="35.0027521">
<ele>247.399994</ele>
<time>2021-09-24T06:24:00.000Z</time>
</trkpt>
<trkpt lat="31.8251425" lon="35.0026711">
<ele>247.399994</ele>
<time>2021-09-24T06:24:01.000Z</time>
</trkpt>
<trkpt lat="31.8251301" lon="35.0025893">
<ele>247.000000</ele>
<time>2021-09-24T06:24:02.000Z</time>
</trkpt>
<trkpt lat="31.8251125" lon="35.0025127">
<ele>247.000000</ele>
<time>2021-09-24T06:24:03.000Z</time>
</trkpt>
<trkpt lat="31.8249173" lon="35.0018614">
<ele>244.800003</ele>
<time>2021-09-24T06:24:11.000Z</time>
</trkpt>
<trkpt lat="31.8247493" lon="35.0013695">
<ele>242.600006</ele>
<time>2021-09-24T06:24:17.000Z</time>
</trkpt>
<trkpt lat="31.8245848" lon="35.0010146">
<ele>241.199997</ele>
<time>2021-09-24T06:24:22.000Z</time>
</trkpt>
<trkpt lat="31.8245416" lon="35.0009541">
<ele>240.800003</ele>
<time>2021-09-24T06:24:23.000Z</time>
</trkpt>
<trkpt lat="31.8245021" lon="35.0008917">
<ele>240.600006</ele>
<time>2021-09-24T06:24:24.000Z</time>
</trkpt>
<trkpt lat="31.8244691" lon="35.0008295">
<ele>240.399994</ele>
<time>2021-09-24T06:24:25.000Z</time>
</trkpt>
<trkpt lat="31.8244431" lon="35.0007655">
<ele>240.000000</ele>
<time>2021-09-24T06:24:26.000Z</time>
</trkpt>
<trkpt lat="31.8244219" lon="35.0007017">
<ele>239.800003</ele>
<time>2021-09-24T06:24:27.000Z</time>
</trkpt>
<trkpt lat="31.8244057" lon="35.0006352">
<ele>239.599991</ele>
<time>2021-09-24T06:24:28.000Z</time>
</trkpt>
<trkpt lat="31.8243921" lon="35.0005754">
<ele>239.399994</ele>
<time>2021-09-24T06:24:29.000Z</time>
</trkpt>
<trkpt lat="31.8243156" lon="35.0001490">
<ele>238.600006</ele>
<time>2021-09-24T06:24:36.000Z</time>
</trkpt>
<trkpt lat="31.8242973" lon="35.0000862">
<ele>238.600006</ele>
<time>2021-09-24T06:24:37.000Z</time>
</trkpt>
<trkpt lat="31.8242748" lon="35.0000249">
<ele>238.600006</ele>
<time>2021-09-24T06:24:38.000Z</time>
</trkpt>
<trkpt lat="31.8242484" lon="34.9999673">
<ele>238.600006</ele>
<time>2021-09-24T06:24:39.000Z</time>
</trkpt>
<trkpt lat="31.8242173" lon="34.9999205">
<ele>238.399994</ele>
<time>2021-09-24T06:24:40.000Z</time>
</trkpt>
<trkpt lat="31.8241834" lon="34.9998847">
<ele>238.399994</ele>
<time>2021-09-24T06:24:41.000Z</time>
</trkpt>
<trkpt lat="31.8241521" lon="34.9998503">
<ele>238.399994</ele>
<time>2021-09-24T06:24:42.000Z</time>
</trkpt>
<trkpt lat="31.8241247" lon="34.9998116">
<ele>238.399994</ele>
<time>2021-09-24T06:24:43.000Z</time>
</trkpt>
<trkpt lat="31.8241023" lon="34.9997698">
<ele>238.399994</ele>
<time>2021-09-24T06:24:44.000Z</time>
</trkpt>
<trkpt lat="31.8239193" lon="34.9993865">
<ele>238.800003</ele>
<time>2021-09-24T06:24:54.000Z</time>
</trkpt>
<trkpt lat="31.8237793" lon="34.9992010">
<ele>240.399994</ele>
<time>2021-09-24T06:25:03.000Z</time>
</trkpt>
<trkpt lat="31.8236474" lon="34.9990665">
<ele>241.799988</ele>
<time>2021-09-24T06:25:12.000Z</time>
</trkpt>
<trkpt lat="31.8235232" lon="34.9988706">
<ele>243.600021</ele>
<time>2021-09-24T06:25:22.000Z</time>
</trkpt>
<trkpt lat="31.8235208" lon="34.9986355">
<ele>244.600006</ele>
<time>2021-09-24T06:25:30.000Z</time>
</trkpt>
<trkpt lat="31.8235875" lon="34.9983149">
<ele>244.800003</ele>
<time>2021-09-24T06:25:38.000Z</time>
</trkpt>
<trkpt lat="31.8235455" lon="34.9980980">
<ele>244.800003</ele>
<time>2021-09-24T06:25:43.000Z</time>
</trkpt>
<trkpt lat="31.8234090" lon="34.9978464">
<ele>244.800003</ele>
<time>2021-09-24T06:25:50.000Z</time>
</trkpt>
<trkpt lat="31.8232821" lon="34.9975476">
<ele>245.800003</ele>
<time>2021-09-24T06:25:59.000Z</time>
</trkpt>
<trkpt lat="31.8232587" lon="34.9972782">
<ele>246.000000</ele>
<time>2021-09-24T06:26:05.000Z</time>
</trkpt>
<trkpt lat="31.8232029" lon="34.9968985">
<ele>245.600006</ele>
<time>2021-09-24T06:26:12.000Z</time>
</trkpt>
<trkpt lat="31.8232058" lon="34.9968408">
<ele>245.600006</ele>
<time>2021-09-24T06:26:13.000Z</time>
</trkpt>
<trkpt lat="31.8232819" lon="34.9964196">
<ele>244.800003</ele>
<time>2021-09-24T06:26:19.000Z</time>
</trkpt>
<trkpt lat="31.8234121" lon="34.9959508">
<ele>243.399994</ele>
<time>2021-09-24T06:26:25.000Z</time>
</trkpt>
<trkpt lat="31.8234096" lon="34.9958902">
<ele>243.000000</ele>
<time>2021-09-24T06:26:26.000Z</time>
</trkpt>
<trkpt lat="31.8233919" lon="34.9958382">
<ele>242.399994</ele>
<time>2021-09-24T06:26:27.000Z</time>
</trkpt>
<trkpt lat="31.8233605" lon="34.9957993">
<ele>242.000000</ele>
<time>2021-09-24T06:26:28.000Z</time>
</trkpt>
<trkpt lat="31.8233190" lon="34.9957702">
<ele>241.399994</ele>
<time>2021-09-24T06:26:29.000Z</time>
</trkpt>
<trkpt lat="31.8232712" lon="34.9957503">
<ele>241.000000</ele>
<time>2021-09-24T06:26:30.000Z</time>
</trkpt>
<trkpt lat="31.8232191" lon="34.9957345">
<ele>240.600006</ele>
<time>2021-09-24T06:26:31.000Z</time>
</trkpt>
<trkpt lat="31.8231120" lon="34.9957212">
<ele>240.199997</ele>
<time>2021-09-24T06:26:33.000Z</time>
</trkpt>
<trkpt lat="31.8226512" lon="34.9956388">
<ele>238.600006</ele>
<time>2021-09-24T06:26:41.000Z</time>
</trkpt>
<trkpt lat="31.8225893" lon="34.9956086">
<ele>238.399994</ele>
<time>2021-09-24T06:26:42.000Z</time>
</trkpt>
<trkpt lat="31.8224048" lon="34.9955071">
<ele>237.600006</ele>
<time>2021-09-24T06:26:45.000Z</time>
</trkpt>
<trkpt lat="31.8223421" lon="34.9954843">
<ele>237.199997</ele>
<time>2021-09-24T06:26:46.000Z</time>
</trkpt>
<trkpt lat="31.8222893" lon="34.9954747">
<ele>237.000015</ele>
<time>2021-09-24T06:26:47.000Z</time>
</trkpt>
<trkpt lat="31.8222470" lon="34.9954802">
<ele>236.800003</ele>
<time>2021-09-24T06:26:48.000Z</time>
</trkpt>
<trkpt lat="31.8222099" lon="34.9955000">
<ele>236.199997</ele>
<time>2021-09-24T06:26:49.000Z</time>
</trkpt>
<trkpt lat="31.8221770" lon="34.9955308">
<ele>236.000000</ele>
<time>2021-09-24T06:26:50.000Z</time>
</trkpt>
<trkpt lat="31.8221468" lon="34.9955655">
<ele>235.800003</ele>
<time>2021-09-24T06:26:51.000Z</time>
</trkpt>
<trkpt lat="31.8219357" lon="34.9958381">
<ele>235.199982</ele>
<time>2021-09-24T06:26:58.000Z</time>
</trkpt>
<trkpt lat="31.8215877" lon="34.9962361">
<ele>234.600006</ele>
<time>2021-09-24T06:27:07.000Z</time>
</trkpt>
<trkpt lat="31.8215577" lon="34.9962710">
<ele>234.600006</ele>
<time>2021-09-24T06:27:08.000Z</time>
</trkpt>
<trkpt lat="31.8213181" lon="34.9964514">
<ele>235.000000</ele>
<time>2021-09-24T06:27:16.000Z</time>
</trkpt>
<trkpt lat="31.8209530" lon="34.9965255">
<ele>235.399994</ele>
<time>2021-09-24T06:27:26.000Z</time>
</trkpt>
<trkpt lat="31.8206768" lon="34.9964972">
<ele>235.600006</ele>
<time>2021-09-24T06:27:33.000Z</time>
</trkpt>
<trkpt lat="31.8202454" lon="34.9963933">
<ele>235.600006</ele>
<time>2021-09-24T06:27:42.000Z</time>
</trkpt>
<trkpt lat="31.8200161" lon="34.9963503">
<ele>235.800003</ele>
<time>2021-09-24T06:27:47.000Z</time>
</trkpt>
<trkpt lat="31.8196397" lon="34.9963335">
<ele>236.199997</ele>
<time>2021-09-24T06:27:56.000Z</time>
</trkpt>
<trkpt lat="31.8193716" lon="34.9963790">
<ele>236.800003</ele>
<time>2021-09-24T06:28:04.000Z</time>
</trkpt>
<trkpt lat="31.8191968" lon="34.9964457">
<ele>238.199997</ele>
<time>2021-09-24T06:28:12.000Z</time>
</trkpt>
<trkpt lat="31.8191237" lon="34.9964266">
<ele>238.399994</ele>
<time>2021-09-24T06:28:19.000Z</time>
</trkpt>
<trkpt lat="31.8191206" lon="34.9964258">
<ele>238.600006</ele>
<time>2021-09-24T06:28:23.000Z</time>
</trkpt>
<trkpt lat="31.8191190" lon="34.9964257">
<ele>237.400009</ele>
<time>2021-09-24T06:28:46.000Z</time>
</trkpt>
<trkpt lat="31.8191191" lon="34.9964257">
<ele>237.199997</ele>
<time>2021-09-24T06:28:47.000Z</time>
</trkpt>
<trkpt lat="31.8191191" lon="34.9964257">
<ele>238.199997</ele>
<time>2021-09-24T06:28:48.000Z</time>
</trkpt>
<trkpt lat="31.8190838" lon="34.9963846">
<ele>238.800003</ele>
<time>2021-09-24T06:30:07.000Z</time>
</trkpt>
<trkpt lat="31.8189623" lon="34.9961790">
<ele>238.399994</ele>
<time>2021-09-24T06:30:13.000Z</time>
</trkpt>
<trkpt lat="31.8188258" lon="34.9959055">
<ele>237.800003</ele>
<time>2021-09-24T06:30:20.000Z</time>
</trkpt>
<trkpt lat="31.8187475" lon="34.9957184">
<ele>238.800003</ele>
<time>2021-09-24T06:30:28.000Z</time>
</trkpt>
<trkpt lat="31.8187238" lon="34.9954902">
<ele>241.199997</ele>
<time>2021-09-24T06:30:38.000Z</time>
</trkpt>
<trkpt lat="31.8187354" lon="34.9953465">
<ele>243.199997</ele>
<time>2021-09-24T06:30:48.000Z</time>
</trkpt>
<trkpt lat="31.8187821" lon="34.9952124">
<ele>245.000000</ele>
<time>2021-09-24T06:30:59.000Z</time>
</trkpt>
<trkpt lat="31.8188356" lon="34.9950875">
<ele>246.800003</ele>
<time>2021-09-24T06:31:09.000Z</time>
</trkpt>
<trkpt lat="31.8188598" lon="34.9949912">
<ele>247.800003</ele>
<time>2021-09-24T06:31:17.000Z</time>
</trkpt>
<trkpt lat="31.8188582" lon="34.9949627">
<ele>248.000000</ele>
<time>2021-09-24T06:31:19.000Z</time>
</trkpt>
<trkpt lat="31.8188614" lon="34.9948698">
<ele>249.000000</ele>
<time>2021-09-24T06:31:27.000Z</time>
</trkpt>
<trkpt lat="31.8188098" lon="34.9947473">
<ele>250.399994</ele>
<time>2021-09-24T06:31:37.000Z</time>
</trkpt>
<trkpt lat="31.8187178" lon="34.9946306">
<ele>252.399994</ele>
<time>2021-09-24T06:31:50.000Z</time>
</trkpt>
<trkpt lat="31.8185995" lon="34.9945799">
<ele>254.000000</ele>
<time>2021-09-24T06:32:01.000Z</time>
</trkpt>
<trkpt lat="31.8184864" lon="34.9945573">
<ele>255.199997</ele>
<time>2021-09-24T06:32:09.000Z</time>
</trkpt>
<trkpt lat="31.8183224" lon="34.9945069">
<ele>256.600006</ele>
<time>2021-09-24T06:32:17.000Z</time>
</trkpt>
<trkpt lat="31.8181459" lon="34.9944820">
<ele>258.000000</ele>
<time>2021-09-24T06:32:26.000Z</time>
</trkpt>
<trkpt lat="31.8179595" lon="34.9944450">
<ele>259.399994</ele>
<time>2021-09-24T06:32:36.000Z</time>
</trkpt>
<trkpt lat="31.8177924" lon="34.9944057">
<ele>260.600006</ele>
<time>2021-09-24T06:32:46.000Z</time>
</trkpt>
<trkpt lat="31.8175994" lon="34.9943617">
<ele>262.000000</ele>
<time>2021-09-24T06:32:56.000Z</time>
</trkpt>
<trkpt lat="31.8173911" lon="34.9943027">
<ele>263.200012</ele>
<time>2021-09-24T06:33:07.000Z</time>
</trkpt>
<trkpt lat="31.8172120" lon="34.9941310">
<ele>264.399994</ele>
<time>2021-09-24T06:33:20.000Z</time>
</trkpt>
<trkpt lat="31.8170974" lon="34.9938769">
<ele>265.600006</ele>
<time>2021-09-24T06:33:33.000Z</time>
</trkpt>
<trkpt lat="31.8170263" lon="34.9936455">
<ele>266.799988</ele>
<time>2021-09-24T06:33:44.000Z</time>
</trkpt>
<trkpt lat="31.8169845" lon="34.9934297">
<ele>267.600006</ele>
<time>2021-09-24T06:33:54.000Z</time>
</trkpt>
<trkpt lat="31.8169525" lon="34.9932356">
<ele>268.600006</ele>
<time>2021-09-24T06:34:03.000Z</time>
</trkpt>
<trkpt lat="31.8168712" lon="34.9930035">
<ele>269.399994</ele>
<time>2021-09-24T06:34:13.000Z</time>
</trkpt>
<trkpt lat="31.8166925" lon="34.9928699">
<ele>269.399994</ele>
<time>2021-09-24T06:34:21.000Z</time>
</trkpt>
<trkpt lat="31.8164814" lon="34.9929301">
<ele>269.000000</ele>
<time>2021-09-24T06:34:27.000Z</time>
</trkpt>
<trkpt lat="31.8164383" lon="34.9930051">
<ele>268.399994</ele>
<time>2021-09-24T06:34:32.000Z</time>
</trkpt>
<trkpt lat="31.8164180" lon="34.9930265">
<ele>267.799988</ele>
<time>2021-09-24T06:34:38.000Z</time>
</trkpt>
<trkpt lat="31.8164107" lon="34.9929864">
<ele>267.399994</ele>
<time>2021-09-24T06:34:45.000Z</time>
</trkpt>
<trkpt lat="31.8163767" lon="34.9929520">
<ele>267.399994</ele>
<time>2021-09-24T06:34:51.000Z</time>
</trkpt>
<trkpt lat="31.8163448" lon="34.9929632">
<ele>267.600006</ele>
<time>2021-09-24T06:34:56.000Z</time>
</trkpt>
<trkpt lat="31.8163306" lon="34.9929684">
<ele>267.600006</ele>
<time>2021-09-24T06:34:57.000Z</time>
</trkpt>
<trkpt lat="31.8161954" lon="34.9930713">
<ele>267.600006</ele>
<time>2021-09-24T06:35:04.000Z</time>
</trkpt>
<trkpt lat="31.8160405" lon="34.9931020">
<ele>268.600006</ele>
<time>2021-09-24T06:35:11.000Z</time>
</trkpt>
<trkpt lat="31.8159582" lon="34.9930441">
<ele>269.200012</ele>
<time>2021-09-24T06:35:17.000Z</time>
</trkpt>
<trkpt lat="31.8159254" lon="34.9929884">
<ele>270.000000</ele>
<time>2021-09-24T06:35:23.000Z</time>
</trkpt>
<trkpt lat="31.8159076" lon="34.9930031">
<ele>270.399994</ele>
<time>2021-09-24T06:35:28.000Z</time>
</trkpt>
<trkpt lat="31.8158970" lon="34.9930138">
<ele>270.399994</ele>
<time>2021-09-24T06:35:29.000Z</time>
</trkpt>
<trkpt lat="31.8158827" lon="34.9930270">
<ele>270.399994</ele>
<time>2021-09-24T06:35:30.000Z</time>
</trkpt>
<trkpt lat="31.8157223" lon="34.9931228">
<ele>269.399994</ele>
<time>2021-09-24T06:35:36.000Z</time>
</trkpt>
<trkpt lat="31.8155978" lon="34.9930859">
<ele>268.000000</ele>
<time>2021-09-24T06:35:41.000Z</time>
</trkpt>
<trkpt lat="31.8155350" lon="34.9930615">
<ele>267.000000</ele>
<time>2021-09-24T06:35:48.000Z</time>
</trkpt>
<trkpt lat="31.8155292" lon="34.9930625">
<ele>266.399994</ele>
<time>2021-09-24T06:35:54.000Z</time>
</trkpt>
<trkpt lat="31.8154730" lon="34.9930689">
<ele>265.600006</ele>
<time>2021-09-24T06:36:26.000Z</time>
</trkpt>
<trkpt lat="31.8154526" lon="34.9930627">
<ele>265.600006</ele>
<time>2021-09-24T06:36:27.000Z</time>
</trkpt>
<trkpt lat="31.8154289" lon="34.9930560">
<ele>265.600006</ele>
<time>2021-09-24T06:36:28.000Z</time>
</trkpt>
<trkpt lat="31.8152164" lon="34.9929772">
<ele>265.200012</ele>
<time>2021-09-24T06:36:35.000Z</time>
</trkpt>
<trkpt lat="31.8150199" lon="34.9928771">
<ele>265.000000</ele>
<time>2021-09-24T06:36:43.000Z</time>
</trkpt>
<trkpt lat="31.8148978" lon="34.9928682">
<ele>265.000000</ele>
<time>2021-09-24T06:36:47.000Z</time>
</trkpt>
<trkpt lat="31.8148553" lon="34.9928954">
<ele>264.799988</ele>
<time>2021-09-24T06:36:48.000Z</time>
</trkpt>
<trkpt lat="31.8148119" lon="34.9929357">
<ele>264.799988</ele>
<time>2021-09-24T06:36:49.000Z</time>
</trkpt>
<trkpt lat="31.8147724" lon="34.9929882">
<ele>264.600006</ele>
<time>2021-09-24T06:36:50.000Z</time>
</trkpt>
<trkpt lat="31.8147367" lon="34.9930485">
<ele>264.399994</ele>
<time>2021-09-24T06:36:51.000Z</time>
</trkpt>
<trkpt lat="31.8147028" lon="34.9931077">
<ele>264.200012</ele>
<time>2021-09-24T06:36:52.000Z</time>
</trkpt>
<trkpt lat="31.8146164" lon="34.9932616">
<ele>263.399994</ele>
<time>2021-09-24T06:36:55.000Z</time>
</trkpt>
<trkpt lat="31.8145268" lon="34.9934816">
<ele>263.200012</ele>
<time>2021-09-24T06:37:01.000Z</time>
</trkpt>
<trkpt lat="31.8143917" lon="34.9936483">
<ele>263.200012</ele>
<time>2021-09-24T06:37:08.000Z</time>
</trkpt>
<trkpt lat="31.8141775" lon="34.9936936">
<ele>263.200012</ele>
<time>2021-09-24T06:37:14.000Z</time>
</trkpt>
<trkpt lat="31.8140686" lon="34.9937028">
<ele>262.799988</ele>
<time>2021-09-24T06:37:19.000Z</time>
</trkpt>
<trkpt lat="31.8139869" lon="34.9937224">
<ele>262.600006</ele>
<time>2021-09-24T06:37:25.000Z</time>
</trkpt>
<trkpt lat="31.8138855" lon="34.9937559">
<ele>262.600006</ele>
<time>2021-09-24T06:37:28.000Z</time>
</trkpt>
<trkpt lat="31.8136726" lon="34.9938487">
<ele>262.000000</ele>
<time>2021-09-24T06:37:33.000Z</time>
</trkpt>
<trkpt lat="31.8135502" lon="34.9939285">
<ele>261.600006</ele>
<time>2021-09-24T06:37:36.000Z</time>
</trkpt>
<trkpt lat="31.8135087" lon="34.9939594">
<ele>261.600006</ele>
<time>2021-09-24T06:37:37.000Z</time>
</trkpt>
<trkpt lat="31.8134657" lon="34.9939828">
<ele>261.600006</ele>
<time>2021-09-24T06:37:38.000Z</time>
</trkpt>
<trkpt lat="31.8131623" lon="34.9941132">
<ele>261.600006</ele>
<time>2021-09-24T06:37:46.000Z</time>
</trkpt>
<trkpt lat="31.8129375" lon="34.9942161">
<ele>262.200012</ele>
<time>2021-09-24T06:37:54.000Z</time>
</trkpt>
<trkpt lat="31.8127338" lon="34.9942633">
<ele>263.399994</ele>
<time>2021-09-24T06:38:03.000Z</time>
</trkpt>
<trkpt lat="31.8125116" lon="34.9943867">
<ele>264.000000</ele>
<time>2021-09-24T06:38:12.000Z</time>
</trkpt>
<trkpt lat="31.8122711" lon="34.9944393">
<ele>264.600006</ele>
<time>2021-09-24T06:38:20.000Z</time>
</trkpt>
<trkpt lat="31.8121050" lon="34.9944369">
<ele>265.200012</ele>
<time>2021-09-24T06:38:27.000Z</time>
</trkpt>
<trkpt lat="31.8119795" lon="34.9944532">
<ele>265.799988</ele>
<time>2021-09-24T06:38:33.000Z</time>
</trkpt>
<trkpt lat="31.8117741" lon="34.9945156">
<ele>266.799988</ele>
<time>2021-09-24T06:38:44.000Z</time>
</trkpt>
<trkpt lat="31.8115721" lon="34.9945571">
<ele>268.000000</ele>
<time>2021-09-24T06:38:54.000Z</time>
</trkpt>
<trkpt lat="31.8113899" lon="34.9945452">
<ele>269.200012</ele>
<time>2021-09-24T06:39:04.000Z</time>
</trkpt>
<trkpt lat="31.8113731" lon="34.9945422">
<ele>269.399994</ele>
<time>2021-09-24T06:39:05.000Z</time>
</trkpt>
<trkpt lat="31.8113537" lon="34.9945434">
<ele>269.600006</ele>
<time>2021-09-24T06:39:06.000Z</time>
</trkpt>
<trkpt lat="31.8110242" lon="34.9945475">
<ele>270.799988</ele>
<time>2021-09-24T06:39:20.000Z</time>
</trkpt>
<trkpt lat="31.8107674" lon="34.9946501">
<ele>271.399994</ele>
<time>2021-09-24T06:39:29.000Z</time>
</trkpt>
<trkpt lat="31.8105799" lon="34.9947922">
<ele>271.799988</ele>
<time>2021-09-24T06:39:37.000Z</time>
</trkpt>
<trkpt lat="31.8105317" lon="34.9949914">
<ele>272.399994</ele>
<time>2021-09-24T06:39:44.000Z</time>
</trkpt>
<trkpt lat="31.8106593" lon="34.9951012">
<ele>272.799988</ele>
<time>2021-09-24T06:39:50.000Z</time>
</trkpt>
<trkpt lat="31.8109493" lon="34.9952384">
<ele>272.799988</ele>
<time>2021-09-24T06:40:00.000Z</time>
</trkpt>
<trkpt lat="31.8112088" lon="34.9952778">
<ele>273.399994</ele>
<time>2021-09-24T06:40:08.000Z</time>
</trkpt>
<trkpt lat="31.8113618" lon="34.9953170">
<ele>274.399994</ele>
<time>2021-09-24T06:40:16.000Z</time>
</trkpt>
<trkpt lat="31.8115648" lon="34.9953662">
<ele>276.000000</ele>
<time>2021-09-24T06:40:25.000Z</time>
</trkpt>
<trkpt lat="31.8117316" lon="34.9954087">
<ele>277.600006</ele>
<time>2021-09-24T06:40:35.000Z</time>
</trkpt>
<trkpt lat="31.8118674" lon="34.9954601">
<ele>278.600006</ele>
<time>2021-09-24T06:40:43.000Z</time>
</trkpt>
<trkpt lat="31.8119944" lon="34.9955470">
<ele>279.399994</ele>
<time>2021-09-24T06:40:50.000Z</time>
</trkpt>
<trkpt lat="31.8121085" lon="34.9956376">
<ele>280.399994</ele>
<time>2021-09-24T06:40:58.000Z</time>
</trkpt>
<trkpt lat="31.8122476" lon="34.9957532">
<ele>281.799988</ele>
<time>2021-09-24T06:41:08.000Z</time>
</trkpt>
<trkpt lat="31.8124167" lon="34.9958940">
<ele>283.399994</ele>
<time>2021-09-24T06:41:19.000Z</time>
</trkpt>
<trkpt lat="31.8125476" lon="34.9960193">
<ele>284.799988</ele>
<time>2021-09-24T06:41:28.000Z</time>
</trkpt>
<trkpt lat="31.8126961" lon="34.9961601">
<ele>286.200012</ele>
<time>2021-09-24T06:41:37.000Z</time>
</trkpt>
<trkpt lat="31.8128576" lon="34.9963130">
<ele>287.600006</ele>
<time>2021-09-24T06:41:47.000Z</time>
</trkpt>
<trkpt lat="31.8129863" lon="34.9963954">
<ele>288.799988</ele>
<time>2021-09-24T06:41:55.000Z</time>
</trkpt>
<trkpt lat="31.8130985" lon="34.9965103">
<ele>289.799988</ele>
<time>2021-09-24T06:42:04.000Z</time>
</trkpt>
<trkpt lat="31.8131662" lon="34.9967110">
<ele>291.000000</ele>
<time>2021-09-24T06:42:14.000Z</time>
</trkpt>
<trkpt lat="31.8131500" lon="34.9969149">
<ele>292.200012</ele>
<time>2021-09-24T06:42:23.000Z</time>
</trkpt>
<trkpt lat="31.8131344" lon="34.9969796">
<ele>292.399994</ele>
<time>2021-09-24T06:42:26.000Z</time>
</trkpt>
<trkpt lat="31.8130165" lon="34.9971596">
<ele>293.799988</ele>
<time>2021-09-24T06:42:36.000Z</time>
</trkpt>
<trkpt lat="31.8128765" lon="34.9973008">
<ele>294.600006</ele>
<time>2021-09-24T06:42:46.000Z</time>
</trkpt>
<trkpt lat="31.8127160" lon="34.9974635">
<ele>295.600006</ele>
<time>2021-09-24T06:42:56.000Z</time>
</trkpt>
<trkpt lat="31.8125466" lon="34.9975895">
<ele>296.399994</ele>
<time>2021-09-24T06:43:06.000Z</time>
</trkpt>
<trkpt lat="31.8123761" lon="34.9976648">
<ele>297.399994</ele>
<time>2021-09-24T06:43:15.000Z</time>
</trkpt>
<trkpt lat="31.8121841" lon="34.9977409">
<ele>298.399994</ele>
<time>2021-09-24T06:43:25.000Z</time>
</trkpt>
<trkpt lat="31.8120763" lon="34.9978392">
<ele>299.000000</ele>
<time>2021-09-24T06:43:33.000Z</time>
</trkpt>
<trkpt lat="31.8119567" lon="34.9979485">
<ele>301.399994</ele>
<time>2021-09-24T06:43:41.000Z</time>
</trkpt>
<trkpt lat="31.8118142" lon="34.9980369">
<ele>302.600006</ele>
<time>2021-09-24T06:43:51.000Z</time>
</trkpt>
<trkpt lat="31.8116941" lon="34.9980949">
<ele>303.799988</ele>
<time>2021-09-24T06:43:59.000Z</time>
</trkpt>
<trkpt lat="31.8115522" lon="34.9981401">
<ele>304.799988</ele>
<time>2021-09-24T06:44:08.000Z</time>
</trkpt>
<trkpt lat="31.8113954" lon="34.9982204">
<ele>306.000000</ele>
<time>2021-09-24T06:44:17.000Z</time>
</trkpt>
<trkpt lat="31.8113608" lon="34.9982476">
<ele>306.399994</ele>
<time>2021-09-24T06:44:20.000Z</time>
</trkpt>
<trkpt lat="31.8113475" lon="34.9982546">
<ele>306.399994</ele>
<time>2021-09-24T06:44:21.000Z</time>
</trkpt>
<trkpt lat="31.8113331" lon="34.9982599">
<ele>306.600006</ele>
<time>2021-09-24T06:44:22.000Z</time>
</trkpt>
<trkpt lat="31.8113174" lon="34.9982638">
<ele>306.600006</ele>
<time>2021-09-24T06:44:23.000Z</time>
</trkpt>
<trkpt lat="31.8113022" lon="34.9982691">
<ele>307.000000</ele>
<time>2021-09-24T06:44:24.000Z</time>
</trkpt>
<trkpt lat="31.8112867" lon="34.9982741">
<ele>307.000000</ele>
<time>2021-09-24T06:44:25.000Z</time>
</trkpt>
<trkpt lat="31.8112720" lon="34.9982786">
<ele>307.200012</ele>
<time>2021-09-24T06:44:26.000Z</time>
</trkpt>
<trkpt lat="31.8112588" lon="34.9982848">
<ele>307.399994</ele>
<time>2021-09-24T06:44:27.000Z</time>
</trkpt>
<trkpt lat="31.8112458" lon="34.9982924">
<ele>307.399994</ele>
<time>2021-09-24T06:44:28.000Z</time>
</trkpt>
<trkpt lat="31.8110723" lon="34.9983468">
<ele>309.200012</ele>
<time>2021-09-24T06:44:40.000Z</time>
</trkpt>
<trkpt lat="31.8109304" lon="34.9983444">
<ele>310.200012</ele>
<time>2021-09-24T06:44:49.000Z</time>
</trkpt>
<trkpt lat="31.8107575" lon="34.9983776">
<ele>311.200012</ele>
<time>2021-09-24T06:44:59.000Z</time>
</trkpt>
<trkpt lat="31.8105663" lon="34.9984344">
<ele>312.199982</ele>
<time>2021-09-24T06:45:09.000Z</time>
</trkpt>
<trkpt lat="31.8105107" lon="34.9984503">
<ele>312.399994</ele>
<time>2021-09-24T06:45:12.000Z</time>
</trkpt>
<trkpt lat="31.8104909" lon="34.9984526">
<ele>312.600006</ele>
<time>2021-09-24T06:45:13.000Z</time>
</trkpt>
<trkpt lat="31.8104709" lon="34.9984564">
<ele>312.600006</ele>
<time>2021-09-24T06:45:14.000Z</time>
</trkpt>
<trkpt lat="31.8102835" lon="34.9985107">
<ele>314.000000</ele>
<time>2021-09-24T06:45:24.000Z</time>
</trkpt>
<trkpt lat="31.8101414" lon="34.9985491">
<ele>315.200012</ele>
<time>2021-09-24T06:45:32.000Z</time>
</trkpt>
<trkpt lat="31.8099809" lon="34.9986141">
<ele>316.600037</ele>
<time>2021-09-24T06:45:41.000Z</time>
</trkpt>
<trkpt lat="31.8098007" lon="34.9986947">
<ele>317.799988</ele>
<time>2021-09-24T06:45:52.000Z</time>
</trkpt>
<trkpt lat="31.8096780" lon="34.9987552">
<ele>318.799988</ele>
<time>2021-09-24T06:46:00.000Z</time>
</trkpt>
<trkpt lat="31.8095668" lon="34.9987633">
<ele>320.600006</ele>
<time>2021-09-24T06:46:08.000Z</time>
</trkpt>
<trkpt lat="31.8094266" lon="34.9987271">
<ele>322.200012</ele>
<time>2021-09-24T06:46:18.000Z</time>
</trkpt>
<trkpt lat="31.8092839" lon="34.9986927">
<ele>323.399994</ele>
<time>2021-09-24T06:46:27.000Z</time>
</trkpt>
<trkpt lat="31.8092211" lon="34.9986737">
<ele>323.999969</ele>
<time>2021-09-24T06:46:31.000Z</time>
</trkpt>
<trkpt lat="31.8092050" lon="34.9986758">
<ele>323.999969</ele>
<time>2021-09-24T06:46:32.000Z</time>
</trkpt>
<trkpt lat="31.8091877" lon="34.9986747">
<ele>323.999969</ele>
<time>2021-09-24T06:46:33.000Z</time>
</trkpt>
<trkpt lat="31.8090319" lon="34.9986183">
<ele>325.600006</ele>
<time>2021-09-24T06:46:42.000Z</time>
</trkpt>
<trkpt lat="31.8089415" lon="34.9984945">
<ele>326.199982</ele>
<time>2021-09-24T06:46:49.000Z</time>
</trkpt>
<trkpt lat="31.8089291" lon="34.9983887">
<ele>327.200012</ele>
<time>2021-09-24T06:46:56.000Z</time>
</trkpt>
<trkpt lat="31.8089238" lon="34.9982109">
<ele>328.000000</ele>
<time>2021-09-24T06:47:04.000Z</time>
</trkpt>
<trkpt lat="31.8089126" lon="34.9980533">
<ele>328.799988</ele>
<time>2021-09-24T06:47:11.000Z</time>
</trkpt>
<trkpt lat="31.8089156" lon="34.9980319">
<ele>329.000000</ele>
<time>2021-09-24T06:47:12.000Z</time>
</trkpt>
<trkpt lat="31.8089375" lon="34.9978583">
<ele>329.600006</ele>
<time>2021-09-24T06:47:21.000Z</time>
</trkpt>
<trkpt lat="31.8089824" lon="34.9976951">
<ele>330.200012</ele>
<time>2021-09-24T06:47:29.000Z</time>
</trkpt>
<trkpt lat="31.8090261" lon="34.9974175">
<ele>330.399994</ele>
<time>2021-09-24T06:47:37.000Z</time>
</trkpt>
<trkpt lat="31.8090422" lon="34.9972740">
<ele>330.399994</ele>
<time>2021-09-24T06:47:40.000Z</time>
</trkpt>
<trkpt lat="31.8090400" lon="34.9972269">
<ele>330.399994</ele>
<time>2021-09-24T06:47:41.000Z</time>
</trkpt>
<trkpt lat="31.8089823" lon="34.9969200">
<ele>330.399994</ele>
<time>2021-09-24T06:47:49.000Z</time>
</trkpt>
<trkpt lat="31.8088396" lon="34.9968089">
<ele>330.799988</ele>
<time>2021-09-24T06:47:56.000Z</time>
</trkpt>
<trkpt lat="31.8086933" lon="34.9967644">
<ele>332.200012</ele>
<time>2021-09-24T06:48:05.000Z</time>
</trkpt>
<trkpt lat="31.8085437" lon="34.9967206">
<ele>333.000000</ele>
<time>2021-09-24T06:48:12.000Z</time>
</trkpt>
<trkpt lat="31.8083489" lon="34.9967423">
<ele>334.000000</ele>
<time>2021-09-24T06:48:21.000Z</time>
</trkpt>
<trkpt lat="31.8081727" lon="34.9968270">
<ele>335.399994</ele>
<time>2021-09-24T06:48:32.000Z</time>
</trkpt>
<trkpt lat="31.8080268" lon="34.9968954">
<ele>336.000000</ele>
<time>2021-09-24T06:48:40.000Z</time>
</trkpt>
<trkpt lat="31.8078528" lon="34.9970143">
<ele>336.799988</ele>
<time>2021-09-24T06:48:49.000Z</time>
</trkpt>
<trkpt lat="31.8077023" lon="34.9971562">
<ele>337.999969</ele>
<time>2021-09-24T06:48:59.000Z</time>
</trkpt>
<trkpt lat="31.8076195" lon="34.9972814">
<ele>338.799957</ele>
<time>2021-09-24T06:49:08.000Z</time>
</trkpt>
<trkpt lat="31.8075770" lon="34.9973564">
<ele>339.200012</ele>
<time>2021-09-24T06:49:12.000Z</time>
</trkpt>
<trkpt lat="31.8075623" lon="34.9973700">
<ele>339.200012</ele>
<time>2021-09-24T06:49:13.000Z</time>
</trkpt>
<trkpt lat="31.8075467" lon="34.9973849">
<ele>339.399994</ele>
<time>2021-09-24T06:49:14.000Z</time>
</trkpt>
<trkpt lat="31.8075328" lon="34.9974025">
<ele>339.399994</ele>
<time>2021-09-24T06:49:15.000Z</time>
</trkpt>
<trkpt lat="31.8075212" lon="34.9974222">
<ele>339.600006</ele>
<time>2021-09-24T06:49:16.000Z</time>
</trkpt>
<trkpt lat="31.8075106" lon="34.9974432">
<ele>339.600006</ele>
<time>2021-09-24T06:49:17.000Z</time>
</trkpt>
<trkpt lat="31.8074136" lon="34.9976136">
<ele>340.399994</ele>
<time>2021-09-24T06:49:25.000Z</time>
</trkpt>
<trkpt lat="31.8073348" lon="34.9978543">
<ele>341.600037</ele>
<time>2021-09-24T06:49:35.000Z</time>
</trkpt>
<trkpt lat="31.8073283" lon="34.9980480">
<ele>342.600006</ele>
<time>2021-09-24T06:49:43.000Z</time>
</trkpt>
<trkpt lat="31.8073197" lon="34.9982604">
<ele>343.399994</ele>
<time>2021-09-24T06:49:51.000Z</time>
</trkpt>
<trkpt lat="31.8073187" lon="34.9985134">
<ele>344.200012</ele>
<time>2021-09-24T06:50:01.000Z</time>
</trkpt>
<trkpt lat="31.8073329" lon="34.9987245">
<ele>345.399963</ele>
<time>2021-09-24T06:50:09.000Z</time>
</trkpt>
<trkpt lat="31.8072900" lon="34.9989595">
<ele>345.799988</ele>
<time>2021-09-24T06:50:17.000Z</time>
</trkpt>
<trkpt lat="31.8071318" lon="34.9991466">
<ele>346.000031</ele>
<time>2021-09-24T06:50:25.000Z</time>
</trkpt>
<trkpt lat="31.8069407" lon="34.9992723">
<ele>345.799988</ele>
<time>2021-09-24T06:50:31.000Z</time>
</trkpt>
<trkpt lat="31.8068971" lon="34.9992839">
<ele>345.799988</ele>
<time>2021-09-24T06:50:32.000Z</time>
</trkpt>
<trkpt lat="31.8068503" lon="34.9992909">
<ele>345.600006</ele>
<time>2021-09-24T06:50:33.000Z</time>
</trkpt>
<trkpt lat="31.8066998" lon="34.9992904">
<ele>345.399963</ele>
<time>2021-09-24T06:50:36.000Z</time>
</trkpt>
<trkpt lat="31.8066482" lon="34.9992789">
<ele>345.200012</ele>
<time>2021-09-24T06:50:37.000Z</time>
</trkpt>
<trkpt lat="31.8064902" lon="34.9992221">
<ele>345.200012</ele>
<time>2021-09-24T06:50:40.000Z</time>
</trkpt>
<trkpt lat="31.8063869" lon="34.9991741">
<ele>345.200012</ele>
<time>2021-09-24T06:50:42.000Z</time>
</trkpt>
<trkpt lat="31.8059252" lon="34.9989992">
<ele>344.200012</ele>
<time>2021-09-24T06:50:50.000Z</time>
</trkpt>
<trkpt lat="31.8058761" lon="34.9989658">
<ele>344.000000</ele>
<time>2021-09-24T06:50:51.000Z</time>
</trkpt>
<trkpt lat="31.8058363" lon="34.9989231">
<ele>344.000000</ele>
<time>2021-09-24T06:50:52.000Z</time>
</trkpt>
<trkpt lat="31.8058042" lon="34.9988729">
<ele>343.799988</ele>
<time>2021-09-24T06:50:53.000Z</time>
</trkpt>
<trkpt lat="31.8057758" lon="34.9988183">
<ele>343.799988</ele>
<time>2021-09-24T06:50:54.000Z</time>
</trkpt>
<trkpt lat="31.8057513" lon="34.9987618">
<ele>343.799988</ele>
<time>2021-09-24T06:50:55.000Z</time>
</trkpt>
<trkpt lat="31.8057298" lon="34.9987043">
<ele>343.799988</ele>
<time>2021-09-24T06:50:56.000Z</time>
</trkpt>
<trkpt lat="31.8055634" lon="34.9983214">
<ele>344.000000</ele>
<time>2021-09-24T06:51:04.000Z</time>
</trkpt>
<trkpt lat="31.8054229" lon="34.9981127">
<ele>344.799988</ele>
<time>2021-09-24T06:51:12.000Z</time>
</trkpt>
<trkpt lat="31.8052319" lon="34.9979820">
<ele>345.799988</ele>
<time>2021-09-24T06:51:20.000Z</time>
</trkpt>
<trkpt lat="31.8049568" lon="34.9979029">
<ele>346.399994</ele>
<time>2021-09-24T06:51:28.000Z</time>
</trkpt>
<trkpt lat="31.8048422" lon="34.9978995">
<ele>346.399994</ele>
<time>2021-09-24T06:51:31.000Z</time>
</trkpt>
<trkpt lat="31.8047136" lon="34.9979157">
<ele>346.600006</ele>
<time>2021-09-24T06:51:34.000Z</time>
</trkpt>
<trkpt lat="31.8044954" lon="34.9979808">
<ele>346.200012</ele>
<time>2021-09-24T06:51:39.000Z</time>
</trkpt>
<trkpt lat="31.8044551" lon="34.9980063">
<ele>346.200012</ele>
<time>2021-09-24T06:51:40.000Z</time>
</trkpt>
<trkpt lat="31.8042345" lon="34.9981702">
<ele>346.000031</ele>
<time>2021-09-24T06:51:47.000Z</time>
</trkpt>
<trkpt lat="31.8041109" lon="34.9983013">
<ele>346.600006</ele>
<time>2021-09-24T06:51:53.000Z</time>
</trkpt>
<trkpt lat="31.8038896" lon="34.9985226">
<ele>346.800018</ele>
<time>2021-09-24T06:52:01.000Z</time>
</trkpt>
<trkpt lat="31.8034936" lon="34.9988259">
<ele>346.200012</ele>
<time>2021-09-24T06:52:11.000Z</time>
</trkpt>
<trkpt lat="31.8033476" lon="34.9989299">
<ele>345.799988</ele>
<time>2021-09-24T06:52:14.000Z</time>
</trkpt>
<trkpt lat="31.8030191" lon="34.9992617">
<ele>344.799988</ele>
<time>2021-09-24T06:52:22.000Z</time>
</trkpt>
<trkpt lat="31.8028068" lon="34.9994529">
<ele>345.200012</ele>
<time>2021-09-24T06:52:29.000Z</time>
</trkpt>
<trkpt lat="31.8026800" lon="34.9994789">
<ele>346.200012</ele>
<time>2021-09-24T06:52:35.000Z</time>
</trkpt>
<trkpt lat="31.8026473" lon="34.9994734">
<ele>346.600006</ele>
<time>2021-09-24T06:52:37.000Z</time>
</trkpt>
<trkpt lat="31.8026303" lon="34.9994642">
<ele>346.800018</ele>
<time>2021-09-24T06:52:38.000Z</time>
</trkpt>
<trkpt lat="31.8024617" lon="34.9993315">
<ele>347.799988</ele>
<time>2021-09-24T06:52:46.000Z</time>
</trkpt>
<trkpt lat="31.8022672" lon="34.9992235">
<ele>348.200043</ele>
<time>2021-09-24T06:52:54.000Z</time>
</trkpt>
<trkpt lat="31.8021776" lon="34.9990050">
<ele>350.200012</ele>
<time>2021-09-24T06:53:04.000Z</time>
</trkpt>
<trkpt lat="31.8020729" lon="34.9989187">
<ele>350.399994</ele>
<time>2021-09-24T06:53:10.000Z</time>
</trkpt>
<trkpt lat="31.8019076" lon="34.9988524">
<ele>351.000000</ele>
<time>2021-09-24T06:53:18.000Z</time>
</trkpt>
<trkpt lat="31.8017138" lon="34.9987119">
<ele>351.199982</ele>
<time>2021-09-24T06:53:26.000Z</time>
</trkpt>
<trkpt lat="31.8015235" lon="34.9986490">
<ele>351.199982</ele>
<time>2021-09-24T06:53:32.000Z</time>
</trkpt>
<trkpt lat="31.8014934" lon="34.9986736">
<ele>351.000000</ele>
<time>2021-09-24T06:53:33.000Z</time>
</trkpt>
<trkpt lat="31.8012731" lon="34.9988706">
<ele>350.200012</ele>
<time>2021-09-24T06:53:40.000Z</time>
</trkpt>
<trkpt lat="31.8010982" lon="34.9990131">
<ele>350.600006</ele>
<time>2021-09-24T06:53:47.000Z</time>
</trkpt>
<trkpt lat="31.8009838" lon="34.9991482">
<ele>351.399994</ele>
<time>2021-09-24T06:53:55.000Z</time>
</trkpt>
<trkpt lat="31.8008881" lon="34.9992653">
<ele>352.399994</ele>
<time>2021-09-24T06:54:03.000Z</time>
</trkpt>
<trkpt lat="31.8008452" lon="34.9994054">
<ele>354.200012</ele>
<time>2021-09-24T06:54:12.000Z</time>
</trkpt>
<trkpt lat="31.8008570" lon="34.9995641">
<ele>355.399994</ele>
<time>2021-09-24T06:54:21.000Z</time>
</trkpt>
<trkpt lat="31.8008625" lon="34.9997187">
<ele>357.000000</ele>
<time>2021-09-24T06:54:31.000Z</time>
</trkpt>
<trkpt lat="31.8007930" lon="34.9998219">
<ele>358.599976</ele>
<time>2021-09-24T06:54:40.000Z</time>
</trkpt>
<trkpt lat="31.8006665" lon="34.9998366">
<ele>359.799988</ele>
<time>2021-09-24T06:54:48.000Z</time>
</trkpt>
<trkpt lat="31.8005479" lon="34.9998415">
<ele>361.399994</ele>
<time>2021-09-24T06:54:57.000Z</time>
</trkpt>
<trkpt lat="31.8004072" lon="34.9998515">
<ele>362.799988</ele>
<time>2021-09-24T06:55:07.000Z</time>
</trkpt>
<trkpt lat="31.8002667" lon="34.9998518">
<ele>363.799957</ele>
<time>2021-09-24T06:55:16.000Z</time>
</trkpt>
<trkpt lat="31.8001209" lon="34.9998397">
<ele>365.000000</ele>
<time>2021-09-24T06:55:26.000Z</time>
</trkpt>
<trkpt lat="31.7999823" lon="34.9998000">
<ele>366.600037</ele>
<time>2021-09-24T06:55:36.000Z</time>
</trkpt>
<trkpt lat="31.7998553" lon="34.9997697">
<ele>367.799988</ele>
<time>2021-09-24T06:55:44.000Z</time>
</trkpt>
<trkpt lat="31.7997150" lon="34.9998273">
<ele>368.600006</ele>
<time>2021-09-24T06:55:53.000Z</time>
</trkpt>
<trkpt lat="31.7996653" lon="34.9998744">
<ele>369.200012</ele>
<time>2021-09-24T06:55:58.000Z</time>
</trkpt>
<trkpt lat="31.7996642" lon="34.9998876">
<ele>369.399994</ele>
<time>2021-09-24T06:55:59.000Z</time>
</trkpt>
<trkpt lat="31.7996659" lon="34.9999021">
<ele>369.599976</ele>
<time>2021-09-24T06:56:00.000Z</time>
</trkpt>
<trkpt lat="31.7996722" lon="34.9999147">
<ele>369.799988</ele>
<time>2021-09-24T06:56:01.000Z</time>
</trkpt>
<trkpt lat="31.7996805" lon="34.9999292">
<ele>370.000000</ele>
<time>2021-09-24T06:56:02.000Z</time>
</trkpt>
<trkpt lat="31.7997641" lon="35.0000363">
<ele>371.399994</ele>
<time>2021-09-24T06:56:09.000Z</time>
</trkpt>
<trkpt lat="31.7998931" lon="35.0002355">
<ele>371.399994</ele>
<time>2021-09-24T06:56:17.000Z</time>
</trkpt>
<trkpt lat="31.7999315" lon="35.0003532">
<ele>371.399994</ele>
<time>2021-09-24T06:56:20.000Z</time>
</trkpt>
<trkpt lat="31.7999357" lon="35.0004026">
<ele>371.200012</ele>
<time>2021-09-24T06:56:21.000Z</time>
</trkpt>
<trkpt lat="31.7999273" lon="35.0004514">
<ele>371.000000</ele>
<time>2021-09-24T06:56:22.000Z</time>
</trkpt>
<trkpt lat="31.7999078" lon="35.0004944">
<ele>371.000000</ele>
<time>2021-09-24T06:56:23.000Z</time>
</trkpt>
<trkpt lat="31.7998819" lon="35.0005299">
<ele>370.799988</ele>
<time>2021-09-24T06:56:24.000Z</time>
</trkpt>
<trkpt lat="31.7998532" lon="35.0005589">
<ele>370.600006</ele>
<time>2021-09-24T06:56:25.000Z</time>
</trkpt>
<trkpt lat="31.7998218" lon="35.0005844">
<ele>370.600006</ele>
<time>2021-09-24T06:56:26.000Z</time>
</trkpt>
<trkpt lat="31.7997902" lon="35.0006086">
<ele>370.600006</ele>
<time>2021-09-24T06:56:27.000Z</time>
</trkpt>
<trkpt lat="31.7997625" lon="35.0006363">
<ele>370.399963</ele>
<time>2021-09-24T06:56:28.000Z</time>
</trkpt>
<trkpt lat="31.7997377" lon="35.0006656">
<ele>370.399963</ele>
<time>2021-09-24T06:56:29.000Z</time>
</trkpt>
<trkpt lat="31.7995378" lon="35.0008734">
<ele>370.000000</ele>
<time>2021-09-24T06:56:36.000Z</time>
</trkpt>
<trkpt lat="31.7993275" lon="35.0010243">
<ele>369.599976</ele>
<time>2021-09-24T06:56:43.000Z</time>
</trkpt>
<trkpt lat="31.7990870" lon="35.0010555">
<ele>370.000000</ele>
<time>2021-09-24T06:56:50.000Z</time>
</trkpt>
<trkpt lat="31.7989175" lon="35.0011161">
<ele>369.799988</ele>
<time>2021-09-24T06:56:54.000Z</time>
</trkpt>
<trkpt lat="31.7988642" lon="35.0011217">
<ele>369.599976</ele>
<time>2021-09-24T06:56:55.000Z</time>
</trkpt>
<trkpt lat="31.7988035" lon="35.0011125">
<ele>369.399994</ele>
<time>2021-09-24T06:56:56.000Z</time>
</trkpt>
<trkpt lat="31.7987383" lon="35.0010929">
<ele>369.200012</ele>
<time>2021-09-24T06:56:57.000Z</time>
</trkpt>
<trkpt lat="31.7986763" lon="35.0010653">
<ele>368.799988</ele>
<time>2021-09-24T06:56:58.000Z</time>
</trkpt>
<trkpt lat="31.7986146" lon="35.0010340">
<ele>368.600006</ele>
<time>2021-09-24T06:56:59.000Z</time>
</trkpt>
<trkpt lat="31.7981184" lon="35.0007335">
<ele>365.600006</ele>
<time>2021-09-24T06:57:07.000Z</time>
</trkpt>
<trkpt lat="31.7980454" lon="35.0007171">
<ele>365.399994</ele>
<time>2021-09-24T06:57:08.000Z</time>
</trkpt>
<trkpt lat="31.7979672" lon="35.0007100">
<ele>365.200012</ele>
<time>2021-09-24T06:57:09.000Z</time>
</trkpt>
<trkpt lat="31.7976127" lon="35.0007319">
<ele>363.799957</ele>
<time>2021-09-24T06:57:13.000Z</time>
</trkpt>
<trkpt lat="31.7975264" lon="35.0007632">
<ele>363.600006</ele>
<time>2021-09-24T06:57:14.000Z</time>
</trkpt>
<trkpt lat="31.7974406" lon="35.0007978">
<ele>363.399994</ele>
<time>2021-09-24T06:57:15.000Z</time>
</trkpt>
<trkpt lat="31.7973547" lon="35.0008254">
<ele>362.199982</ele>
<time>2021-09-24T06:57:16.000Z</time>
</trkpt>
<trkpt lat="31.7972730" lon="35.0008433">
<ele>361.600006</ele>
<time>2021-09-24T06:57:17.000Z</time>
</trkpt>
<trkpt lat="31.7971964" lon="35.0008531">
<ele>361.200012</ele>
<time>2021-09-24T06:57:18.000Z</time>
</trkpt>
<trkpt lat="31.7971247" lon="35.0008567">
<ele>360.800018</ele>
<time>2021-09-24T06:57:19.000Z</time>
</trkpt>
<trkpt lat="31.7970596" lon="35.0008518">
<ele>360.600006</ele>
<time>2021-09-24T06:57:20.000Z</time>
</trkpt>
<trkpt lat="31.7970010" lon="35.0008410">
<ele>360.399994</ele>
<time>2021-09-24T06:57:21.000Z</time>
</trkpt>
<trkpt lat="31.7968610" lon="35.0008178">
<ele>360.200012</ele>
<time>2021-09-24T06:57:24.000Z</time>
</trkpt>
<trkpt lat="31.7968196" lon="35.0008133">
<ele>360.399994</ele>
<time>2021-09-24T06:57:25.000Z</time>
</trkpt>
<trkpt lat="31.7967842" lon="35.0008058">
<ele>360.399994</ele>
<time>2021-09-24T06:57:26.000Z</time>
</trkpt>
<trkpt lat="31.7966069" lon="35.0007260">
<ele>361.399994</ele>
<time>2021-09-24T06:57:33.000Z</time>
</trkpt>
<trkpt lat="31.7963684" lon="35.0006007">
<ele>362.600006</ele>
<time>2021-09-24T06:57:42.000Z</time>
</trkpt>
<trkpt lat="31.7962070" lon="35.0005577">
<ele>362.600006</ele>
<time>2021-09-24T06:57:46.000Z</time>
</trkpt>
<trkpt lat="31.7959142" lon="35.0004388">
<ele>362.399994</ele>
<time>2021-09-24T06:57:53.000Z</time>
</trkpt>
<trkpt lat="31.7958712" lon="35.0004267">
<ele>362.399994</ele>
<time>2021-09-24T06:57:54.000Z</time>
</trkpt>
<trkpt lat="31.7958285" lon="35.0004204">
<ele>362.399994</ele>
<time>2021-09-24T06:57:55.000Z</time>
</trkpt>
<trkpt lat="31.7957871" lon="35.0004194">
<ele>362.399994</ele>
<time>2021-09-24T06:57:56.000Z</time>
</trkpt>
<trkpt lat="31.7957470" lon="35.0004209">
<ele>362.600006</ele>
<time>2021-09-24T06:57:57.000Z</time>
</trkpt>
<trkpt lat="31.7956086" lon="35.0004406">
<ele>362.799988</ele>
<time>2021-09-24T06:58:02.000Z</time>
</trkpt>
<trkpt lat="31.7954066" lon="35.0004439">
<ele>364.399994</ele>
<time>2021-09-24T06:58:12.000Z</time>
</trkpt>
<trkpt lat="31.7951740" lon="35.0004434">
<ele>365.200012</ele>
<time>2021-09-24T06:58:21.000Z</time>
</trkpt>
<trkpt lat="31.7951339" lon="35.0004494">
<ele>365.200012</ele>
<time>2021-09-24T06:58:22.000Z</time>
</trkpt>
<trkpt lat="31.7947247" lon="35.0005007">
<ele>364.200012</ele>
<time>2021-09-24T06:58:30.000Z</time>
</trkpt>
<trkpt lat="31.7944565" lon="35.0005881">
<ele>363.399994</ele>
<time>2021-09-24T06:58:35.000Z</time>
</trkpt>
<trkpt lat="31.7944147" lon="35.0006165">
<ele>363.200012</ele>
<time>2021-09-24T06:58:36.000Z</time>
</trkpt>
<trkpt lat="31.7943872" lon="35.0006545">
<ele>362.999969</ele>
<time>2021-09-24T06:58:37.000Z</time>
</trkpt>
<trkpt lat="31.7943792" lon="35.0006928">
<ele>362.799988</ele>
<time>2021-09-24T06:58:38.000Z</time>
</trkpt>
<trkpt lat="31.7943909" lon="35.0007292">
<ele>362.600006</ele>
<time>2021-09-24T06:58:39.000Z</time>
</trkpt>
<trkpt lat="31.7944106" lon="35.0007584">
<ele>362.600006</ele>
<time>2021-09-24T06:58:40.000Z</time>
</trkpt>
<trkpt lat="31.7944303" lon="35.0007796">
<ele>362.600006</ele>
<time>2021-09-24T06:58:41.000Z</time>
</trkpt>
<trkpt lat="31.7944506" lon="35.0007903">
<ele>362.600006</ele>
<time>2021-09-24T06:58:42.000Z</time>
</trkpt>
<trkpt lat="31.7944732" lon="35.0007934">
<ele>362.799988</ele>
<time>2021-09-24T06:58:43.000Z</time>
</trkpt>
<trkpt lat="31.7944925" lon="35.0007948">
<ele>362.799988</ele>
<time>2021-09-24T06:58:44.000Z</time>
</trkpt>
<trkpt lat="31.7946369" lon="35.0007715">
<ele>364.799988</ele>
<time>2021-09-24T06:58:53.000Z</time>
</trkpt>
<trkpt lat="31.7948757" lon="35.0006993">
<ele>366.399994</ele>
<time>2021-09-24T06:59:02.000Z</time>
</trkpt>
<trkpt lat="31.7951739" lon="35.0006706">
<ele>368.399994</ele>
<time>2021-09-24T06:59:13.000Z</time>
</trkpt>
<trkpt lat="31.7953285" lon="35.0007022">
<ele>369.399994</ele>
<time>2021-09-24T06:59:20.000Z</time>
</trkpt>
<trkpt lat="31.7954720" lon="35.0007633">
<ele>370.399963</ele>
<time>2021-09-24T06:59:27.000Z</time>
</trkpt>
<trkpt lat="31.7956285" lon="35.0008493">
<ele>371.200012</ele>
<time>2021-09-24T06:59:35.000Z</time>
</trkpt>
<trkpt lat="31.7957061" lon="35.0008991">
<ele>368.399994</ele>
<time>2021-09-24T06:59:40.000Z</time>
</trkpt>
<trkpt lat="31.7957298" lon="35.0009146">
<ele>371.399994</ele>
<time>2021-09-24T06:59:42.000Z</time>
</trkpt>
<trkpt lat="31.7957657" lon="35.0009388">
<ele>374.800018</ele>
<time>2021-09-24T06:59:45.000Z</time>
</trkpt>
<trkpt lat="31.7957763" lon="35.0009490">
<ele>375.000000</ele>
<time>2021-09-24T06:59:46.000Z</time>
</trkpt>
<trkpt lat="31.7958677" lon="35.0010788">
<ele>375.200012</ele>
<time>2021-09-24T06:59:53.000Z</time>
</trkpt>
<trkpt lat="31.7958829" lon="35.0012181">
<ele>375.399994</ele>
<time>2021-09-24T07:00:01.000Z</time>
</trkpt>
<trkpt lat="31.7958407" lon="35.0013394">
<ele>376.399994</ele>
<time>2021-09-24T07:00:09.000Z</time>
</trkpt>
<trkpt lat="31.7957541" lon="35.0014988">
<ele>377.600037</ele>
<time>2021-09-24T07:00:20.000Z</time>
</trkpt>
<trkpt lat="31.7956428" lon="35.0016560">
<ele>378.400024</ele>
<time>2021-09-24T07:00:28.000Z</time>
</trkpt>
<trkpt lat="31.7955014" lon="35.0018131">
<ele>379.200012</ele>
<time>2021-09-24T07:00:36.000Z</time>
</trkpt>
<trkpt lat="31.7953528" lon="35.0019899">
<ele>380.399994</ele>
<time>2021-09-24T07:00:46.000Z</time>
</trkpt>
<trkpt lat="31.7951678" lon="35.0021723">
<ele>381.000000</ele>
<time>2021-09-24T07:00:54.000Z</time>
</trkpt>
<trkpt lat="31.7949101" lon="35.0024173">
<ele>381.600006</ele>
<time>2021-09-24T07:01:03.000Z</time>
</trkpt>
<trkpt lat="31.7947170" lon="35.0026034">
<ele>382.200012</ele>
<time>2021-09-24T07:01:09.000Z</time>
</trkpt>
<trkpt lat="31.7945201" lon="35.0027903">
<ele>383.200012</ele>
<time>2021-09-24T07:01:17.000Z</time>
</trkpt>
<trkpt lat="31.7943679" lon="35.0029992">
<ele>384.799988</ele>
<time>2021-09-24T07:01:27.000Z</time>
</trkpt>
<trkpt lat="31.7942463" lon="35.0032017">
<ele>385.800018</ele>
<time>2021-09-24T07:01:35.000Z</time>
</trkpt>
<trkpt lat="31.7941082" lon="35.0034593">
<ele>387.000000</ele>
<time>2021-09-24T07:01:45.000Z</time>
</trkpt>
<trkpt lat="31.7939992" lon="35.0036760">
<ele>388.200012</ele>
<time>2021-09-24T07:01:54.000Z</time>
</trkpt>
<trkpt lat="31.7938789" lon="35.0039495">
<ele>388.399994</ele>
<time>2021-09-24T07:02:02.000Z</time>
</trkpt>
<trkpt lat="31.7936617" lon="35.0042774">
<ele>387.999969</ele>
<time>2021-09-24T07:02:09.000Z</time>
</trkpt>
<trkpt lat="31.7935373" lon="35.0044369">
<ele>387.600006</ele>
<time>2021-09-24T07:02:12.000Z</time>
</trkpt>
<trkpt lat="31.7934864" lon="35.0044806">
<ele>387.600006</ele>
<time>2021-09-24T07:02:13.000Z</time>
</trkpt>
<trkpt lat="31.7934319" lon="35.0045133">
<ele>387.199982</ele>
<time>2021-09-24T07:02:14.000Z</time>
</trkpt>
<trkpt lat="31.7933736" lon="35.0045384">
<ele>387.000000</ele>
<time>2021-09-24T07:02:15.000Z</time>
</trkpt>
<trkpt lat="31.7933148" lon="35.0045580">
<ele>386.799988</ele>
<time>2021-09-24T07:02:16.000Z</time>
</trkpt>
<trkpt lat="31.7932574" lon="35.0045713">
<ele>386.799988</ele>
<time>2021-09-24T07:02:17.000Z</time>
</trkpt>
<trkpt lat="31.7931993" lon="35.0045830">
<ele>386.600006</ele>
<time>2021-09-24T07:02:18.000Z</time>
</trkpt>
<trkpt lat="31.7930854" lon="35.0046204">
<ele>386.399994</ele>
<time>2021-09-24T07:02:20.000Z</time>
</trkpt>
<trkpt lat="31.7930303" lon="35.0046546">
<ele>386.200012</ele>
<time>2021-09-24T07:02:21.000Z</time>
</trkpt>
<trkpt lat="31.7929829" lon="35.0046997">
<ele>386.000000</ele>
<time>2021-09-24T07:02:22.000Z</time>
</trkpt>
<trkpt lat="31.7929481" lon="35.0047531">
<ele>385.800018</ele>
<time>2021-09-24T07:02:23.000Z</time>
</trkpt>
<trkpt lat="31.7929210" lon="35.0048122">
<ele>385.800018</ele>
<time>2021-09-24T07:02:24.000Z</time>
</trkpt>
<trkpt lat="31.7929008" lon="35.0048686">
<ele>385.600006</ele>
<time>2021-09-24T07:02:25.000Z</time>
</trkpt>
<trkpt lat="31.7928887" lon="35.0049211">
<ele>385.399994</ele>
<time>2021-09-24T07:02:26.000Z</time>
</trkpt>
<trkpt lat="31.7928775" lon="35.0049674">
<ele>385.200012</ele>
<time>2021-09-24T07:02:27.000Z</time>
</trkpt>
<trkpt lat="31.7927466" lon="35.0052720">
<ele>386.399994</ele>
<time>2021-09-24T07:02:35.000Z</time>
</trkpt>
<trkpt lat="31.7925763" lon="35.0054337">
<ele>387.600006</ele>
<time>2021-09-24T07:02:42.000Z</time>
</trkpt>
<trkpt lat="31.7923326" lon="35.0056699">
<ele>388.200012</ele>
<time>2021-09-24T07:02:51.000Z</time>
</trkpt>
<trkpt lat="31.7920365" lon="35.0059574">
<ele>387.999969</ele>
<time>2021-09-24T07:02:59.000Z</time>
</trkpt>
<trkpt lat="31.7916554" lon="35.0063496">
<ele>386.799988</ele>
<time>2021-09-24T07:03:07.000Z</time>
</trkpt>
<trkpt lat="31.7911468" lon="35.0067966">
<ele>385.000031</ele>
<time>2021-09-24T07:03:15.000Z</time>
</trkpt>
<trkpt lat="31.7906938" lon="35.0071517">
<ele>383.599976</ele>
<time>2021-09-24T07:03:22.000Z</time>
</trkpt>
<trkpt lat="31.7903695" lon="35.0075563">
<ele>382.600006</ele>
<time>2021-09-24T07:03:29.000Z</time>
</trkpt>
<trkpt lat="31.7899793" lon="35.0081481">
<ele>381.200012</ele>
<time>2021-09-24T07:03:38.000Z</time>
</trkpt>
<trkpt lat="31.7898556" lon="35.0083311">
<ele>381.000000</ele>
<time>2021-09-24T07:03:41.000Z</time>
</trkpt>
<trkpt lat="31.7898121" lon="35.0083818">
<ele>380.799988</ele>
<time>2021-09-24T07:03:42.000Z</time>
</trkpt>
<trkpt lat="31.7897652" lon="35.0084253">
<ele>380.799988</ele>
<time>2021-09-24T07:03:43.000Z</time>
</trkpt>
<trkpt lat="31.7897157" lon="35.0084620">
<ele>380.799988</ele>
<time>2021-09-24T07:03:44.000Z</time>
</trkpt>
<trkpt lat="31.7896619" lon="35.0084945">
<ele>380.799988</ele>
<time>2021-09-24T07:03:45.000Z</time>
</trkpt>
<trkpt lat="31.7896049" lon="35.0085211">
<ele>380.600037</ele>
<time>2021-09-24T07:03:46.000Z</time>
</trkpt>
<trkpt lat="31.7895464" lon="35.0085409">
<ele>380.600037</ele>
<time>2021-09-24T07:03:47.000Z</time>
</trkpt>
<trkpt lat="31.7894864" lon="35.0085575">
<ele>380.600037</ele>
<time>2021-09-24T07:03:48.000Z</time>
</trkpt>
<trkpt lat="31.7890554" lon="35.0086796">
<ele>379.799988</ele>
<time>2021-09-24T07:03:54.000Z</time>
</trkpt>
<trkpt lat="31.7885073" lon="35.0088829">
<ele>378.000000</ele>
<time>2021-09-24T07:04:01.000Z</time>
</trkpt>
<trkpt lat="31.7883606" lon="35.0089205">
<ele>377.600037</ele>
<time>2021-09-24T07:04:03.000Z</time>
</trkpt>
<trkpt lat="31.7881436" lon="35.0089589">
<ele>376.600006</ele>
<time>2021-09-24T07:04:06.000Z</time>
</trkpt>
<trkpt lat="31.7877795" lon="35.0090776">
<ele>375.799988</ele>
<time>2021-09-24T07:04:11.000Z</time>
</trkpt>
<trkpt lat="31.7875447" lon="35.0091347">
<ele>375.399994</ele>
<time>2021-09-24T07:04:14.000Z</time>
</trkpt>
<trkpt lat="31.7874608" lon="35.0091364">
<ele>375.000000</ele>
<time>2021-09-24T07:04:15.000Z</time>
</trkpt>
<trkpt lat="31.7873741" lon="35.0091291">
<ele>374.600006</ele>
<time>2021-09-24T07:04:16.000Z</time>
</trkpt>
<trkpt lat="31.7867162" lon="35.0090166">
<ele>372.200012</ele>
<time>2021-09-24T07:04:23.000Z</time>
</trkpt>
<trkpt lat="31.7860278" lon="35.0088910">
<ele>369.000000</ele>
<time>2021-09-24T07:04:30.000Z</time>
</trkpt>
<trkpt lat="31.7859242" lon="35.0088820">
<ele>368.200012</ele>
<time>2021-09-24T07:04:31.000Z</time>
</trkpt>
<trkpt lat="31.7858213" lon="35.0088856">
<ele>367.400024</ele>
<time>2021-09-24T07:04:32.000Z</time>
</trkpt>
<trkpt lat="31.7857195" lon="35.0089054">
<ele>366.799988</ele>
<time>2021-09-24T07:04:33.000Z</time>
</trkpt>
<trkpt lat="31.7856232" lon="35.0089377">
<ele>366.000000</ele>
<time>2021-09-24T07:04:34.000Z</time>
</trkpt>
<trkpt lat="31.7853590" lon="35.0090572">
<ele>364.200012</ele>
<time>2021-09-24T07:04:37.000Z</time>
</trkpt>
<trkpt lat="31.7852851" lon="35.0091118">
<ele>363.600006</ele>
<time>2021-09-24T07:04:38.000Z</time>
</trkpt>
<trkpt lat="31.7852210" lon="35.0091736">
<ele>363.200012</ele>
<time>2021-09-24T07:04:39.000Z</time>
</trkpt>
<trkpt lat="31.7851636" lon="35.0092374">
<ele>362.799988</ele>
<time>2021-09-24T07:04:40.000Z</time>
</trkpt>
<trkpt lat="31.7851117" lon="35.0093027">
<ele>362.600006</ele>
<time>2021-09-24T07:04:41.000Z</time>
</trkpt>
<trkpt lat="31.7850663" lon="35.0093687">
<ele>362.199982</ele>
<time>2021-09-24T07:04:42.000Z</time>
</trkpt>
<trkpt lat="31.7850284" lon="35.0094342">
<ele>362.199982</ele>
<time>2021-09-24T07:04:43.000Z</time>
</trkpt>
<trkpt lat="31.7849962" lon="35.0094996">
<ele>362.199982</ele>
<time>2021-09-24T07:04:44.000Z</time>
</trkpt>
<trkpt lat="31.7849724" lon="35.0095655">
<ele>362.199982</ele>
<time>2021-09-24T07:04:45.000Z</time>
</trkpt>
<trkpt lat="31.7849553" lon="35.0096327">
<ele>362.199982</ele>
<time>2021-09-24T07:04:46.000Z</time>
</trkpt>
<trkpt lat="31.7849428" lon="35.0096990">
<ele>362.199982</ele>
<time>2021-09-24T07:04:47.000Z</time>
</trkpt>
<trkpt lat="31.7849327" lon="35.0097637">
<ele>362.199982</ele>
<time>2021-09-24T07:04:48.000Z</time>
</trkpt>
<trkpt lat="31.7848646" lon="35.0103755">
<ele>363.399994</ele>
<time>2021-09-24T07:04:58.000Z</time>
</trkpt>
<trkpt lat="31.7848557" lon="35.0104351">
<ele>363.399994</ele>
<time>2021-09-24T07:04:59.000Z</time>
</trkpt>
<trkpt lat="31.7848500" lon="35.0104973">
<ele>363.399994</ele>
<time>2021-09-24T07:05:00.000Z</time>
</trkpt>
<trkpt lat="31.7848490" lon="35.0105628">
<ele>363.399994</ele>
<time>2021-09-24T07:05:01.000Z</time>
</trkpt>
<trkpt lat="31.7848488" lon="35.0106273">
<ele>363.600006</ele>
<time>2021-09-24T07:05:02.000Z</time>
</trkpt>
<trkpt lat="31.7848548" lon="35.0107604">
<ele>363.600006</ele>
<time>2021-09-24T07:05:04.000Z</time>
</trkpt>
<trkpt lat="31.7848654" lon="35.0108313">
<ele>363.600006</ele>
<time>2021-09-24T07:05:05.000Z</time>
</trkpt>
<trkpt lat="31.7848819" lon="35.0109075">
<ele>363.600006</ele>
<time>2021-09-24T07:05:06.000Z</time>
</trkpt>
<trkpt lat="31.7849059" lon="35.0109854">
<ele>363.600006</ele>
<time>2021-09-24T07:05:07.000Z</time>
</trkpt>
<trkpt lat="31.7849403" lon="35.0110617">
<ele>363.600006</ele>
<time>2021-09-24T07:05:08.000Z</time>
</trkpt>
<trkpt lat="31.7849811" lon="35.0111313">
<ele>363.399994</ele>
<time>2021-09-24T07:05:09.000Z</time>
</trkpt>
<trkpt lat="31.7850260" lon="35.0111947">
<ele>363.399994</ele>
<time>2021-09-24T07:05:10.000Z</time>
</trkpt>
<trkpt lat="31.7850760" lon="35.0112504">
<ele>363.399994</ele>
<time>2021-09-24T07:05:11.000Z</time>
</trkpt>
<trkpt lat="31.7851322" lon="35.0112951">
<ele>363.399994</ele>
<time>2021-09-24T07:05:12.000Z</time>
</trkpt>
<trkpt lat="31.7851961" lon="35.0113231">
<ele>363.399994</ele>
<time>2021-09-24T07:05:13.000Z</time>
</trkpt>
<trkpt lat="31.7852675" lon="35.0113419">
<ele>363.399994</ele>
<time>2021-09-24T07:05:14.000Z</time>
</trkpt>
<trkpt lat="31.7853400" lon="35.0113517">
<ele>363.200012</ele>
<time>2021-09-24T07:05:15.000Z</time>
</trkpt>
<trkpt lat="31.7854111" lon="35.0113547">
<ele>363.200012</ele>
<time>2021-09-24T07:05:16.000Z</time>
</trkpt>
<trkpt lat="31.7854824" lon="35.0113502">
<ele>363.200012</ele>
<time>2021-09-24T07:05:17.000Z</time>
</trkpt>
<trkpt lat="31.7855523" lon="35.0113390">
<ele>363.200012</ele>
<time>2021-09-24T07:05:18.000Z</time>
</trkpt>
<trkpt lat="31.7856181" lon="35.0113194">
<ele>363.200012</ele>
<time>2021-09-24T07:05:19.000Z</time>
</trkpt>
<trkpt lat="31.7856816" lon="35.0112926">
<ele>363.200012</ele>
<time>2021-09-24T07:05:20.000Z</time>
</trkpt>
<trkpt lat="31.7857425" lon="35.0112587">
<ele>363.200012</ele>
<time>2021-09-24T07:05:21.000Z</time>
</trkpt>
<trkpt lat="31.7858012" lon="35.0112197">
<ele>363.200012</ele>
<time>2021-09-24T07:05:22.000Z</time>
</trkpt>
<trkpt lat="31.7862309" lon="35.0108568">
<ele>363.600006</ele>
<time>2021-09-24T07:05:30.000Z</time>
</trkpt>
<trkpt lat="31.7865811" lon="35.0106072">
<ele>363.600006</ele>
<time>2021-09-24T07:05:36.000Z</time>
</trkpt>
<trkpt lat="31.7866412" lon="35.0105840">
<ele>363.600006</ele>
<time>2021-09-24T07:05:37.000Z</time>
</trkpt>
<trkpt lat="31.7871180" lon="35.0105159">
<ele>364.000000</ele>
<time>2021-09-24T07:05:45.000Z</time>
</trkpt>
<trkpt lat="31.7875378" lon="35.0105309">
<ele>364.200012</ele>
<time>2021-09-24T07:05:52.000Z</time>
</trkpt>
<trkpt lat="31.7881140" lon="35.0104819">
<ele>364.399994</ele>
<time>2021-09-24T07:06:01.000Z</time>
</trkpt>
<trkpt lat="31.7887042" lon="35.0104373">
<ele>364.000000</ele>
<time>2021-09-24T07:06:10.000Z</time>
</trkpt>
<trkpt lat="31.7891368" lon="35.0105419">
<ele>363.600006</ele>
<time>2021-09-24T07:06:17.000Z</time>
</trkpt>
<trkpt lat="31.7895496" lon="35.0105691">
<ele>363.399994</ele>
<time>2021-09-24T07:06:24.000Z</time>
</trkpt>
<trkpt lat="31.7896106" lon="35.0105532">
<ele>363.200012</ele>
<time>2021-09-24T07:06:25.000Z</time>
</trkpt>
<trkpt lat="31.7896726" lon="35.0105259">
<ele>363.200012</ele>
<time>2021-09-24T07:06:26.000Z</time>
</trkpt>
<trkpt lat="31.7900791" lon="35.0102809">
<ele>362.000000</ele>
<time>2021-09-24T07:06:33.000Z</time>
</trkpt>
<trkpt lat="31.7901340" lon="35.0102591">
<ele>362.000000</ele>
<time>2021-09-24T07:06:34.000Z</time>
</trkpt>
<trkpt lat="31.7901888" lon="35.0102453">
<ele>362.000000</ele>
<time>2021-09-24T07:06:35.000Z</time>
</trkpt>
<trkpt lat="31.7902468" lon="35.0102398">
<ele>362.000000</ele>
<time>2021-09-24T07:06:36.000Z</time>
</trkpt>
<trkpt lat="31.7903069" lon="35.0102445">
<ele>362.000000</ele>
<time>2021-09-24T07:06:37.000Z</time>
</trkpt>
<trkpt lat="31.7903682" lon="35.0102559">
<ele>362.000000</ele>
<time>2021-09-24T07:06:38.000Z</time>
</trkpt>
<trkpt lat="31.7908929" lon="35.0104009">
<ele>361.799988</ele>
<time>2021-09-24T07:06:46.000Z</time>
</trkpt>
<trkpt lat="31.7915095" lon="35.0105589">
<ele>361.399994</ele>
<time>2021-09-24T07:06:55.000Z</time>
</trkpt>
<trkpt lat="31.7919698" lon="35.0107113">
<ele>360.600006</ele>
<time>2021-09-24T07:07:02.000Z</time>
</trkpt>
<trkpt lat="31.7922932" lon="35.0108275">
<ele>359.399994</ele>
<time>2021-09-24T07:07:07.000Z</time>
</trkpt>
<trkpt lat="31.7923527" lon="35.0108678">
<ele>359.200043</ele>
<time>2021-09-24T07:07:08.000Z</time>
</trkpt>
<trkpt lat="31.7924069" lon="35.0109179">
<ele>359.000000</ele>
<time>2021-09-24T07:07:09.000Z</time>
</trkpt>
<trkpt lat="31.7925576" lon="35.0110931">
<ele>357.399994</ele>
<time>2021-09-24T07:07:13.000Z</time>
</trkpt>
<trkpt lat="31.7926221" lon="35.0111221">
<ele>356.200012</ele>
<time>2021-09-24T07:07:16.000Z</time>
</trkpt>
<trkpt lat="31.7926498" lon="35.0111110">
<ele>355.799988</ele>
<time>2021-09-24T07:07:17.000Z</time>
</trkpt>
<trkpt lat="31.7926871" lon="35.0110904">
<ele>355.399994</ele>
<time>2021-09-24T07:07:18.000Z</time>
</trkpt>
<trkpt lat="31.7927293" lon="35.0110650">
<ele>355.000000</ele>
<time>2021-09-24T07:07:19.000Z</time>
</trkpt>
<trkpt lat="31.7927782" lon="35.0110452">
<ele>354.600006</ele>
<time>2021-09-24T07:07:20.000Z</time>
</trkpt>
<trkpt lat="31.7928330" lon="35.0110334">
<ele>354.200012</ele>
<time>2021-09-24T07:07:21.000Z</time>
</trkpt>
<trkpt lat="31.7928907" lon="35.0110287">
<ele>353.799988</ele>
<time>2021-09-24T07:07:22.000Z</time>
</trkpt>
<trkpt lat="31.7929503" lon="35.0110333">
<ele>353.400024</ele>
<time>2021-09-24T07:07:23.000Z</time>
</trkpt>
<trkpt lat="31.7930141" lon="35.0110484">
<ele>352.399994</ele>
<time>2021-09-24T07:07:24.000Z</time>
</trkpt>
<trkpt lat="31.7930803" lon="35.0110681">
<ele>351.999969</ele>
<time>2021-09-24T07:07:25.000Z</time>
</trkpt>
<trkpt lat="31.7933032" lon="35.0111579">
<ele>350.000000</ele>
<time>2021-09-24T07:07:28.000Z</time>
</trkpt>
<trkpt lat="31.7935162" lon="35.0112711">
<ele>347.600006</ele>
<time>2021-09-24T07:07:31.000Z</time>
</trkpt>
<trkpt lat="31.7935671" lon="35.0112857">
<ele>346.800018</ele>
<time>2021-09-24T07:07:32.000Z</time>
</trkpt>
<trkpt lat="31.7936073" lon="35.0112854">
<ele>346.000031</ele>
<time>2021-09-24T07:07:33.000Z</time>
</trkpt>
<trkpt lat="31.7936391" lon="35.0112711">
<ele>345.600006</ele>
<time>2021-09-24T07:07:34.000Z</time>
</trkpt>
<trkpt lat="31.7936638" lon="35.0112412">
<ele>345.000000</ele>
<time>2021-09-24T07:07:35.000Z</time>
</trkpt>
<trkpt lat="31.7936787" lon="35.0111964">
<ele>344.399994</ele>
<time>2021-09-24T07:07:36.000Z</time>
</trkpt>
<trkpt lat="31.7938494" lon="35.0109849">
<ele>342.000000</ele>
<time>2021-09-24T07:07:41.000Z</time>
</trkpt>
<trkpt lat="31.7939172" lon="35.0109763">
<ele>341.799988</ele>
<time>2021-09-24T07:07:42.000Z</time>
</trkpt>
<trkpt lat="31.7944566" lon="35.0109878">
<ele>340.200012</ele>
<time>2021-09-24T07:07:49.000Z</time>
</trkpt>
<trkpt lat="31.7950179" lon="35.0110376">
<ele>337.999969</ele>
<time>2021-09-24T07:07:55.000Z</time>
</trkpt>
<trkpt lat="31.7951058" lon="35.0110651">
<ele>337.600006</ele>
<time>2021-09-24T07:07:56.000Z</time>
</trkpt>
<trkpt lat="31.7951935" lon="35.0111074">
<ele>337.399994</ele>
<time>2021-09-24T07:07:57.000Z</time>
</trkpt>
<trkpt lat="31.7952810" lon="35.0111581">
<ele>337.199982</ele>
<time>2021-09-24T07:07:58.000Z</time>
</trkpt>
<trkpt lat="31.7953725" lon="35.0112156">
<ele>336.600006</ele>
<time>2021-09-24T07:07:59.000Z</time>
</trkpt>
<trkpt lat="31.7958322" lon="35.0114473">
<ele>333.600006</ele>
<time>2021-09-24T07:08:04.000Z</time>
</trkpt>
<trkpt lat="31.7959224" lon="35.0114600">
<ele>332.799988</ele>
<time>2021-09-24T07:08:05.000Z</time>
</trkpt>
<trkpt lat="31.7960153" lon="35.0114603">
<ele>332.399994</ele>
<time>2021-09-24T07:08:06.000Z</time>
</trkpt>
<trkpt lat="31.7961018" lon="35.0114533">
<ele>332.200012</ele>
<time>2021-09-24T07:08:07.000Z</time>
</trkpt>
<trkpt lat="31.7961848" lon="35.0114434">
<ele>332.000000</ele>
<time>2021-09-24T07:08:08.000Z</time>
</trkpt>
<trkpt lat="31.7966391" lon="35.0113990">
<ele>330.399994</ele>
<time>2021-09-24T07:08:13.000Z</time>
</trkpt>
<trkpt lat="31.7969328" lon="35.0113778">
<ele>329.200012</ele>
<time>2021-09-24T07:08:16.000Z</time>
</trkpt>
<trkpt lat="31.7974250" lon="35.0112209">
<ele>325.799988</ele>
<time>2021-09-24T07:08:21.000Z</time>
</trkpt>
<trkpt lat="31.7975198" lon="35.0112045">
<ele>325.200012</ele>
<time>2021-09-24T07:08:22.000Z</time>
</trkpt>
<trkpt lat="31.7976086" lon="35.0112033">
<ele>324.600006</ele>
<time>2021-09-24T07:08:23.000Z</time>
</trkpt>
<trkpt lat="31.7976965" lon="35.0112178">
<ele>323.999969</ele>
<time>2021-09-24T07:08:24.000Z</time>
</trkpt>
<trkpt lat="31.7977852" lon="35.0112498">
<ele>323.200043</ele>
<time>2021-09-24T07:08:25.000Z</time>
</trkpt>
<trkpt lat="31.7978737" lon="35.0112931">
<ele>322.399994</ele>
<time>2021-09-24T07:08:26.000Z</time>
</trkpt>
<trkpt lat="31.7979622" lon="35.0113396">
<ele>321.600006</ele>
<time>2021-09-24T07:08:27.000Z</time>
</trkpt>
<trkpt lat="31.7984138" lon="35.0115369">
<ele>317.799988</ele>
<time>2021-09-24T07:08:32.000Z</time>
</trkpt>
<trkpt lat="31.7984987" lon="35.0115971">
<ele>317.200012</ele>
<time>2021-09-24T07:08:33.000Z</time>
</trkpt>
<trkpt lat="31.7985818" lon="35.0116643">
<ele>316.799988</ele>
<time>2021-09-24T07:08:34.000Z</time>
</trkpt>
<trkpt lat="31.7986616" lon="35.0117363">
<ele>316.200012</ele>
<time>2021-09-24T07:08:35.000Z</time>
</trkpt>
<trkpt lat="31.7987400" lon="35.0118113">
<ele>315.600006</ele>
<time>2021-09-24T07:08:36.000Z</time>
</trkpt>
<trkpt lat="31.7991981" lon="35.0122315">
<ele>311.799988</ele>
<time>2021-09-24T07:08:42.000Z</time>
</trkpt>
<trkpt lat="31.7993152" lon="35.0123396">
<ele>310.600006</ele>
<time>2021-09-24T07:08:44.000Z</time>
</trkpt>
<trkpt lat="31.7993792" lon="35.0123712">
<ele>309.399994</ele>
<time>2021-09-24T07:08:45.000Z</time>
</trkpt>
<trkpt lat="31.7994458" lon="35.0123722">
<ele>308.799988</ele>
<time>2021-09-24T07:08:46.000Z</time>
</trkpt>
<trkpt lat="31.7995138" lon="35.0123575">
<ele>308.200012</ele>
<time>2021-09-24T07:08:47.000Z</time>
</trkpt>
<trkpt lat="31.7995837" lon="35.0123453">
<ele>307.600006</ele>
<time>2021-09-24T07:08:48.000Z</time>
</trkpt>
<trkpt lat="31.7996604" lon="35.0123383">
<ele>307.200012</ele>
<time>2021-09-24T07:08:49.000Z</time>
</trkpt>
<trkpt lat="31.8002384" lon="35.0122860">
<ele>303.799988</ele>
<time>2021-09-24T07:08:56.000Z</time>
</trkpt>
<trkpt lat="31.8009300" lon="35.0122248">
<ele>300.799988</ele>
<time>2021-09-24T07:09:04.000Z</time>
</trkpt>
<trkpt lat="31.8012439" lon="35.0121305">
<ele>299.200012</ele>
<time>2021-09-24T07:09:08.000Z</time>
</trkpt>
<trkpt lat="31.8016450" lon="35.0118391">
<ele>297.399994</ele>
<time>2021-09-24T07:09:14.000Z</time>
</trkpt>
<trkpt lat="31.8018201" lon="35.0116761">
<ele>296.799988</ele>
<time>2021-09-24T07:09:17.000Z</time>
</trkpt>
<trkpt lat="31.8022182" lon="35.0113891">
<ele>296.000000</ele>
<time>2021-09-24T07:09:23.000Z</time>
</trkpt>
<trkpt lat="31.8022808" lon="35.0113246">
<ele>295.799988</ele>
<time>2021-09-24T07:09:24.000Z</time>
</trkpt>
<trkpt lat="31.8023373" lon="35.0112541">
<ele>295.799988</ele>
<time>2021-09-24T07:09:25.000Z</time>
</trkpt>
<trkpt lat="31.8023915" lon="35.0111797">
<ele>295.200012</ele>
<time>2021-09-24T07:09:26.000Z</time>
</trkpt>
<trkpt lat="31.8024443" lon="35.0111033">
<ele>294.799988</ele>
<time>2021-09-24T07:09:27.000Z</time>
</trkpt>
<trkpt lat="31.8026884" lon="35.0106965">
<ele>292.799988</ele>
<time>2021-09-24T07:09:32.000Z</time>
</trkpt>
<trkpt lat="31.8027228" lon="35.0106019">
<ele>292.399994</ele>
<time>2021-09-24T07:09:33.000Z</time>
</trkpt>
<trkpt lat="31.8027401" lon="35.0105013">
<ele>292.000000</ele>
<time>2021-09-24T07:09:34.000Z</time>
</trkpt>
<trkpt lat="31.8027399" lon="35.0104008">
<ele>291.399994</ele>
<time>2021-09-24T07:09:35.000Z</time>
</trkpt>
<trkpt lat="31.8027278" lon="35.0103043">
<ele>291.000000</ele>
<time>2021-09-24T07:09:36.000Z</time>
</trkpt>
<trkpt lat="31.8027097" lon="35.0102108">
<ele>290.000000</ele>
<time>2021-09-24T07:09:37.000Z</time>
</trkpt>
<trkpt lat="31.8026421" lon="35.0098482">
<ele>288.600006</ele>
<time>2021-09-24T07:09:41.000Z</time>
</trkpt>
<trkpt lat="31.8026428" lon="35.0097605">
<ele>288.399994</ele>
<time>2021-09-24T07:09:42.000Z</time>
</trkpt>
<trkpt lat="31.8026375" lon="35.0091298">
<ele>286.799988</ele>
<time>2021-09-24T07:09:50.000Z</time>
</trkpt>
<trkpt lat="31.8025327" lon="35.0085990">
<ele>286.399994</ele>
<time>2021-09-24T07:09:58.000Z</time>
</trkpt>
<trkpt lat="31.8024918" lon="35.0083493">
<ele>286.399994</ele>
<time>2021-09-24T07:10:02.000Z</time>
</trkpt>
<trkpt lat="31.8024946" lon="35.0082875">
<ele>286.399994</ele>
<time>2021-09-24T07:10:03.000Z</time>
</trkpt>
<trkpt lat="31.8025078" lon="35.0082273">
<ele>286.399994</ele>
<time>2021-09-24T07:10:04.000Z</time>
</trkpt>
<trkpt lat="31.8025338" lon="35.0081693">
<ele>286.399994</ele>
<time>2021-09-24T07:10:05.000Z</time>
</trkpt>
<trkpt lat="31.8025736" lon="35.0081193">
<ele>286.399994</ele>
<time>2021-09-24T07:10:06.000Z</time>
</trkpt>
<trkpt lat="31.8026260" lon="35.0080843">
<ele>286.200012</ele>
<time>2021-09-24T07:10:07.000Z</time>
</trkpt>
<trkpt lat="31.8026838" lon="35.0080574">
<ele>286.200012</ele>
<time>2021-09-24T07:10:08.000Z</time>
</trkpt>
<trkpt lat="31.8027448" lon="35.0080317">
<ele>286.200012</ele>
<time>2021-09-24T07:10:09.000Z</time>
</trkpt>
<trkpt lat="31.8032546" lon="35.0078282">
<ele>284.600006</ele>
<time>2021-09-24T07:10:17.000Z</time>
</trkpt>
<trkpt lat="31.8038335" lon="35.0075286">
<ele>282.799988</ele>
<time>2021-09-24T07:10:26.000Z</time>
</trkpt>
<trkpt lat="31.8042054" lon="35.0072454">
<ele>281.600006</ele>
<time>2021-09-24T07:10:32.000Z</time>
</trkpt>
<trkpt lat="31.8042580" lon="35.0071790">
<ele>281.600006</ele>
<time>2021-09-24T07:10:33.000Z</time>
</trkpt>
<trkpt lat="31.8045122" lon="35.0068583">
<ele>280.200012</ele>
<time>2021-09-24T07:10:38.000Z</time>
</trkpt>
<trkpt lat="31.8045914" lon="35.0067330">
<ele>279.600006</ele>
<time>2021-09-24T07:10:40.000Z</time>
</trkpt>
<trkpt lat="31.8048163" lon="35.0062376">
<ele>278.000000</ele>
<time>2021-09-24T07:10:47.000Z</time>
</trkpt>
<trkpt lat="31.8048586" lon="35.0060854">
<ele>277.799988</ele>
<time>2021-09-24T07:10:49.000Z</time>
</trkpt>
<trkpt lat="31.8048726" lon="35.0060030">
<ele>277.600006</ele>
<time>2021-09-24T07:10:50.000Z</time>
</trkpt>
<trkpt lat="31.8048889" lon="35.0058398">
<ele>277.399994</ele>
<time>2021-09-24T07:10:52.000Z</time>
</trkpt>
<trkpt lat="31.8048679" lon="35.0054192">
<ele>277.200012</ele>
<time>2021-09-24T07:10:58.000Z</time>
</trkpt>
<trkpt lat="31.8048693" lon="35.0053613">
<ele>277.200012</ele>
<time>2021-09-24T07:10:59.000Z</time>
</trkpt>
<trkpt lat="31.8048739" lon="35.0053033">
<ele>277.200012</ele>
<time>2021-09-24T07:11:00.000Z</time>
</trkpt>
<trkpt lat="31.8048888" lon="35.0051877">
<ele>277.399994</ele>
<time>2021-09-24T07:11:02.000Z</time>
</trkpt>
<trkpt lat="31.8048920" lon="35.0051292">
<ele>277.399994</ele>
<time>2021-09-24T07:11:03.000Z</time>
</trkpt>
<trkpt lat="31.8048848" lon="35.0050735">
<ele>277.399994</ele>
<time>2021-09-24T07:11:04.000Z</time>
</trkpt>
<trkpt lat="31.8048728" lon="35.0050192">
<ele>277.399994</ele>
<time>2021-09-24T07:11:05.000Z</time>
</trkpt>
<trkpt lat="31.8048637" lon="35.0049716">
<ele>277.600006</ele>
<time>2021-09-24T07:11:06.000Z</time>
</trkpt>
<trkpt lat="31.8048396" lon="35.0047796">
<ele>277.799988</ele>
<time>2021-09-24T07:11:10.000Z</time>
</trkpt>
<trkpt lat="31.8048474" lon="35.0047155">
<ele>278.000000</ele>
<time>2021-09-24T07:11:11.000Z</time>
</trkpt>
<trkpt lat="31.8048638" lon="35.0046501">
<ele>277.799988</ele>
<time>2021-09-24T07:11:12.000Z</time>
</trkpt>
<trkpt lat="31.8048890" lon="35.0045848">
<ele>277.600006</ele>
<time>2021-09-24T07:11:13.000Z</time>
</trkpt>
<trkpt lat="31.8049192" lon="35.0045222">
<ele>277.600006</ele>
<time>2021-09-24T07:11:14.000Z</time>
</trkpt>
<trkpt lat="31.8049555" lon="35.0044620">
<ele>277.399994</ele>
<time>2021-09-24T07:11:15.000Z</time>
</trkpt>
<trkpt lat="31.8049981" lon="35.0044189">
<ele>277.399994</ele>
<time>2021-09-24T07:11:16.000Z</time>
</trkpt>
<trkpt lat="31.8050482" lon="35.0043938">
<ele>277.399994</ele>
<time>2021-09-24T07:11:17.000Z</time>
</trkpt>
<trkpt lat="31.8051028" lon="35.0043806">
<ele>277.200012</ele>
<time>2021-09-24T07:11:18.000Z</time>
</trkpt>
<trkpt lat="31.8051592" lon="35.0043716">
<ele>277.200012</ele>
<time>2021-09-24T07:11:19.000Z</time>
</trkpt>
<trkpt lat="31.8055046" lon="35.0042661">
<ele>277.200012</ele>
<time>2021-09-24T07:11:26.000Z</time>
</trkpt>
<trkpt lat="31.8056435" lon="35.0042382">
<ele>277.200012</ele>
<time>2021-09-24T07:11:29.000Z</time>
</trkpt>
<trkpt lat="31.8056948" lon="35.0042395">
<ele>277.200012</ele>
<time>2021-09-24T07:11:30.000Z</time>
</trkpt>
<trkpt lat="31.8057496" lon="35.0042496">
<ele>277.200012</ele>
<time>2021-09-24T07:11:31.000Z</time>
</trkpt>
<trkpt lat="31.8062002" lon="35.0043697">
<ele>276.799988</ele>
<time>2021-09-24T07:11:38.000Z</time>
</trkpt>
<trkpt lat="31.8065399" lon="35.0044728">
<ele>274.600006</ele>
<time>2021-09-24T07:11:43.000Z</time>
</trkpt>
<trkpt lat="31.8065810" lon="35.0044828">
<ele>274.000000</ele>
<time>2021-09-24T07:11:44.000Z</time>
</trkpt>
<trkpt lat="31.8066116" lon="35.0045044">
<ele>273.200012</ele>
<time>2021-09-24T07:11:45.000Z</time>
</trkpt>
<trkpt lat="31.8066374" lon="35.0045408">
<ele>272.600006</ele>
<time>2021-09-24T07:11:46.000Z</time>
</trkpt>
<trkpt lat="31.8066539" lon="35.0045852">
<ele>272.200012</ele>
<time>2021-09-24T07:11:47.000Z</time>
</trkpt>
<trkpt lat="31.8066666" lon="35.0046339">
<ele>271.799988</ele>
<time>2021-09-24T07:11:48.000Z</time>
</trkpt>
<trkpt lat="31.8066845" lon="35.0046860">
<ele>271.600006</ele>
<time>2021-09-24T07:11:49.000Z</time>
</trkpt>
<trkpt lat="31.8068330" lon="35.0049328">
<ele>270.000000</ele>
<time>2021-09-24T07:11:55.000Z</time>
</trkpt>
<trkpt lat="31.8068612" lon="35.0049527">
<ele>270.000000</ele>
<time>2021-09-24T07:11:56.000Z</time>
</trkpt>
<trkpt lat="31.8068942" lon="35.0049600">
<ele>270.000000</ele>
<time>2021-09-24T07:11:57.000Z</time>
</trkpt>
<trkpt lat="31.8069282" lon="35.0049552">
<ele>270.000000</ele>
<time>2021-09-24T07:11:58.000Z</time>
</trkpt>
<trkpt lat="31.8069660" lon="35.0049429">
<ele>270.000000</ele>
<time>2021-09-24T07:11:59.000Z</time>
</trkpt>
<trkpt lat="31.8070080" lon="35.0049268">
<ele>270.000000</ele>
<time>2021-09-24T07:12:00.000Z</time>
</trkpt>
<trkpt lat="31.8073228" lon="35.0047694">
<ele>270.000000</ele>
<time>2021-09-24T07:12:06.000Z</time>
</trkpt>
<trkpt lat="31.8074418" lon="35.0047211">
<ele>269.600006</ele>
<time>2021-09-24T07:12:08.000Z</time>
</trkpt>
<trkpt lat="31.8075030" lon="35.0047081">
<ele>269.600006</ele>
<time>2021-09-24T07:12:09.000Z</time>
</trkpt>
<trkpt lat="31.8075645" lon="35.0047091">
<ele>269.399994</ele>
<time>2021-09-24T07:12:10.000Z</time>
</trkpt>
<trkpt lat="31.8076242" lon="35.0047204">
<ele>269.200012</ele>
<time>2021-09-24T07:12:11.000Z</time>
</trkpt>
<trkpt lat="31.8076814" lon="35.0047365">
<ele>269.000000</ele>
<time>2021-09-24T07:12:12.000Z</time>
</trkpt>
<trkpt lat="31.8077373" lon="35.0047559">
<ele>269.000000</ele>
<time>2021-09-24T07:12:13.000Z</time>
</trkpt>
<trkpt lat="31.8077910" lon="35.0047790">
<ele>268.799988</ele>
<time>2021-09-24T07:12:14.000Z</time>
</trkpt>
<trkpt lat="31.8078416" lon="35.0048070">
<ele>268.799988</ele>
<time>2021-09-24T07:12:15.000Z</time>
</trkpt>
<trkpt lat="31.8078883" lon="35.0048368">
<ele>268.600006</ele>
<time>2021-09-24T07:12:16.000Z</time>
</trkpt>
<trkpt lat="31.8082082" lon="35.0050080">
<ele>268.600006</ele>
<time>2021-09-24T07:12:24.000Z</time>
</trkpt>
<trkpt lat="31.8082512" lon="35.0050180">
<ele>268.600006</ele>
<time>2021-09-24T07:12:25.000Z</time>
</trkpt>
<trkpt lat="31.8082961" lon="35.0050258">
<ele>268.600006</ele>
<time>2021-09-24T07:12:26.000Z</time>
</trkpt>
<trkpt lat="31.8086018" lon="35.0050213">
<ele>269.000000</ele>
<time>2021-09-24T07:12:32.000Z</time>
</trkpt>
<trkpt lat="31.8086542" lon="35.0050278">
<ele>268.799988</ele>
<time>2021-09-24T07:12:33.000Z</time>
</trkpt>
<trkpt lat="31.8087055" lon="35.0050395">
<ele>268.799988</ele>
<time>2021-09-24T07:12:34.000Z</time>
</trkpt>
<trkpt lat="31.8087548" lon="35.0050567">
<ele>268.799988</ele>
<time>2021-09-24T07:12:35.000Z</time>
</trkpt>
<trkpt lat="31.8088013" lon="35.0050784">
<ele>268.799988</ele>
<time>2021-09-24T07:12:36.000Z</time>
</trkpt>
<trkpt lat="31.8088469" lon="35.0051017">
<ele>268.799988</ele>
<time>2021-09-24T07:12:37.000Z</time>
</trkpt>
<trkpt lat="31.8090776" lon="35.0051921">
<ele>269.200012</ele>
<time>2021-09-24T07:12:42.000Z</time>
</trkpt>
<trkpt lat="31.8093043" lon="35.0051504">
<ele>270.200012</ele>
<time>2021-09-24T07:12:48.000Z</time>
</trkpt>
<trkpt lat="31.8094132" lon="35.0050291">
<ele>270.399994</ele>
<time>2021-09-24T07:12:52.000Z</time>
</trkpt>
<trkpt lat="31.8094300" lon="35.0049810">
<ele>270.399994</ele>
<time>2021-09-24T07:12:53.000Z</time>
</trkpt>
<trkpt lat="31.8094483" lon="35.0049276">
<ele>270.399994</ele>
<time>2021-09-24T07:12:54.000Z</time>
</trkpt>
<trkpt lat="31.8094739" lon="35.0048727">
<ele>270.399994</ele>
<time>2021-09-24T07:12:55.000Z</time>
</trkpt>
<trkpt lat="31.8095043" lon="35.0048089">
<ele>270.399994</ele>
<time>2021-09-24T07:12:56.000Z</time>
</trkpt>
<trkpt lat="31.8095416" lon="35.0047443">
<ele>270.399994</ele>
<time>2021-09-24T07:12:57.000Z</time>
</trkpt>
<trkpt lat="31.8095851" lon="35.0046818">
<ele>270.200012</ele>
<time>2021-09-24T07:12:58.000Z</time>
</trkpt>
<trkpt lat="31.8096315" lon="35.0046188">
<ele>270.200012</ele>
<time>2021-09-24T07:12:59.000Z</time>
</trkpt>
<trkpt lat="31.8100041" lon="35.0041421">
<ele>267.799988</ele>
<time>2021-09-24T07:13:06.000Z</time>
</trkpt>
<trkpt lat="31.8101312" lon="35.0040086">
<ele>267.399994</ele>
<time>2021-09-24T07:13:08.000Z</time>
</trkpt>
<trkpt lat="31.8102049" lon="35.0039548">
<ele>267.200012</ele>
<time>2021-09-24T07:13:09.000Z</time>
</trkpt>
<trkpt lat="31.8102836" lon="35.0039156">
<ele>266.799988</ele>
<time>2021-09-24T07:13:10.000Z</time>
</trkpt>
<trkpt lat="31.8106749" lon="35.0037847">
<ele>264.600006</ele>
<time>2021-09-24T07:13:15.000Z</time>
</trkpt>
<trkpt lat="31.8107482" lon="35.0037803">
<ele>264.200012</ele>
<time>2021-09-24T07:13:16.000Z</time>
</trkpt>
<trkpt lat="31.8108174" lon="35.0037870">
<ele>264.000000</ele>
<time>2021-09-24T07:13:17.000Z</time>
</trkpt>
<trkpt lat="31.8108830" lon="35.0038035">
<ele>263.600006</ele>
<time>2021-09-24T07:13:18.000Z</time>
</trkpt>
<trkpt lat="31.8109447" lon="35.0038291">
<ele>263.200012</ele>
<time>2021-09-24T07:13:19.000Z</time>
</trkpt>
<trkpt lat="31.8110001" lon="35.0038632">
<ele>263.000000</ele>
<time>2021-09-24T07:13:20.000Z</time>
</trkpt>
<trkpt lat="31.8110494" lon="35.0039007">
<ele>262.799988</ele>
<time>2021-09-24T07:13:21.000Z</time>
</trkpt>
<trkpt lat="31.8110938" lon="35.0039384">
<ele>262.600006</ele>
<time>2021-09-24T07:13:22.000Z</time>
</trkpt>
<trkpt lat="31.8113646" lon="35.0041745">
<ele>262.200012</ele>
<time>2021-09-24T07:13:29.000Z</time>
</trkpt>
<trkpt lat="31.8114358" lon="35.0042699">
<ele>262.000000</ele>
<time>2021-09-24T07:13:31.000Z</time>
</trkpt>
<trkpt lat="31.8114655" lon="35.0043240">
<ele>262.000000</ele>
<time>2021-09-24T07:13:32.000Z</time>
</trkpt>
<trkpt lat="31.8115307" lon="35.0044930">
<ele>261.799988</ele>
<time>2021-09-24T07:13:35.000Z</time>
</trkpt>
<trkpt lat="31.8115408" lon="35.0045474">
<ele>261.799988</ele>
<time>2021-09-24T07:13:36.000Z</time>
</trkpt>
<trkpt lat="31.8115467" lon="35.0045989">
<ele>261.799988</ele>
<time>2021-09-24T07:13:37.000Z</time>
</trkpt>
<trkpt lat="31.8115903" lon="35.0050001">
<ele>263.000000</ele>
<time>2021-09-24T07:13:46.000Z</time>
</trkpt>
<trkpt lat="31.8116824" lon="35.0053016">
<ele>263.399994</ele>
<time>2021-09-24T07:13:54.000Z</time>
</trkpt>
<trkpt lat="31.8117284" lon="35.0053770">
<ele>263.600006</ele>
<time>2021-09-24T07:13:56.000Z</time>
</trkpt>
<trkpt lat="31.8117614" lon="35.0054076">
<ele>263.799988</ele>
<time>2021-09-24T07:13:57.000Z</time>
</trkpt>
<trkpt lat="31.8118045" lon="35.0054239">
<ele>263.799988</ele>
<time>2021-09-24T07:13:58.000Z</time>
</trkpt>
<trkpt lat="31.8118490" lon="35.0054212">
<ele>263.799988</ele>
<time>2021-09-24T07:13:59.000Z</time>
</trkpt>
<trkpt lat="31.8118913" lon="35.0054084">
<ele>263.799988</ele>
<time>2021-09-24T07:14:00.000Z</time>
</trkpt>
<trkpt lat="31.8119320" lon="35.0053922">
<ele>263.799988</ele>
<time>2021-09-24T07:14:01.000Z</time>
</trkpt>
<trkpt lat="31.8119702" lon="35.0053743">
<ele>263.799988</ele>
<time>2021-09-24T07:14:02.000Z</time>
</trkpt>
<trkpt lat="31.8121861" lon="35.0052893">
<ele>264.399994</ele>
<time>2021-09-24T07:14:09.000Z</time>
</trkpt>
<trkpt lat="31.8122916" lon="35.0052509">
<ele>265.200012</ele>
<time>2021-09-24T07:14:14.000Z</time>
</trkpt>
<trkpt lat="31.8123098" lon="35.0052550">
<ele>265.399994</ele>
<time>2021-09-24T07:14:15.000Z</time>
</trkpt>
<trkpt lat="31.8123228" lon="35.0052662">
<ele>265.600006</ele>
<time>2021-09-24T07:14:16.000Z</time>
</trkpt>
<trkpt lat="31.8123310" lon="35.0052818">
<ele>265.799988</ele>
<time>2021-09-24T07:14:17.000Z</time>
</trkpt>
<trkpt lat="31.8123362" lon="35.0053021">
<ele>266.000000</ele>
<time>2021-09-24T07:14:18.000Z</time>
</trkpt>
<trkpt lat="31.8123377" lon="35.0053255">
<ele>266.200012</ele>
<time>2021-09-24T07:14:19.000Z</time>
</trkpt>
<trkpt lat="31.8123352" lon="35.0053495">
<ele>266.600006</ele>
<time>2021-09-24T07:14:20.000Z</time>
</trkpt>
<trkpt lat="31.8123328" lon="35.0053738">
<ele>267.000000</ele>
<time>2021-09-24T07:14:21.000Z</time>
</trkpt>
<trkpt lat="31.8123321" lon="35.0053986">
<ele>267.200012</ele>
<time>2021-09-24T07:14:22.000Z</time>
</trkpt>
<trkpt lat="31.8123315" lon="35.0054230">
<ele>267.200012</ele>
<time>2021-09-24T07:14:23.000Z</time>
</trkpt>
<trkpt lat="31.8123511" lon="35.0056347">
<ele>268.799988</ele>
<time>2021-09-24T07:14:32.000Z</time>
</trkpt>
<trkpt lat="31.8123752" lon="35.0058145">
<ele>270.399994</ele>
<time>2021-09-24T07:14:40.000Z</time>
</trkpt>
<trkpt lat="31.8123859" lon="35.0059948">
<ele>271.799988</ele>
<time>2021-09-24T07:14:48.000Z</time>
</trkpt>
<trkpt lat="31.8123721" lon="35.0063143">
<ele>272.600006</ele>
<time>2021-09-24T07:14:57.000Z</time>
</trkpt>
<trkpt lat="31.8123582" lon="35.0066123">
<ele>273.000000</ele>
<time>2021-09-24T07:15:02.000Z</time>
</trkpt>
<trkpt lat="31.8123482" lon="35.0066788">
<ele>272.600006</ele>
<time>2021-09-24T07:15:03.000Z</time>
</trkpt>
<trkpt lat="31.8123413" lon="35.0067468">
<ele>272.600006</ele>
<time>2021-09-24T07:15:04.000Z</time>
</trkpt>
<trkpt lat="31.8123329" lon="35.0068144">
<ele>272.399994</ele>
<time>2021-09-24T07:15:05.000Z</time>
</trkpt>
<trkpt lat="31.8123204" lon="35.0068816">
<ele>272.399994</ele>
<time>2021-09-24T07:15:06.000Z</time>
</trkpt>
<trkpt lat="31.8122787" lon="35.0074923">
<ele>272.000000</ele>
<time>2021-09-24T07:15:15.000Z</time>
</trkpt>
<trkpt lat="31.8122668" lon="35.0080583">
<ele>272.000000</ele>
<time>2021-09-24T07:15:24.000Z</time>
</trkpt>
<trkpt lat="31.8122771" lon="35.0084981">
<ele>272.399994</ele>
<time>2021-09-24T07:15:32.000Z</time>
</trkpt>
<trkpt lat="31.8122678" lon="35.0087046">
<ele>273.200012</ele>
<time>2021-09-24T07:15:36.000Z</time>
</trkpt>
<trkpt lat="31.8122151" lon="35.0090480">
<ele>274.000000</ele>
<time>2021-09-24T07:15:43.000Z</time>
</trkpt>
<trkpt lat="31.8122049" lon="35.0093560">
<ele>274.799988</ele>
<time>2021-09-24T07:15:50.000Z</time>
</trkpt>
<trkpt lat="31.8121776" lon="35.0098491">
<ele>276.600006</ele>
<time>2021-09-24T07:16:02.000Z</time>
</trkpt>
<trkpt lat="31.8121596" lon="35.0100932">
<ele>277.000000</ele>
<time>2021-09-24T07:16:08.000Z</time>
</trkpt>
<trkpt lat="31.8120572" lon="35.0105880">
<ele>278.200012</ele>
<time>2021-09-24T07:16:18.000Z</time>
</trkpt>
<trkpt lat="31.8119353" lon="35.0111561">
<ele>278.799988</ele>
<time>2021-09-24T07:16:27.000Z</time>
</trkpt>
<trkpt lat="31.8118364" lon="35.0115402">
<ele>280.000000</ele>
<time>2021-09-24T07:16:35.000Z</time>
</trkpt>
<trkpt lat="31.8117239" lon="35.0119666">
<ele>280.799988</ele>
<time>2021-09-24T07:16:43.000Z</time>
</trkpt>
<trkpt lat="31.8115768" lon="35.0124161">
<ele>281.600006</ele>
<time>2021-09-24T07:16:52.000Z</time>
</trkpt>
<trkpt lat="31.8114663" lon="35.0127496">
<ele>282.399994</ele>
<time>2021-09-24T07:16:59.000Z</time>
</trkpt>
<trkpt lat="31.8114049" lon="35.0129518">
<ele>283.000000</ele>
<time>2021-09-24T07:17:05.000Z</time>
</trkpt>
</trkseg>
</trk>
</gpx>
